<?xml version="1.0" encoding="UTF-8" standalone="no" ?>
<gpx xmlns="http://www.topografix.com/GPX/1/1" xmlns:xsi="http://www.w3.org/2001/XMLSchema-instance" xsi:schemaLocation="http://www.topografix.com/GPX/1/1 http://www.topografix.com/GPX/1/1/gpx.xsd" version="1.1" creator="VisuGPX - https://www.visugpx.com">
  <metadata>
    <name>Défi des Birettes 2017</name>
    <desc><![CDATA[42éme défi des Birettes à travers les coteaux du sancerrois]]></desc>
  </metadata>
  <trk>
    <name><![CDATA[Defi des Birettes 2017-10-01 06:58]]></name>
    <desc><![CDATA[<p>Heure de départ: 10/01/2017 06:58<br/>Heure d'arrivée: 10/01/2017 13:32<br/>Distance: 36,3 km (06:33)<br/>Temps déplacement: 05:57<br/>Vitesse moyenne: 5,54 km/h<br/>Vitesse moyenne mouv.: 6,08 km/h<br/>Vitesse Max.: 18,24 km/h<br/>Altitude minimale: 187 m<br/>Altitude maximale: 338 m<br/>Vitesse de montée: 241,5 m/h<br/>Vitesse de descente: -262,4 m/h<br/>Gain d'altitude: 745 m<br/>Perte d'altitude: -744 m<br/>Temps de montée: 03:05<br/>Temps de descente: 02:50<br/></p><hr align="center" width="480" style="height: 2px; width: 517px"/>]]></desc>
    <trkseg>
      <trkpt lat="47.40221" lon="2.75488">
        <ele>227.35</ele>
        <time>2017-10-01T04:58:47Z</time>
      </trkpt>
      <trkpt lat="47.40239" lon="2.75495">
        <ele>230.24</ele>
        <time>2017-10-01T05:04:06Z</time>
      </trkpt>
      <trkpt lat="47.40244" lon="2.75522">
        <ele>229.03</ele>
        <time>2017-10-01T05:04:32Z</time>
      </trkpt>
      <trkpt lat="47.40242" lon="2.7555">
        <ele>229.45</ele>
        <time>2017-10-01T05:04:48Z</time>
      </trkpt>
      <trkpt lat="47.40254" lon="2.75571">
        <ele>230.63</ele>
        <time>2017-10-01T05:05:08Z</time>
      </trkpt>
      <trkpt lat="47.40272" lon="2.75565">
        <ele>230.58</ele>
        <time>2017-10-01T05:05:21Z</time>
      </trkpt>
      <trkpt lat="47.40291" lon="2.75558">
        <ele>231.14</ele>
        <time>2017-10-01T05:05:36Z</time>
      </trkpt>
      <trkpt lat="47.40309" lon="2.75554">
        <ele>232.71</ele>
        <time>2017-10-01T05:05:49Z</time>
      </trkpt>
      <trkpt lat="47.40326" lon="2.75544">
        <ele>235.66</ele>
        <time>2017-10-01T05:06:05Z</time>
      </trkpt>
      <trkpt lat="47.40333" lon="2.75519">
        <ele>236.32</ele>
        <time>2017-10-01T05:06:21Z</time>
      </trkpt>
      <trkpt lat="47.40324" lon="2.75496">
        <ele>234.6</ele>
        <time>2017-10-01T05:06:36Z</time>
      </trkpt>
      <trkpt lat="47.40321" lon="2.75467">
        <ele>232.99</ele>
        <time>2017-10-01T05:06:51Z</time>
      </trkpt>
      <trkpt lat="47.40316" lon="2.7544">
        <ele>234.86</ele>
        <time>2017-10-01T05:07:05Z</time>
      </trkpt>
      <trkpt lat="47.40315" lon="2.75413">
        <ele>234.23</ele>
        <time>2017-10-01T05:07:19Z</time>
      </trkpt>
      <trkpt lat="47.40329" lon="2.75394">
        <ele>232.92</ele>
        <time>2017-10-01T05:07:34Z</time>
      </trkpt>
      <trkpt lat="47.40347" lon="2.75391">
        <ele>233.28</ele>
        <time>2017-10-01T05:07:45Z</time>
      </trkpt>
      <trkpt lat="47.40367" lon="2.75393">
        <ele>232.54</ele>
        <time>2017-10-01T05:07:59Z</time>
      </trkpt>
      <trkpt lat="47.40385" lon="2.75392">
        <ele>232.79</ele>
        <time>2017-10-01T05:08:13Z</time>
      </trkpt>
      <trkpt lat="47.40404" lon="2.75385">
        <ele>234.29</ele>
        <time>2017-10-01T05:08:24Z</time>
      </trkpt>
      <trkpt lat="47.40424" lon="2.75382">
        <ele>238.56</ele>
        <time>2017-10-01T05:08:41Z</time>
      </trkpt>
      <trkpt lat="47.40443" lon="2.75377">
        <ele>239.33</ele>
        <time>2017-10-01T05:08:51Z</time>
      </trkpt>
      <trkpt lat="47.40461" lon="2.75366">
        <ele>239.3</ele>
        <time>2017-10-01T05:09:02Z</time>
      </trkpt>
      <trkpt lat="47.40471" lon="2.75344">
        <ele>240.34</ele>
        <time>2017-10-01T05:09:16Z</time>
      </trkpt>
      <trkpt lat="47.40488" lon="2.75335">
        <ele>241.19</ele>
        <time>2017-10-01T05:09:30Z</time>
      </trkpt>
      <trkpt lat="47.40507" lon="2.75313">
        <ele>241.94</ele>
        <time>2017-10-01T05:09:48Z</time>
      </trkpt>
      <trkpt lat="47.40524" lon="2.75302">
        <ele>242.74</ele>
        <time>2017-10-01T05:09:58Z</time>
      </trkpt>
      <trkpt lat="47.40542" lon="2.75297">
        <ele>243.02</ele>
        <time>2017-10-01T05:10:10Z</time>
      </trkpt>
      <trkpt lat="47.40562" lon="2.75285">
        <ele>243.42</ele>
        <time>2017-10-01T05:10:22Z</time>
      </trkpt>
      <trkpt lat="47.40579" lon="2.75275">
        <ele>245.6</ele>
        <time>2017-10-01T05:10:34Z</time>
      </trkpt>
      <trkpt lat="47.40593" lon="2.75258">
        <ele>246.74</ele>
        <time>2017-10-01T05:10:49Z</time>
      </trkpt>
      <trkpt lat="47.4061" lon="2.75248">
        <ele>248.35</ele>
        <time>2017-10-01T05:11:06Z</time>
      </trkpt>
      <trkpt lat="47.40628" lon="2.75244">
        <ele>249.32</ele>
        <time>2017-10-01T05:11:21Z</time>
      </trkpt>
      <trkpt lat="47.40644" lon="2.75258">
        <ele>250.04</ele>
        <time>2017-10-01T05:11:34Z</time>
      </trkpt>
      <trkpt lat="47.40658" lon="2.75277">
        <ele>250.59</ele>
        <time>2017-10-01T05:11:46Z</time>
      </trkpt>
      <trkpt lat="47.40674" lon="2.75296">
        <ele>251.29</ele>
        <time>2017-10-01T05:11:58Z</time>
      </trkpt>
      <trkpt lat="47.40688" lon="2.75316">
        <ele>252.05</ele>
        <time>2017-10-01T05:12:10Z</time>
      </trkpt>
      <trkpt lat="47.40702" lon="2.75334">
        <ele>253.32</ele>
        <time>2017-10-01T05:12:23Z</time>
      </trkpt>
      <trkpt lat="47.40714" lon="2.75354">
        <ele>253.3</ele>
        <time>2017-10-01T05:12:39Z</time>
      </trkpt>
      <trkpt lat="47.40727" lon="2.75376">
        <ele>252.74</ele>
        <time>2017-10-01T05:12:50Z</time>
      </trkpt>
      <trkpt lat="47.40741" lon="2.75393">
        <ele>251.02</ele>
        <time>2017-10-01T05:13:09Z</time>
      </trkpt>
      <trkpt lat="47.40754" lon="2.75412">
        <ele>248.7</ele>
        <time>2017-10-01T05:13:19Z</time>
      </trkpt>
      <trkpt lat="47.40767" lon="2.75434">
        <ele>247.27</ele>
        <time>2017-10-01T05:13:29Z</time>
      </trkpt>
      <trkpt lat="47.4078" lon="2.75454">
        <ele>245.24</ele>
        <time>2017-10-01T05:13:41Z</time>
      </trkpt>
      <trkpt lat="47.40795" lon="2.75469">
        <ele>245.58</ele>
        <time>2017-10-01T05:13:52Z</time>
      </trkpt>
      <trkpt lat="47.40806" lon="2.75491">
        <ele>246.05</ele>
        <time>2017-10-01T05:14:05Z</time>
      </trkpt>
      <trkpt lat="47.40797" lon="2.75514">
        <ele>245.17</ele>
        <time>2017-10-01T05:14:17Z</time>
      </trkpt>
      <trkpt lat="47.40785" lon="2.75536">
        <ele>243.34</ele>
        <time>2017-10-01T05:14:30Z</time>
      </trkpt>
      <trkpt lat="47.40789" lon="2.75565">
        <ele>242.72</ele>
        <time>2017-10-01T05:14:45Z</time>
      </trkpt>
      <trkpt lat="47.40799" lon="2.75588">
        <ele>242.7</ele>
        <time>2017-10-01T05:14:59Z</time>
      </trkpt>
      <trkpt lat="47.40812" lon="2.7561">
        <ele>243.27</ele>
        <time>2017-10-01T05:15:11Z</time>
      </trkpt>
      <trkpt lat="47.40823" lon="2.75634">
        <ele>243.59</ele>
        <time>2017-10-01T05:15:26Z</time>
      </trkpt>
      <trkpt lat="47.40834" lon="2.75656">
        <ele>244.02</ele>
        <time>2017-10-01T05:15:37Z</time>
      </trkpt>
      <trkpt lat="47.4084" lon="2.75685">
        <ele>244.35</ele>
        <time>2017-10-01T05:15:49Z</time>
      </trkpt>
      <trkpt lat="47.40846" lon="2.7571">
        <ele>244.22</ele>
        <time>2017-10-01T05:16:02Z</time>
      </trkpt>
      <trkpt lat="47.40865" lon="2.7571">
        <ele>244.62</ele>
        <time>2017-10-01T05:16:16Z</time>
      </trkpt>
      <trkpt lat="47.40883" lon="2.75701">
        <ele>245.13</ele>
        <time>2017-10-01T05:16:29Z</time>
      </trkpt>
      <trkpt lat="47.40901" lon="2.75691">
        <ele>247.46</ele>
        <time>2017-10-01T05:16:43Z</time>
      </trkpt>
      <trkpt lat="47.40918" lon="2.75684">
        <ele>250.57</ele>
        <time>2017-10-01T05:16:57Z</time>
      </trkpt>
      <trkpt lat="47.4094" lon="2.75671">
        <ele>252.21</ele>
        <time>2017-10-01T05:17:10Z</time>
      </trkpt>
      <trkpt lat="47.40957" lon="2.75658">
        <ele>253.52</ele>
        <time>2017-10-01T05:17:24Z</time>
      </trkpt>
      <trkpt lat="47.40973" lon="2.75671">
        <ele>253.75</ele>
        <time>2017-10-01T05:17:40Z</time>
      </trkpt>
      <trkpt lat="47.40989" lon="2.75687">
        <ele>253.78</ele>
        <time>2017-10-01T05:17:52Z</time>
      </trkpt>
      <trkpt lat="47.41006" lon="2.75702">
        <ele>253.81</ele>
        <time>2017-10-01T05:18:05Z</time>
      </trkpt>
      <trkpt lat="47.41021" lon="2.75715">
        <ele>253.08</ele>
        <time>2017-10-01T05:18:16Z</time>
      </trkpt>
      <trkpt lat="47.41034" lon="2.75737">
        <ele>250.59</ele>
        <time>2017-10-01T05:18:30Z</time>
      </trkpt>
      <trkpt lat="47.4105" lon="2.75752">
        <ele>248.91</ele>
        <time>2017-10-01T05:18:42Z</time>
      </trkpt>
      <trkpt lat="47.41065" lon="2.75768">
        <ele>247.12</ele>
        <time>2017-10-01T05:18:51Z</time>
      </trkpt>
      <trkpt lat="47.41079" lon="2.75786">
        <ele>245.6</ele>
        <time>2017-10-01T05:19:04Z</time>
      </trkpt>
      <trkpt lat="47.41091" lon="2.75806">
        <ele>245.14</ele>
        <time>2017-10-01T05:19:17Z</time>
      </trkpt>
      <trkpt lat="47.41103" lon="2.75829">
        <ele>244.34</ele>
        <time>2017-10-01T05:19:32Z</time>
      </trkpt>
      <trkpt lat="47.41113" lon="2.75851">
        <ele>243.95</ele>
        <time>2017-10-01T05:19:41Z</time>
      </trkpt>
      <trkpt lat="47.41121" lon="2.75878">
        <ele>242.84</ele>
        <time>2017-10-01T05:19:53Z</time>
      </trkpt>
      <trkpt lat="47.4113" lon="2.75902">
        <ele>242.74</ele>
        <time>2017-10-01T05:20:05Z</time>
      </trkpt>
      <trkpt lat="47.41146" lon="2.75916">
        <ele>241.49</ele>
        <time>2017-10-01T05:20:22Z</time>
      </trkpt>
      <trkpt lat="47.41157" lon="2.75938">
        <ele>240.82</ele>
        <time>2017-10-01T05:20:30Z</time>
      </trkpt>
      <trkpt lat="47.41169" lon="2.75961">
        <ele>242.09</ele>
        <time>2017-10-01T05:20:42Z</time>
      </trkpt>
      <trkpt lat="47.41176" lon="2.75985">
        <ele>242.67</ele>
        <time>2017-10-01T05:20:57Z</time>
      </trkpt>
      <trkpt lat="47.41185" lon="2.76012">
        <ele>241.82</ele>
        <time>2017-10-01T05:21:10Z</time>
      </trkpt>
      <trkpt lat="47.41193" lon="2.76037">
        <ele>241.07</ele>
        <time>2017-10-01T05:21:22Z</time>
      </trkpt>
      <trkpt lat="47.41199" lon="2.76062">
        <ele>240.07</ele>
        <time>2017-10-01T05:21:34Z</time>
      </trkpt>
      <trkpt lat="47.41206" lon="2.76087">
        <ele>237.67</ele>
        <time>2017-10-01T05:21:49Z</time>
      </trkpt>
      <trkpt lat="47.4121" lon="2.76113">
        <ele>232.03</ele>
        <time>2017-10-01T05:22:05Z</time>
      </trkpt>
      <trkpt lat="47.4121" lon="2.76146">
        <ele>228.8</ele>
        <time>2017-10-01T05:22:15Z</time>
      </trkpt>
      <trkpt lat="47.41207" lon="2.76173">
        <ele>226.69</ele>
        <time>2017-10-01T05:22:25Z</time>
      </trkpt>
      <trkpt lat="47.41205" lon="2.76201">
        <ele>224.8</ele>
        <time>2017-10-01T05:22:41Z</time>
      </trkpt>
      <trkpt lat="47.41203" lon="2.76227">
        <ele>225.51</ele>
        <time>2017-10-01T05:22:51Z</time>
      </trkpt>
      <trkpt lat="47.41199" lon="2.76253">
        <ele>226.25</ele>
        <time>2017-10-01T05:23:02Z</time>
      </trkpt>
      <trkpt lat="47.41196" lon="2.76281">
        <ele>228.6</ele>
        <time>2017-10-01T05:23:16Z</time>
      </trkpt>
      <trkpt lat="47.41195" lon="2.76309">
        <ele>230.44</ele>
        <time>2017-10-01T05:23:30Z</time>
      </trkpt>
      <trkpt lat="47.41194" lon="2.76336">
        <ele>230.46</ele>
        <time>2017-10-01T05:23:44Z</time>
      </trkpt>
      <trkpt lat="47.41194" lon="2.76363">
        <ele>229.12</ele>
        <time>2017-10-01T05:23:57Z</time>
      </trkpt>
      <trkpt lat="47.41191" lon="2.76392">
        <ele>226.8</ele>
        <time>2017-10-01T05:24:10Z</time>
      </trkpt>
      <trkpt lat="47.41195" lon="2.76419">
        <ele>224.44</ele>
        <time>2017-10-01T05:24:21Z</time>
      </trkpt>
      <trkpt lat="47.41197" lon="2.76447">
        <ele>221.41</ele>
        <time>2017-10-01T05:24:33Z</time>
      </trkpt>
      <trkpt lat="47.41193" lon="2.76473">
        <ele>217.01</ele>
        <time>2017-10-01T05:24:47Z</time>
      </trkpt>
      <trkpt lat="47.41187" lon="2.76498">
        <ele>217.63</ele>
        <time>2017-10-01T05:25:00Z</time>
      </trkpt>
      <trkpt lat="47.41196" lon="2.76522">
        <ele>223.66</ele>
        <time>2017-10-01T05:25:18Z</time>
      </trkpt>
      <trkpt lat="47.41215" lon="2.76526">
        <ele>234.91</ele>
        <time>2017-10-01T05:25:33Z</time>
      </trkpt>
      <trkpt lat="47.41233" lon="2.76534">
        <ele>241.25</ele>
        <time>2017-10-01T05:25:45Z</time>
      </trkpt>
      <trkpt lat="47.4125" lon="2.76545">
        <ele>245.3</ele>
        <time>2017-10-01T05:25:58Z</time>
      </trkpt>
      <trkpt lat="47.41267" lon="2.76556">
        <ele>247.55</ele>
        <time>2017-10-01T05:26:10Z</time>
      </trkpt>
      <trkpt lat="47.41281" lon="2.76573">
        <ele>249.47</ele>
        <time>2017-10-01T05:26:21Z</time>
      </trkpt>
      <trkpt lat="47.41295" lon="2.76593">
        <ele>252.88</ele>
        <time>2017-10-01T05:26:35Z</time>
      </trkpt>
      <trkpt lat="47.41307" lon="2.76615">
        <ele>256.84</ele>
        <time>2017-10-01T05:26:49Z</time>
      </trkpt>
      <trkpt lat="47.4132" lon="2.76636">
        <ele>258.58</ele>
        <time>2017-10-01T05:27:01Z</time>
      </trkpt>
      <trkpt lat="47.41334" lon="2.76655">
        <ele>258.76</ele>
        <time>2017-10-01T05:27:16Z</time>
      </trkpt>
      <trkpt lat="47.41342" lon="2.76681">
        <ele>258.4</ele>
        <time>2017-10-01T05:27:52Z</time>
      </trkpt>
      <trkpt lat="47.41328" lon="2.76704">
        <ele>253.75</ele>
        <time>2017-10-01T05:28:07Z</time>
      </trkpt>
      <trkpt lat="47.41312" lon="2.76726">
        <ele>250.5</ele>
        <time>2017-10-01T05:28:20Z</time>
      </trkpt>
      <trkpt lat="47.41302" lon="2.76748">
        <ele>251.2</ele>
        <time>2017-10-01T05:28:37Z</time>
      </trkpt>
      <trkpt lat="47.41288" lon="2.76766">
        <ele>250.2</ele>
        <time>2017-10-01T05:28:49Z</time>
      </trkpt>
      <trkpt lat="47.41272" lon="2.7678">
        <ele>249.57</ele>
        <time>2017-10-01T05:29:05Z</time>
      </trkpt>
      <trkpt lat="47.41258" lon="2.76797">
        <ele>248.08</ele>
        <time>2017-10-01T05:29:20Z</time>
      </trkpt>
      <trkpt lat="47.41243" lon="2.76818">
        <ele>247.41</ele>
        <time>2017-10-01T05:29:25Z</time>
      </trkpt>
      <trkpt lat="47.41232" lon="2.7684">
        <ele>248.11</ele>
        <time>2017-10-01T05:29:33Z</time>
      </trkpt>
      <trkpt lat="47.41217" lon="2.76856">
        <ele>248.09</ele>
        <time>2017-10-01T05:29:51Z</time>
      </trkpt>
      <trkpt lat="47.41204" lon="2.76878">
        <ele>247</ele>
        <time>2017-10-01T05:30:07Z</time>
      </trkpt>
      <trkpt lat="47.41189" lon="2.76893">
        <ele>246.6</ele>
        <time>2017-10-01T05:30:19Z</time>
      </trkpt>
      <trkpt lat="47.41174" lon="2.76908">
        <ele>246.19</ele>
        <time>2017-10-01T05:30:29Z</time>
      </trkpt>
      <trkpt lat="47.41162" lon="2.76931">
        <ele>246.12</ele>
        <time>2017-10-01T05:30:43Z</time>
      </trkpt>
      <trkpt lat="47.41148" lon="2.76949">
        <ele>246.2</ele>
        <time>2017-10-01T05:30:56Z</time>
      </trkpt>
      <trkpt lat="47.41132" lon="2.76963">
        <ele>246.8</ele>
        <time>2017-10-01T05:31:06Z</time>
      </trkpt>
      <trkpt lat="47.41116" lon="2.7698">
        <ele>247.84</ele>
        <time>2017-10-01T05:31:17Z</time>
      </trkpt>
      <trkpt lat="47.41104" lon="2.77">
        <ele>250.3</ele>
        <time>2017-10-01T05:31:27Z</time>
      </trkpt>
      <trkpt lat="47.41089" lon="2.77016">
        <ele>251.91</ele>
        <time>2017-10-01T05:31:38Z</time>
      </trkpt>
      <trkpt lat="47.41076" lon="2.77034">
        <ele>251.84</ele>
        <time>2017-10-01T05:31:51Z</time>
      </trkpt>
      <trkpt lat="47.41064" lon="2.77055">
        <ele>248.33</ele>
        <time>2017-10-01T05:32:06Z</time>
      </trkpt>
      <trkpt lat="47.4106" lon="2.77082">
        <ele>246.09</ele>
        <time>2017-10-01T05:32:22Z</time>
      </trkpt>
      <trkpt lat="47.41056" lon="2.77109">
        <ele>241.66</ele>
        <time>2017-10-01T05:32:38Z</time>
      </trkpt>
      <trkpt lat="47.41053" lon="2.77137">
        <ele>235.56</ele>
        <time>2017-10-01T05:32:51Z</time>
      </trkpt>
      <trkpt lat="47.41048" lon="2.7717">
        <ele>233.52</ele>
        <time>2017-10-01T05:33:01Z</time>
      </trkpt>
      <trkpt lat="47.41039" lon="2.77194">
        <ele>233.89</ele>
        <time>2017-10-01T05:33:11Z</time>
      </trkpt>
      <trkpt lat="47.41036" lon="2.77222">
        <ele>235.03</ele>
        <time>2017-10-01T05:33:25Z</time>
      </trkpt>
      <trkpt lat="47.4103" lon="2.77247">
        <ele>233.53</ele>
        <time>2017-10-01T05:33:37Z</time>
      </trkpt>
      <trkpt lat="47.41028" lon="2.77275">
        <ele>232.38</ele>
        <time>2017-10-01T05:33:48Z</time>
      </trkpt>
      <trkpt lat="47.41021" lon="2.77302">
        <ele>229.32</ele>
        <time>2017-10-01T05:34:01Z</time>
      </trkpt>
      <trkpt lat="47.41003" lon="2.77307">
        <ele>228.62</ele>
        <time>2017-10-01T05:34:14Z</time>
      </trkpt>
      <trkpt lat="47.40986" lon="2.77294">
        <ele>232.48</ele>
        <time>2017-10-01T05:34:27Z</time>
      </trkpt>
      <trkpt lat="47.40971" lon="2.77275">
        <ele>236.86</ele>
        <time>2017-10-01T05:34:39Z</time>
      </trkpt>
      <trkpt lat="47.40957" lon="2.77256">
        <ele>240.65</ele>
        <time>2017-10-01T05:34:51Z</time>
      </trkpt>
      <trkpt lat="47.4094" lon="2.77236">
        <ele>244.66</ele>
        <time>2017-10-01T05:35:02Z</time>
      </trkpt>
      <trkpt lat="47.40926" lon="2.77219">
        <ele>248.66</ele>
        <time>2017-10-01T05:35:15Z</time>
      </trkpt>
      <trkpt lat="47.40912" lon="2.77201">
        <ele>251.82</ele>
        <time>2017-10-01T05:35:28Z</time>
      </trkpt>
      <trkpt lat="47.40898" lon="2.77183">
        <ele>252.71</ele>
        <time>2017-10-01T05:35:39Z</time>
      </trkpt>
      <trkpt lat="47.40882" lon="2.77167">
        <ele>252.94</ele>
        <time>2017-10-01T05:35:51Z</time>
      </trkpt>
      <trkpt lat="47.40867" lon="2.77151">
        <ele>253.82</ele>
        <time>2017-10-01T05:36:03Z</time>
      </trkpt>
      <trkpt lat="47.40855" lon="2.7713">
        <ele>254.13</ele>
        <time>2017-10-01T05:36:11Z</time>
      </trkpt>
      <trkpt lat="47.40839" lon="2.77116">
        <ele>254.17</ele>
        <time>2017-10-01T05:36:23Z</time>
      </trkpt>
      <trkpt lat="47.40826" lon="2.77097">
        <ele>254.19</ele>
        <time>2017-10-01T05:36:36Z</time>
      </trkpt>
      <trkpt lat="47.4081" lon="2.77084">
        <ele>255.4</ele>
        <time>2017-10-01T05:36:55Z</time>
      </trkpt>
      <trkpt lat="47.40795" lon="2.77067">
        <ele>257.48</ele>
        <time>2017-10-01T05:37:06Z</time>
      </trkpt>
      <trkpt lat="47.40776" lon="2.77058">
        <ele>258.96</ele>
        <time>2017-10-01T05:37:16Z</time>
      </trkpt>
      <trkpt lat="47.40753" lon="2.77049">
        <ele>262.34</ele>
        <time>2017-10-01T05:37:28Z</time>
      </trkpt>
      <trkpt lat="47.40735" lon="2.77036">
        <ele>265.05</ele>
        <time>2017-10-01T05:37:38Z</time>
      </trkpt>
      <trkpt lat="47.40717" lon="2.77029">
        <ele>266.46</ele>
        <time>2017-10-01T05:37:49Z</time>
      </trkpt>
      <trkpt lat="47.40699" lon="2.77024">
        <ele>266.75</ele>
        <time>2017-10-01T05:38:04Z</time>
      </trkpt>
      <trkpt lat="47.4068" lon="2.77018">
        <ele>266.13</ele>
        <time>2017-10-01T05:38:19Z</time>
      </trkpt>
      <trkpt lat="47.40658" lon="2.77008">
        <ele>264.58</ele>
        <time>2017-10-01T05:38:34Z</time>
      </trkpt>
      <trkpt lat="47.40638" lon="2.76999">
        <ele>261.15</ele>
        <time>2017-10-01T05:38:52Z</time>
      </trkpt>
      <trkpt lat="47.40619" lon="2.76999">
        <ele>262.48</ele>
        <time>2017-10-01T05:39:03Z</time>
      </trkpt>
      <trkpt lat="47.40602" lon="2.76983">
        <ele>263.44</ele>
        <time>2017-10-01T05:39:15Z</time>
      </trkpt>
      <trkpt lat="47.40586" lon="2.76972">
        <ele>263.1</ele>
        <time>2017-10-01T05:39:26Z</time>
      </trkpt>
      <trkpt lat="47.40568" lon="2.76981">
        <ele>262.72</ele>
        <time>2017-10-01T05:39:41Z</time>
      </trkpt>
      <trkpt lat="47.40559" lon="2.77004">
        <ele>261.26</ele>
        <time>2017-10-01T05:39:54Z</time>
      </trkpt>
      <trkpt lat="47.40549" lon="2.77029">
        <ele>259.09</ele>
        <time>2017-10-01T05:40:06Z</time>
      </trkpt>
      <trkpt lat="47.40541" lon="2.77053">
        <ele>254.64</ele>
        <time>2017-10-01T05:40:22Z</time>
      </trkpt>
      <trkpt lat="47.40539" lon="2.7708">
        <ele>251.1</ele>
        <time>2017-10-01T05:40:32Z</time>
      </trkpt>
      <trkpt lat="47.40538" lon="2.77108">
        <ele>250.24</ele>
        <time>2017-10-01T05:40:42Z</time>
      </trkpt>
      <trkpt lat="47.40533" lon="2.77135">
        <ele>251.11</ele>
        <time>2017-10-01T05:40:54Z</time>
      </trkpt>
      <trkpt lat="47.40532" lon="2.77164">
        <ele>251.34</ele>
        <time>2017-10-01T05:41:07Z</time>
      </trkpt>
      <trkpt lat="47.40536" lon="2.77192">
        <ele>251.24</ele>
        <time>2017-10-01T05:41:20Z</time>
      </trkpt>
      <trkpt lat="47.4053" lon="2.77219">
        <ele>248.98</ele>
        <time>2017-10-01T05:41:33Z</time>
      </trkpt>
      <trkpt lat="47.40515" lon="2.77236">
        <ele>247.45</ele>
        <time>2017-10-01T05:41:45Z</time>
      </trkpt>
      <trkpt lat="47.40498" lon="2.77248">
        <ele>247.11</ele>
        <time>2017-10-01T05:41:55Z</time>
      </trkpt>
      <trkpt lat="47.40482" lon="2.77262">
        <ele>247.26</ele>
        <time>2017-10-01T05:42:06Z</time>
      </trkpt>
      <trkpt lat="47.40468" lon="2.7728">
        <ele>247.39</ele>
        <time>2017-10-01T05:42:18Z</time>
      </trkpt>
      <trkpt lat="47.40451" lon="2.77294">
        <ele>247.21</ele>
        <time>2017-10-01T05:42:28Z</time>
      </trkpt>
      <trkpt lat="47.40432" lon="2.77296">
        <ele>247.05</ele>
        <time>2017-10-01T05:42:40Z</time>
      </trkpt>
      <trkpt lat="47.40413" lon="2.77295">
        <ele>247.42</ele>
        <time>2017-10-01T05:42:51Z</time>
      </trkpt>
      <trkpt lat="47.40395" lon="2.77294">
        <ele>247.75</ele>
        <time>2017-10-01T05:43:03Z</time>
      </trkpt>
      <trkpt lat="47.40378" lon="2.77306">
        <ele>247.45</ele>
        <time>2017-10-01T05:43:16Z</time>
      </trkpt>
      <trkpt lat="47.40366" lon="2.77326">
        <ele>246.62</ele>
        <time>2017-10-01T05:43:28Z</time>
      </trkpt>
      <trkpt lat="47.40346" lon="2.77336">
        <ele>245.32</ele>
        <time>2017-10-01T05:43:53Z</time>
      </trkpt>
      <trkpt lat="47.4033" lon="2.77322">
        <ele>245.2</ele>
        <time>2017-10-01T05:43:58Z</time>
      </trkpt>
      <trkpt lat="47.40314" lon="2.77305">
        <ele>244.32</ele>
        <time>2017-10-01T05:44:07Z</time>
      </trkpt>
      <trkpt lat="47.40301" lon="2.77282">
        <ele>243.24</ele>
        <time>2017-10-01T05:44:12Z</time>
      </trkpt>
      <trkpt lat="47.40285" lon="2.77265">
        <ele>240.1</ele>
        <time>2017-10-01T05:44:23Z</time>
      </trkpt>
      <trkpt lat="47.40271" lon="2.77246">
        <ele>240.86</ele>
        <time>2017-10-01T05:44:34Z</time>
      </trkpt>
      <trkpt lat="47.40256" lon="2.77231">
        <ele>242.62</ele>
        <time>2017-10-01T05:44:46Z</time>
      </trkpt>
      <trkpt lat="47.40241" lon="2.77215">
        <ele>243.31</ele>
        <time>2017-10-01T05:44:58Z</time>
      </trkpt>
      <trkpt lat="47.40223" lon="2.77225">
        <ele>243.29</ele>
        <time>2017-10-01T05:45:09Z</time>
      </trkpt>
      <trkpt lat="47.40209" lon="2.77241">
        <ele>243.43</ele>
        <time>2017-10-01T05:45:21Z</time>
      </trkpt>
      <trkpt lat="47.40191" lon="2.77252">
        <ele>243.12</ele>
        <time>2017-10-01T05:45:32Z</time>
      </trkpt>
      <trkpt lat="47.40176" lon="2.77266">
        <ele>243.31</ele>
        <time>2017-10-01T05:45:47Z</time>
      </trkpt>
      <trkpt lat="47.40161" lon="2.77284">
        <ele>243.16</ele>
        <time>2017-10-01T05:45:59Z</time>
      </trkpt>
      <trkpt lat="47.4015" lon="2.77306">
        <ele>242.39</ele>
        <time>2017-10-01T05:46:12Z</time>
      </trkpt>
      <trkpt lat="47.40138" lon="2.77326">
        <ele>240.16</ele>
        <time>2017-10-01T05:46:23Z</time>
      </trkpt>
      <trkpt lat="47.40125" lon="2.77345">
        <ele>238.1</ele>
        <time>2017-10-01T05:46:34Z</time>
      </trkpt>
      <trkpt lat="47.40111" lon="2.77364">
        <ele>235.78</ele>
        <time>2017-10-01T05:46:47Z</time>
      </trkpt>
      <trkpt lat="47.40094" lon="2.77376">
        <ele>233.64</ele>
        <time>2017-10-01T05:46:59Z</time>
      </trkpt>
      <trkpt lat="47.40079" lon="2.77394">
        <ele>233.56</ele>
        <time>2017-10-01T05:47:12Z</time>
      </trkpt>
      <trkpt lat="47.40063" lon="2.77409">
        <ele>233.73</ele>
        <time>2017-10-01T05:47:23Z</time>
      </trkpt>
      <trkpt lat="47.40046" lon="2.77422">
        <ele>234.4</ele>
        <time>2017-10-01T05:47:34Z</time>
      </trkpt>
      <trkpt lat="47.40029" lon="2.7743">
        <ele>235.84</ele>
        <time>2017-10-01T05:47:47Z</time>
      </trkpt>
      <trkpt lat="47.40012" lon="2.77442">
        <ele>235.69</ele>
        <time>2017-10-01T05:48:00Z</time>
      </trkpt>
      <trkpt lat="47.39994" lon="2.77455">
        <ele>235.63</ele>
        <time>2017-10-01T05:48:14Z</time>
      </trkpt>
      <trkpt lat="47.3998" lon="2.77474">
        <ele>235.07</ele>
        <time>2017-10-01T05:48:28Z</time>
      </trkpt>
      <trkpt lat="47.39965" lon="2.7749">
        <ele>235.26</ele>
        <time>2017-10-01T05:48:39Z</time>
      </trkpt>
      <trkpt lat="47.3995" lon="2.77509">
        <ele>236.61</ele>
        <time>2017-10-01T05:48:52Z</time>
      </trkpt>
      <trkpt lat="47.39935" lon="2.77523">
        <ele>237.97</ele>
        <time>2017-10-01T05:49:04Z</time>
      </trkpt>
      <trkpt lat="47.39917" lon="2.77534">
        <ele>239.81</ele>
        <time>2017-10-01T05:49:18Z</time>
      </trkpt>
      <trkpt lat="47.39899" lon="2.7754">
        <ele>242.54</ele>
        <time>2017-10-01T05:49:29Z</time>
      </trkpt>
      <trkpt lat="47.39881" lon="2.77543">
        <ele>244.28</ele>
        <time>2017-10-01T05:49:39Z</time>
      </trkpt>
      <trkpt lat="47.39862" lon="2.77548">
        <ele>246.57</ele>
        <time>2017-10-01T05:49:53Z</time>
      </trkpt>
      <trkpt lat="47.39843" lon="2.7755">
        <ele>247.29</ele>
        <time>2017-10-01T05:50:05Z</time>
      </trkpt>
      <trkpt lat="47.39823" lon="2.7755">
        <ele>247.97</ele>
        <time>2017-10-01T05:50:17Z</time>
      </trkpt>
      <trkpt lat="47.39804" lon="2.77553">
        <ele>248.49</ele>
        <time>2017-10-01T05:50:30Z</time>
      </trkpt>
      <trkpt lat="47.39785" lon="2.77558">
        <ele>249.56</ele>
        <time>2017-10-01T05:50:43Z</time>
      </trkpt>
      <trkpt lat="47.39767" lon="2.77563">
        <ele>250.44</ele>
        <time>2017-10-01T05:50:55Z</time>
      </trkpt>
      <trkpt lat="47.39748" lon="2.77566">
        <ele>251.36</ele>
        <time>2017-10-01T05:51:08Z</time>
      </trkpt>
      <trkpt lat="47.39729" lon="2.77569">
        <ele>251.53</ele>
        <time>2017-10-01T05:51:20Z</time>
      </trkpt>
      <trkpt lat="47.39711" lon="2.77573">
        <ele>251.52</ele>
        <time>2017-10-01T05:51:33Z</time>
      </trkpt>
      <trkpt lat="47.39692" lon="2.77574">
        <ele>251.39</ele>
        <time>2017-10-01T05:51:45Z</time>
      </trkpt>
      <trkpt lat="47.39672" lon="2.77575">
        <ele>251.78</ele>
        <time>2017-10-01T05:51:57Z</time>
      </trkpt>
      <trkpt lat="47.39654" lon="2.77574">
        <ele>252.45</ele>
        <time>2017-10-01T05:52:09Z</time>
      </trkpt>
      <trkpt lat="47.39635" lon="2.77577">
        <ele>252.79</ele>
        <time>2017-10-01T05:52:22Z</time>
      </trkpt>
      <trkpt lat="47.39617" lon="2.77581">
        <ele>253.78</ele>
        <time>2017-10-01T05:52:34Z</time>
      </trkpt>
      <trkpt lat="47.39599" lon="2.77583">
        <ele>255.07</ele>
        <time>2017-10-01T05:52:48Z</time>
      </trkpt>
      <trkpt lat="47.3958" lon="2.77582">
        <ele>255.94</ele>
        <time>2017-10-01T05:53:00Z</time>
      </trkpt>
      <trkpt lat="47.3956" lon="2.77582">
        <ele>255.5</ele>
        <time>2017-10-01T05:53:12Z</time>
      </trkpt>
      <trkpt lat="47.39542" lon="2.77579">
        <ele>255.16</ele>
        <time>2017-10-01T05:53:24Z</time>
      </trkpt>
      <trkpt lat="47.39522" lon="2.7758">
        <ele>255.15</ele>
        <time>2017-10-01T05:53:37Z</time>
      </trkpt>
      <trkpt lat="47.39503" lon="2.77582">
        <ele>255.35</ele>
        <time>2017-10-01T05:53:49Z</time>
      </trkpt>
      <trkpt lat="47.39485" lon="2.77583">
        <ele>255.8</ele>
        <time>2017-10-01T05:54:01Z</time>
      </trkpt>
      <trkpt lat="47.39466" lon="2.77584">
        <ele>256.36</ele>
        <time>2017-10-01T05:54:15Z</time>
      </trkpt>
      <trkpt lat="47.39448" lon="2.77584">
        <ele>257.54</ele>
        <time>2017-10-01T05:54:25Z</time>
      </trkpt>
      <trkpt lat="47.39428" lon="2.77585">
        <ele>257.84</ele>
        <time>2017-10-01T05:54:38Z</time>
      </trkpt>
      <trkpt lat="47.39409" lon="2.77587">
        <ele>258.28</ele>
        <time>2017-10-01T05:54:49Z</time>
      </trkpt>
      <trkpt lat="47.39391" lon="2.77587">
        <ele>259.16</ele>
        <time>2017-10-01T05:55:03Z</time>
      </trkpt>
      <trkpt lat="47.39372" lon="2.7759">
        <ele>260.34</ele>
        <time>2017-10-01T05:55:15Z</time>
      </trkpt>
      <trkpt lat="47.39353" lon="2.77591">
        <ele>261.41</ele>
        <time>2017-10-01T05:55:27Z</time>
      </trkpt>
      <trkpt lat="47.39336" lon="2.77599">
        <ele>261.21</ele>
        <time>2017-10-01T05:55:40Z</time>
      </trkpt>
      <trkpt lat="47.39318" lon="2.77606">
        <ele>260.99</ele>
        <time>2017-10-01T05:55:51Z</time>
      </trkpt>
      <trkpt lat="47.39298" lon="2.77616">
        <ele>260.36</ele>
        <time>2017-10-01T05:56:06Z</time>
      </trkpt>
      <trkpt lat="47.39281" lon="2.77625">
        <ele>259.8</ele>
        <time>2017-10-01T05:56:17Z</time>
      </trkpt>
      <trkpt lat="47.39263" lon="2.77639">
        <ele>258.64</ele>
        <time>2017-10-01T05:56:31Z</time>
      </trkpt>
      <trkpt lat="47.39247" lon="2.77651">
        <ele>257.28</ele>
        <time>2017-10-01T05:56:43Z</time>
      </trkpt>
      <trkpt lat="47.39232" lon="2.77665">
        <ele>255.78</ele>
        <time>2017-10-01T05:56:56Z</time>
      </trkpt>
      <trkpt lat="47.39216" lon="2.77683">
        <ele>254.87</ele>
        <time>2017-10-01T05:57:09Z</time>
      </trkpt>
      <trkpt lat="47.39202" lon="2.77702">
        <ele>254.88</ele>
        <time>2017-10-01T05:57:21Z</time>
      </trkpt>
      <trkpt lat="47.3919" lon="2.77721">
        <ele>255.03</ele>
        <time>2017-10-01T05:57:34Z</time>
      </trkpt>
      <trkpt lat="47.39175" lon="2.77738">
        <ele>255.69</ele>
        <time>2017-10-01T05:57:45Z</time>
      </trkpt>
      <trkpt lat="47.39161" lon="2.77757">
        <ele>257.55</ele>
        <time>2017-10-01T05:57:58Z</time>
      </trkpt>
      <trkpt lat="47.39145" lon="2.77772">
        <ele>260.01</ele>
        <time>2017-10-01T05:58:13Z</time>
      </trkpt>
      <trkpt lat="47.39131" lon="2.7779">
        <ele>261.67</ele>
        <time>2017-10-01T05:58:28Z</time>
      </trkpt>
      <trkpt lat="47.39115" lon="2.77806">
        <ele>264</ele>
        <time>2017-10-01T05:58:41Z</time>
      </trkpt>
      <trkpt lat="47.39098" lon="2.77819">
        <ele>265.84</ele>
        <time>2017-10-01T05:58:54Z</time>
      </trkpt>
      <trkpt lat="47.39083" lon="2.77835">
        <ele>267.57</ele>
        <time>2017-10-01T05:59:06Z</time>
      </trkpt>
      <trkpt lat="47.39064" lon="2.77844">
        <ele>268.78</ele>
        <time>2017-10-01T05:59:18Z</time>
      </trkpt>
      <trkpt lat="47.39047" lon="2.77858">
        <ele>268.57</ele>
        <time>2017-10-01T05:59:31Z</time>
      </trkpt>
      <trkpt lat="47.39038" lon="2.77882">
        <ele>269.47</ele>
        <time>2017-10-01T05:59:45Z</time>
      </trkpt>
      <trkpt lat="47.39033" lon="2.77909">
        <ele>269.34</ele>
        <time>2017-10-01T05:59:58Z</time>
      </trkpt>
      <trkpt lat="47.39025" lon="2.77933">
        <ele>269.34</ele>
        <time>2017-10-01T06:00:10Z</time>
      </trkpt>
      <trkpt lat="47.39016" lon="2.77958">
        <ele>269.77</ele>
        <time>2017-10-01T06:00:22Z</time>
      </trkpt>
      <trkpt lat="47.39007" lon="2.77981">
        <ele>270.35</ele>
        <time>2017-10-01T06:00:34Z</time>
      </trkpt>
      <trkpt lat="47.38999" lon="2.78007">
        <ele>271.77</ele>
        <time>2017-10-01T06:00:45Z</time>
      </trkpt>
      <trkpt lat="47.38992" lon="2.78035">
        <ele>272.97</ele>
        <time>2017-10-01T06:00:59Z</time>
      </trkpt>
      <trkpt lat="47.38983" lon="2.7806">
        <ele>274.7</ele>
        <time>2017-10-01T06:01:13Z</time>
      </trkpt>
      <trkpt lat="47.38973" lon="2.78084">
        <ele>273.57</ele>
        <time>2017-10-01T06:01:26Z</time>
      </trkpt>
      <trkpt lat="47.38961" lon="2.78105">
        <ele>271.7</ele>
        <time>2017-10-01T06:01:38Z</time>
      </trkpt>
      <trkpt lat="47.38949" lon="2.78127">
        <ele>268.64</ele>
        <time>2017-10-01T06:01:52Z</time>
      </trkpt>
      <trkpt lat="47.38936" lon="2.7815">
        <ele>267.79</ele>
        <time>2017-10-01T06:02:06Z</time>
      </trkpt>
      <trkpt lat="47.38923" lon="2.7817">
        <ele>267.68</ele>
        <time>2017-10-01T06:02:17Z</time>
      </trkpt>
      <trkpt lat="47.38909" lon="2.78187">
        <ele>267.34</ele>
        <time>2017-10-01T06:02:28Z</time>
      </trkpt>
      <trkpt lat="47.38896" lon="2.7821">
        <ele>267.11</ele>
        <time>2017-10-01T06:02:42Z</time>
      </trkpt>
      <trkpt lat="47.38885" lon="2.78232">
        <ele>266.38</ele>
        <time>2017-10-01T06:02:58Z</time>
      </trkpt>
      <trkpt lat="47.38875" lon="2.78256">
        <ele>266.5</ele>
        <time>2017-10-01T06:03:09Z</time>
      </trkpt>
      <trkpt lat="47.38866" lon="2.7828">
        <ele>266.59</ele>
        <time>2017-10-01T06:03:22Z</time>
      </trkpt>
      <trkpt lat="47.38859" lon="2.78304">
        <ele>267.09</ele>
        <time>2017-10-01T06:03:38Z</time>
      </trkpt>
      <trkpt lat="47.38849" lon="2.78327">
        <ele>267.61</ele>
        <time>2017-10-01T06:03:51Z</time>
      </trkpt>
      <trkpt lat="47.38845" lon="2.78354">
        <ele>268.58</ele>
        <time>2017-10-01T06:04:05Z</time>
      </trkpt>
      <trkpt lat="47.38833" lon="2.78375">
        <ele>270.3</ele>
        <time>2017-10-01T06:04:18Z</time>
      </trkpt>
      <trkpt lat="47.38824" lon="2.78399">
        <ele>273.38</ele>
        <time>2017-10-01T06:04:34Z</time>
      </trkpt>
      <trkpt lat="47.38815" lon="2.78424">
        <ele>274.95</ele>
        <time>2017-10-01T06:04:51Z</time>
      </trkpt>
      <trkpt lat="47.38803" lon="2.78447">
        <ele>275.12</ele>
        <time>2017-10-01T06:05:06Z</time>
      </trkpt>
      <trkpt lat="47.38793" lon="2.78469">
        <ele>274.07</ele>
        <time>2017-10-01T06:05:19Z</time>
      </trkpt>
      <trkpt lat="47.38787" lon="2.78498">
        <ele>275.55</ele>
        <time>2017-10-01T06:05:42Z</time>
      </trkpt>
      <trkpt lat="47.3879" lon="2.78527">
        <ele>277.78</ele>
        <time>2017-10-01T06:05:53Z</time>
      </trkpt>
      <trkpt lat="47.38789" lon="2.78554">
        <ele>279.02</ele>
        <time>2017-10-01T06:06:02Z</time>
      </trkpt>
      <trkpt lat="47.38785" lon="2.78581">
        <ele>281.03</ele>
        <time>2017-10-01T06:06:16Z</time>
      </trkpt>
      <trkpt lat="47.38787" lon="2.78608">
        <ele>282.33</ele>
        <time>2017-10-01T06:06:27Z</time>
      </trkpt>
      <trkpt lat="47.3879" lon="2.78635">
        <ele>282.94</ele>
        <time>2017-10-01T06:06:40Z</time>
      </trkpt>
      <trkpt lat="47.38783" lon="2.78664">
        <ele>282.95</ele>
        <time>2017-10-01T06:06:50Z</time>
      </trkpt>
      <trkpt lat="47.38779" lon="2.78691">
        <ele>283.39</ele>
        <time>2017-10-01T06:07:04Z</time>
      </trkpt>
      <trkpt lat="47.38775" lon="2.78717">
        <ele>283.89</ele>
        <time>2017-10-01T06:07:14Z</time>
      </trkpt>
      <trkpt lat="47.38771" lon="2.78744">
        <ele>282.87</ele>
        <time>2017-10-01T06:07:29Z</time>
      </trkpt>
      <trkpt lat="47.38768" lon="2.78771">
        <ele>281.81</ele>
        <time>2017-10-01T06:07:41Z</time>
      </trkpt>
      <trkpt lat="47.38764" lon="2.78798">
        <ele>281.24</ele>
        <time>2017-10-01T06:07:53Z</time>
      </trkpt>
      <trkpt lat="47.38759" lon="2.78825">
        <ele>279.9</ele>
        <time>2017-10-01T06:08:06Z</time>
      </trkpt>
      <trkpt lat="47.38753" lon="2.7885">
        <ele>279.07</ele>
        <time>2017-10-01T06:08:18Z</time>
      </trkpt>
      <trkpt lat="47.38747" lon="2.78876">
        <ele>278.83</ele>
        <time>2017-10-01T06:08:30Z</time>
      </trkpt>
      <trkpt lat="47.38741" lon="2.78902">
        <ele>279.4</ele>
        <time>2017-10-01T06:08:41Z</time>
      </trkpt>
      <trkpt lat="47.38738" lon="2.78929">
        <ele>279.11</ele>
        <time>2017-10-01T06:08:55Z</time>
      </trkpt>
      <trkpt lat="47.38738" lon="2.78957">
        <ele>277.64</ele>
        <time>2017-10-01T06:09:10Z</time>
      </trkpt>
      <trkpt lat="47.38734" lon="2.78984">
        <ele>277.96</ele>
        <time>2017-10-01T06:09:23Z</time>
      </trkpt>
      <trkpt lat="47.38728" lon="2.7901">
        <ele>278.44</ele>
        <time>2017-10-01T06:09:35Z</time>
      </trkpt>
      <trkpt lat="47.38723" lon="2.79037">
        <ele>279.78</ele>
        <time>2017-10-01T06:09:46Z</time>
      </trkpt>
      <trkpt lat="47.38717" lon="2.79064">
        <ele>281.63</ele>
        <time>2017-10-01T06:09:59Z</time>
      </trkpt>
      <trkpt lat="47.38713" lon="2.79091">
        <ele>282.65</ele>
        <time>2017-10-01T06:10:12Z</time>
      </trkpt>
      <trkpt lat="47.38709" lon="2.7912">
        <ele>283.35</ele>
        <time>2017-10-01T06:10:26Z</time>
      </trkpt>
      <trkpt lat="47.38703" lon="2.79145">
        <ele>284.25</ele>
        <time>2017-10-01T06:10:39Z</time>
      </trkpt>
      <trkpt lat="47.387" lon="2.79172">
        <ele>285.06</ele>
        <time>2017-10-01T06:10:52Z</time>
      </trkpt>
      <trkpt lat="47.38696" lon="2.792">
        <ele>284.31</ele>
        <time>2017-10-01T06:11:08Z</time>
      </trkpt>
      <trkpt lat="47.38679" lon="2.79209">
        <ele>284.11</ele>
        <time>2017-10-01T06:11:22Z</time>
      </trkpt>
      <trkpt lat="47.38661" lon="2.79204">
        <ele>285.38</ele>
        <time>2017-10-01T06:11:33Z</time>
      </trkpt>
      <trkpt lat="47.38643" lon="2.79197">
        <ele>286.84</ele>
        <time>2017-10-01T06:11:44Z</time>
      </trkpt>
      <trkpt lat="47.38625" lon="2.79191">
        <ele>288.6</ele>
        <time>2017-10-01T06:11:56Z</time>
      </trkpt>
      <trkpt lat="47.38606" lon="2.79189">
        <ele>290.9</ele>
        <time>2017-10-01T06:12:08Z</time>
      </trkpt>
      <trkpt lat="47.38587" lon="2.79185">
        <ele>292.89</ele>
        <time>2017-10-01T06:12:19Z</time>
      </trkpt>
      <trkpt lat="47.38569" lon="2.7918">
        <ele>293.36</ele>
        <time>2017-10-01T06:12:33Z</time>
      </trkpt>
      <trkpt lat="47.38551" lon="2.79173">
        <ele>294.36</ele>
        <time>2017-10-01T06:12:45Z</time>
      </trkpt>
      <trkpt lat="47.38533" lon="2.79165">
        <ele>295.06</ele>
        <time>2017-10-01T06:12:56Z</time>
      </trkpt>
      <trkpt lat="47.38515" lon="2.79155">
        <ele>295.47</ele>
        <time>2017-10-01T06:13:07Z</time>
      </trkpt>
      <trkpt lat="47.38497" lon="2.79146">
        <ele>296.11</ele>
        <time>2017-10-01T06:13:21Z</time>
      </trkpt>
      <trkpt lat="47.38479" lon="2.79139">
        <ele>295.71</ele>
        <time>2017-10-01T06:13:33Z</time>
      </trkpt>
      <trkpt lat="47.38461" lon="2.79136">
        <ele>295.88</ele>
        <time>2017-10-01T06:13:44Z</time>
      </trkpt>
      <trkpt lat="47.38442" lon="2.7913">
        <ele>295.51</ele>
        <time>2017-10-01T06:13:57Z</time>
      </trkpt>
      <trkpt lat="47.38424" lon="2.79122">
        <ele>295.68</ele>
        <time>2017-10-01T06:14:07Z</time>
      </trkpt>
      <trkpt lat="47.38406" lon="2.79113">
        <ele>296.19</ele>
        <time>2017-10-01T06:14:19Z</time>
      </trkpt>
      <trkpt lat="47.3839" lon="2.79102">
        <ele>296.61</ele>
        <time>2017-10-01T06:14:32Z</time>
      </trkpt>
      <trkpt lat="47.38372" lon="2.79099">
        <ele>297.92</ele>
        <time>2017-10-01T06:14:45Z</time>
      </trkpt>
      <trkpt lat="47.38354" lon="2.79087">
        <ele>299.45</ele>
        <time>2017-10-01T06:14:55Z</time>
      </trkpt>
      <trkpt lat="47.38337" lon="2.79072">
        <ele>299.18</ele>
        <time>2017-10-01T06:15:07Z</time>
      </trkpt>
      <trkpt lat="47.38319" lon="2.79068">
        <ele>296.65</ele>
        <time>2017-10-01T06:15:19Z</time>
      </trkpt>
      <trkpt lat="47.383" lon="2.79066">
        <ele>296.82</ele>
        <time>2017-10-01T06:15:30Z</time>
      </trkpt>
      <trkpt lat="47.38282" lon="2.79058">
        <ele>297.72</ele>
        <time>2017-10-01T06:15:39Z</time>
      </trkpt>
      <trkpt lat="47.38265" lon="2.79048">
        <ele>298.35</ele>
        <time>2017-10-01T06:15:52Z</time>
      </trkpt>
      <trkpt lat="47.38247" lon="2.79054">
        <ele>299.9</ele>
        <time>2017-10-01T06:16:06Z</time>
      </trkpt>
      <trkpt lat="47.38231" lon="2.79067">
        <ele>299.79</ele>
        <time>2017-10-01T06:16:19Z</time>
      </trkpt>
      <trkpt lat="47.38218" lon="2.79086">
        <ele>299.74</ele>
        <time>2017-10-01T06:16:31Z</time>
      </trkpt>
      <trkpt lat="47.38202" lon="2.79101">
        <ele>300.4</ele>
        <time>2017-10-01T06:16:43Z</time>
      </trkpt>
      <trkpt lat="47.38189" lon="2.79121">
        <ele>300.69</ele>
        <time>2017-10-01T06:16:57Z</time>
      </trkpt>
      <trkpt lat="47.38175" lon="2.79138">
        <ele>300.82</ele>
        <time>2017-10-01T06:17:10Z</time>
      </trkpt>
      <trkpt lat="47.38164" lon="2.79159">
        <ele>301.29</ele>
        <time>2017-10-01T06:17:20Z</time>
      </trkpt>
      <trkpt lat="47.38156" lon="2.79185">
        <ele>303.36</ele>
        <time>2017-10-01T06:17:32Z</time>
      </trkpt>
      <trkpt lat="47.38148" lon="2.79209">
        <ele>303.75</ele>
        <time>2017-10-01T06:17:45Z</time>
      </trkpt>
      <trkpt lat="47.3814" lon="2.79234">
        <ele>303</ele>
        <time>2017-10-01T06:17:58Z</time>
      </trkpt>
      <trkpt lat="47.38131" lon="2.79258">
        <ele>302.62</ele>
        <time>2017-10-01T06:18:09Z</time>
      </trkpt>
      <trkpt lat="47.38124" lon="2.79284">
        <ele>303.26</ele>
        <time>2017-10-01T06:18:21Z</time>
      </trkpt>
      <trkpt lat="47.38116" lon="2.79309">
        <ele>303.17</ele>
        <time>2017-10-01T06:18:34Z</time>
      </trkpt>
      <trkpt lat="47.38101" lon="2.79324">
        <ele>302.09</ele>
        <time>2017-10-01T06:18:50Z</time>
      </trkpt>
      <trkpt lat="47.38083" lon="2.79319">
        <ele>301.47</ele>
        <time>2017-10-01T06:19:02Z</time>
      </trkpt>
      <trkpt lat="47.38065" lon="2.7931">
        <ele>302.2</ele>
        <time>2017-10-01T06:19:16Z</time>
      </trkpt>
      <trkpt lat="47.38049" lon="2.79298">
        <ele>303.2</ele>
        <time>2017-10-01T06:19:27Z</time>
      </trkpt>
      <trkpt lat="47.38031" lon="2.79289">
        <ele>305.24</ele>
        <time>2017-10-01T06:19:40Z</time>
      </trkpt>
      <trkpt lat="47.38013" lon="2.79283">
        <ele>307.65</ele>
        <time>2017-10-01T06:19:52Z</time>
      </trkpt>
      <trkpt lat="47.37994" lon="2.79277">
        <ele>308.97</ele>
        <time>2017-10-01T06:20:03Z</time>
      </trkpt>
      <trkpt lat="47.37976" lon="2.79269">
        <ele>308.99</ele>
        <time>2017-10-01T06:20:16Z</time>
      </trkpt>
      <trkpt lat="47.37957" lon="2.79261">
        <ele>309.42</ele>
        <time>2017-10-01T06:20:29Z</time>
      </trkpt>
      <trkpt lat="47.37938" lon="2.79254">
        <ele>310.91</ele>
        <time>2017-10-01T06:20:42Z</time>
      </trkpt>
      <trkpt lat="47.37921" lon="2.79244">
        <ele>312.32</ele>
        <time>2017-10-01T06:20:54Z</time>
      </trkpt>
      <trkpt lat="47.37903" lon="2.79233">
        <ele>312.83</ele>
        <time>2017-10-01T06:21:07Z</time>
      </trkpt>
      <trkpt lat="47.37886" lon="2.79223">
        <ele>313.31</ele>
        <time>2017-10-01T06:21:19Z</time>
      </trkpt>
      <trkpt lat="47.37868" lon="2.79215">
        <ele>312.86</ele>
        <time>2017-10-01T06:21:30Z</time>
      </trkpt>
      <trkpt lat="47.37851" lon="2.79207">
        <ele>312.91</ele>
        <time>2017-10-01T06:21:43Z</time>
      </trkpt>
      <trkpt lat="47.37834" lon="2.79196">
        <ele>312.61</ele>
        <time>2017-10-01T06:21:56Z</time>
      </trkpt>
      <trkpt lat="47.37816" lon="2.79195">
        <ele>310.97</ele>
        <time>2017-10-01T06:22:07Z</time>
      </trkpt>
      <trkpt lat="47.37797" lon="2.79195">
        <ele>309.31</ele>
        <time>2017-10-01T06:22:18Z</time>
      </trkpt>
      <trkpt lat="47.37778" lon="2.7919">
        <ele>308.53</ele>
        <time>2017-10-01T06:22:29Z</time>
      </trkpt>
      <trkpt lat="47.37759" lon="2.79184">
        <ele>307.27</ele>
        <time>2017-10-01T06:22:42Z</time>
      </trkpt>
      <trkpt lat="47.37741" lon="2.79177">
        <ele>305.77</ele>
        <time>2017-10-01T06:22:55Z</time>
      </trkpt>
      <trkpt lat="47.37738" lon="2.79148">
        <ele>306.33</ele>
        <time>2017-10-01T06:23:10Z</time>
      </trkpt>
      <trkpt lat="47.37736" lon="2.79122">
        <ele>308.65</ele>
        <time>2017-10-01T06:23:21Z</time>
      </trkpt>
      <trkpt lat="47.37733" lon="2.79095">
        <ele>310.43</ele>
        <time>2017-10-01T06:23:34Z</time>
      </trkpt>
      <trkpt lat="47.37729" lon="2.79069">
        <ele>312.11</ele>
        <time>2017-10-01T06:23:46Z</time>
      </trkpt>
      <trkpt lat="47.37724" lon="2.79042">
        <ele>314.03</ele>
        <time>2017-10-01T06:24:00Z</time>
      </trkpt>
      <trkpt lat="47.37718" lon="2.79015">
        <ele>315.07</ele>
        <time>2017-10-01T06:24:11Z</time>
      </trkpt>
      <trkpt lat="47.3771" lon="2.7899">
        <ele>315.71</ele>
        <time>2017-10-01T06:24:23Z</time>
      </trkpt>
      <trkpt lat="47.37697" lon="2.78965">
        <ele>316.17</ele>
        <time>2017-10-01T06:24:37Z</time>
      </trkpt>
      <trkpt lat="47.37686" lon="2.78941">
        <ele>315.63</ele>
        <time>2017-10-01T06:24:50Z</time>
      </trkpt>
      <trkpt lat="47.37672" lon="2.78923">
        <ele>313.77</ele>
        <time>2017-10-01T06:25:04Z</time>
      </trkpt>
      <trkpt lat="47.37654" lon="2.7893">
        <ele>313.32</ele>
        <time>2017-10-01T06:25:29Z</time>
      </trkpt>
      <trkpt lat="47.37653" lon="2.78958">
        <ele>312.26</ele>
        <time>2017-10-01T06:25:41Z</time>
      </trkpt>
      <trkpt lat="47.37654" lon="2.78986">
        <ele>310.15</ele>
        <time>2017-10-01T06:25:55Z</time>
      </trkpt>
      <trkpt lat="47.37658" lon="2.79014">
        <ele>307.32</ele>
        <time>2017-10-01T06:26:06Z</time>
      </trkpt>
      <trkpt lat="47.37654" lon="2.79042">
        <ele>305.87</ele>
        <time>2017-10-01T06:26:19Z</time>
      </trkpt>
      <trkpt lat="47.37646" lon="2.79067">
        <ele>305.22</ele>
        <time>2017-10-01T06:26:30Z</time>
      </trkpt>
      <trkpt lat="47.37638" lon="2.79092">
        <ele>304.75</ele>
        <time>2017-10-01T06:26:40Z</time>
      </trkpt>
      <trkpt lat="47.37631" lon="2.79117">
        <ele>304.4</ele>
        <time>2017-10-01T06:26:52Z</time>
      </trkpt>
      <trkpt lat="47.37623" lon="2.79141">
        <ele>303.15</ele>
        <time>2017-10-01T06:27:04Z</time>
      </trkpt>
      <trkpt lat="47.37615" lon="2.79168">
        <ele>303.1</ele>
        <time>2017-10-01T06:27:15Z</time>
      </trkpt>
      <trkpt lat="47.37609" lon="2.79193">
        <ele>303.15</ele>
        <time>2017-10-01T06:27:27Z</time>
      </trkpt>
      <trkpt lat="47.37601" lon="2.7922">
        <ele>303.02</ele>
        <time>2017-10-01T06:27:40Z</time>
      </trkpt>
      <trkpt lat="47.37595" lon="2.79246">
        <ele>303.5</ele>
        <time>2017-10-01T06:27:50Z</time>
      </trkpt>
      <trkpt lat="47.37591" lon="2.79273">
        <ele>304.4</ele>
        <time>2017-10-01T06:28:05Z</time>
      </trkpt>
      <trkpt lat="47.37587" lon="2.79302">
        <ele>304.15</ele>
        <time>2017-10-01T06:28:17Z</time>
      </trkpt>
      <trkpt lat="47.37584" lon="2.79329">
        <ele>304.4</ele>
        <time>2017-10-01T06:28:29Z</time>
      </trkpt>
      <trkpt lat="47.37583" lon="2.79356">
        <ele>303.66</ele>
        <time>2017-10-01T06:28:42Z</time>
      </trkpt>
      <trkpt lat="47.37582" lon="2.79384">
        <ele>302.06</ele>
        <time>2017-10-01T06:28:54Z</time>
      </trkpt>
      <trkpt lat="47.37582" lon="2.79412">
        <ele>299.67</ele>
        <time>2017-10-01T06:29:05Z</time>
      </trkpt>
      <trkpt lat="47.37585" lon="2.79439">
        <ele>297.58</ele>
        <time>2017-10-01T06:29:17Z</time>
      </trkpt>
      <trkpt lat="47.37587" lon="2.79467">
        <ele>294.59</ele>
        <time>2017-10-01T06:29:29Z</time>
      </trkpt>
      <trkpt lat="47.37587" lon="2.79495">
        <ele>293.52</ele>
        <time>2017-10-01T06:29:40Z</time>
      </trkpt>
      <trkpt lat="47.37589" lon="2.79523">
        <ele>293.28</ele>
        <time>2017-10-01T06:29:52Z</time>
      </trkpt>
      <trkpt lat="47.37591" lon="2.79551">
        <ele>292.04</ele>
        <time>2017-10-01T06:30:04Z</time>
      </trkpt>
      <trkpt lat="47.37593" lon="2.79579">
        <ele>290.05</ele>
        <time>2017-10-01T06:30:17Z</time>
      </trkpt>
      <trkpt lat="47.37594" lon="2.79608">
        <ele>288.78</ele>
        <time>2017-10-01T06:30:29Z</time>
      </trkpt>
      <trkpt lat="47.37596" lon="2.79635">
        <ele>287.27</ele>
        <time>2017-10-01T06:30:40Z</time>
      </trkpt>
      <trkpt lat="47.37599" lon="2.79664">
        <ele>287.64</ele>
        <time>2017-10-01T06:30:52Z</time>
      </trkpt>
      <trkpt lat="47.37603" lon="2.7969">
        <ele>288.38</ele>
        <time>2017-10-01T06:31:02Z</time>
      </trkpt>
      <trkpt lat="47.37605" lon="2.79717">
        <ele>288.23</ele>
        <time>2017-10-01T06:31:14Z</time>
      </trkpt>
      <trkpt lat="47.37607" lon="2.79745">
        <ele>287.08</ele>
        <time>2017-10-01T06:31:25Z</time>
      </trkpt>
      <trkpt lat="47.37608" lon="2.79772">
        <ele>286.41</ele>
        <time>2017-10-01T06:31:37Z</time>
      </trkpt>
      <trkpt lat="47.37611" lon="2.79799">
        <ele>285.71</ele>
        <time>2017-10-01T06:31:49Z</time>
      </trkpt>
      <trkpt lat="47.37615" lon="2.79826">
        <ele>284.72</ele>
        <time>2017-10-01T06:32:02Z</time>
      </trkpt>
      <trkpt lat="47.37616" lon="2.79855">
        <ele>283.44</ele>
        <time>2017-10-01T06:32:13Z</time>
      </trkpt>
      <trkpt lat="47.37618" lon="2.79883">
        <ele>282.49</ele>
        <time>2017-10-01T06:32:24Z</time>
      </trkpt>
      <trkpt lat="47.37619" lon="2.79911">
        <ele>279.42</ele>
        <time>2017-10-01T06:32:37Z</time>
      </trkpt>
      <trkpt lat="47.37619" lon="2.79937">
        <ele>277.82</ele>
        <time>2017-10-01T06:32:48Z</time>
      </trkpt>
      <trkpt lat="47.37616" lon="2.79964">
        <ele>276.97</ele>
        <time>2017-10-01T06:32:59Z</time>
      </trkpt>
      <trkpt lat="47.3761" lon="2.79991">
        <ele>276.18</ele>
        <time>2017-10-01T06:33:11Z</time>
      </trkpt>
      <trkpt lat="47.37602" lon="2.80015">
        <ele>274.8</ele>
        <time>2017-10-01T06:33:23Z</time>
      </trkpt>
      <trkpt lat="47.37595" lon="2.8004">
        <ele>273.06</ele>
        <time>2017-10-01T06:33:33Z</time>
      </trkpt>
      <trkpt lat="47.37589" lon="2.80065">
        <ele>271.65</ele>
        <time>2017-10-01T06:33:44Z</time>
      </trkpt>
      <trkpt lat="47.37586" lon="2.80093">
        <ele>270.01</ele>
        <time>2017-10-01T06:33:56Z</time>
      </trkpt>
      <trkpt lat="47.37588" lon="2.8012">
        <ele>269.14</ele>
        <time>2017-10-01T06:34:06Z</time>
      </trkpt>
      <trkpt lat="47.37591" lon="2.80148">
        <ele>268.9</ele>
        <time>2017-10-01T06:34:18Z</time>
      </trkpt>
      <trkpt lat="47.37598" lon="2.80176">
        <ele>268.13</ele>
        <time>2017-10-01T06:34:30Z</time>
      </trkpt>
      <trkpt lat="47.37606" lon="2.802">
        <ele>266.04</ele>
        <time>2017-10-01T06:34:41Z</time>
      </trkpt>
      <trkpt lat="47.37615" lon="2.80224">
        <ele>263.32</ele>
        <time>2017-10-01T06:34:52Z</time>
      </trkpt>
      <trkpt lat="47.37623" lon="2.80248">
        <ele>257.6</ele>
        <time>2017-10-01T06:35:06Z</time>
      </trkpt>
      <trkpt lat="47.37625" lon="2.80275">
        <ele>252.67</ele>
        <time>2017-10-01T06:35:17Z</time>
      </trkpt>
      <trkpt lat="47.37628" lon="2.80303">
        <ele>248.76</ele>
        <time>2017-10-01T06:35:29Z</time>
      </trkpt>
      <trkpt lat="47.37627" lon="2.80331">
        <ele>245.83</ele>
        <time>2017-10-01T06:35:40Z</time>
      </trkpt>
      <trkpt lat="47.37622" lon="2.80358">
        <ele>242.63</ele>
        <time>2017-10-01T06:35:52Z</time>
      </trkpt>
      <trkpt lat="47.37619" lon="2.80389">
        <ele>240.28</ele>
        <time>2017-10-01T06:36:03Z</time>
      </trkpt>
      <trkpt lat="47.37608" lon="2.80417">
        <ele>238.99</ele>
        <time>2017-10-01T06:36:15Z</time>
      </trkpt>
      <trkpt lat="47.37598" lon="2.8044">
        <ele>237.77</ele>
        <time>2017-10-01T06:36:24Z</time>
      </trkpt>
      <trkpt lat="47.37588" lon="2.80463">
        <ele>235.28</ele>
        <time>2017-10-01T06:36:34Z</time>
      </trkpt>
      <trkpt lat="47.37573" lon="2.8048">
        <ele>233.44</ele>
        <time>2017-10-01T06:36:45Z</time>
      </trkpt>
      <trkpt lat="47.3756" lon="2.80499">
        <ele>231.46</ele>
        <time>2017-10-01T06:36:56Z</time>
      </trkpt>
      <trkpt lat="47.37548" lon="2.80519">
        <ele>229.25</ele>
        <time>2017-10-01T06:37:07Z</time>
      </trkpt>
      <trkpt lat="47.37533" lon="2.80537">
        <ele>227.77</ele>
        <time>2017-10-01T06:37:18Z</time>
      </trkpt>
      <trkpt lat="47.37522" lon="2.80559">
        <ele>226.1</ele>
        <time>2017-10-01T06:37:29Z</time>
      </trkpt>
      <trkpt lat="47.37512" lon="2.80582">
        <ele>224.54</ele>
        <time>2017-10-01T06:37:42Z</time>
      </trkpt>
      <trkpt lat="47.37502" lon="2.80605">
        <ele>225.12</ele>
        <time>2017-10-01T06:37:55Z</time>
      </trkpt>
      <trkpt lat="47.37496" lon="2.80631">
        <ele>225.04</ele>
        <time>2017-10-01T06:38:06Z</time>
      </trkpt>
      <trkpt lat="47.37489" lon="2.80657">
        <ele>224.2</ele>
        <time>2017-10-01T06:38:18Z</time>
      </trkpt>
      <trkpt lat="47.37477" lon="2.80679">
        <ele>222.56</ele>
        <time>2017-10-01T06:38:30Z</time>
      </trkpt>
      <trkpt lat="47.37461" lon="2.80696">
        <ele>221.74</ele>
        <time>2017-10-01T06:38:40Z</time>
      </trkpt>
      <trkpt lat="47.37445" lon="2.80708">
        <ele>222.18</ele>
        <time>2017-10-01T06:38:50Z</time>
      </trkpt>
      <trkpt lat="47.37428" lon="2.8072">
        <ele>223.19</ele>
        <time>2017-10-01T06:39:00Z</time>
      </trkpt>
      <trkpt lat="47.3741" lon="2.80721">
        <ele>223.39</ele>
        <time>2017-10-01T06:39:11Z</time>
      </trkpt>
      <trkpt lat="47.37391" lon="2.80717">
        <ele>222.52</ele>
        <time>2017-10-01T06:39:22Z</time>
      </trkpt>
      <trkpt lat="47.37399" lon="2.80693">
        <ele>220.15</ele>
        <time>2017-10-01T06:39:52Z</time>
      </trkpt>
      <trkpt lat="47.37395" lon="2.80667">
        <ele>220.5</ele>
        <time>2017-10-01T06:40:09Z</time>
      </trkpt>
      <trkpt lat="47.37395" lon="2.8064">
        <ele>220.92</ele>
        <time>2017-10-01T06:40:22Z</time>
      </trkpt>
      <trkpt lat="47.37391" lon="2.80614">
        <ele>220.29</ele>
        <time>2017-10-01T06:40:34Z</time>
      </trkpt>
      <trkpt lat="47.37388" lon="2.80587">
        <ele>220.56</ele>
        <time>2017-10-01T06:40:46Z</time>
      </trkpt>
      <trkpt lat="47.37384" lon="2.8056">
        <ele>221.01</ele>
        <time>2017-10-01T06:40:58Z</time>
      </trkpt>
      <trkpt lat="47.37382" lon="2.80534">
        <ele>222.3</ele>
        <time>2017-10-01T06:41:12Z</time>
      </trkpt>
      <trkpt lat="47.37383" lon="2.80507">
        <ele>223.27</ele>
        <time>2017-10-01T06:41:23Z</time>
      </trkpt>
      <trkpt lat="47.3738" lon="2.8048">
        <ele>226.76</ele>
        <time>2017-10-01T06:44:59Z</time>
      </trkpt>
      <trkpt lat="47.37381" lon="2.80452">
        <ele>225.47</ele>
        <time>2017-10-01T06:45:12Z</time>
      </trkpt>
      <trkpt lat="47.37399" lon="2.80441">
        <ele>223.12</ele>
        <time>2017-10-01T06:45:31Z</time>
      </trkpt>
      <trkpt lat="47.37416" lon="2.80449">
        <ele>221.86</ele>
        <time>2017-10-01T06:45:46Z</time>
      </trkpt>
      <trkpt lat="47.37434" lon="2.80456">
        <ele>221.25</ele>
        <time>2017-10-01T06:45:59Z</time>
      </trkpt>
      <trkpt lat="47.37453" lon="2.8046">
        <ele>220.37</ele>
        <time>2017-10-01T06:46:10Z</time>
      </trkpt>
      <trkpt lat="47.37471" lon="2.80457">
        <ele>220.66</ele>
        <time>2017-10-01T06:46:22Z</time>
      </trkpt>
      <trkpt lat="47.37468" lon="2.80429">
        <ele>221.64</ele>
        <time>2017-10-01T06:46:43Z</time>
      </trkpt>
      <trkpt lat="47.37461" lon="2.80402">
        <ele>222.5</ele>
        <time>2017-10-01T06:46:54Z</time>
      </trkpt>
      <trkpt lat="47.37459" lon="2.80374">
        <ele>222.3</ele>
        <time>2017-10-01T06:47:12Z</time>
      </trkpt>
      <trkpt lat="47.37456" lon="2.80345">
        <ele>221.23</ele>
        <time>2017-10-01T06:47:24Z</time>
      </trkpt>
      <trkpt lat="47.37453" lon="2.80319">
        <ele>219.85</ele>
        <time>2017-10-01T06:47:37Z</time>
      </trkpt>
      <trkpt lat="47.37447" lon="2.80291">
        <ele>219.11</ele>
        <time>2017-10-01T06:47:46Z</time>
      </trkpt>
      <trkpt lat="47.37443" lon="2.80265">
        <ele>219.12</ele>
        <time>2017-10-01T06:47:58Z</time>
      </trkpt>
      <trkpt lat="47.37441" lon="2.80238">
        <ele>219.06</ele>
        <time>2017-10-01T06:48:08Z</time>
      </trkpt>
      <trkpt lat="47.37432" lon="2.80214">
        <ele>217.78</ele>
        <time>2017-10-01T06:48:21Z</time>
      </trkpt>
      <trkpt lat="47.37426" lon="2.80186">
        <ele>216.79</ele>
        <time>2017-10-01T06:48:33Z</time>
      </trkpt>
      <trkpt lat="47.37424" lon="2.80158">
        <ele>215.88</ele>
        <time>2017-10-01T06:48:42Z</time>
      </trkpt>
      <trkpt lat="47.3742" lon="2.80131">
        <ele>215.64</ele>
        <time>2017-10-01T06:48:53Z</time>
      </trkpt>
      <trkpt lat="47.37417" lon="2.80103">
        <ele>217.71</ele>
        <time>2017-10-01T06:49:08Z</time>
      </trkpt>
      <trkpt lat="47.37414" lon="2.80075">
        <ele>218.92</ele>
        <time>2017-10-01T06:49:22Z</time>
      </trkpt>
      <trkpt lat="47.37409" lon="2.80049">
        <ele>220.08</ele>
        <time>2017-10-01T06:49:34Z</time>
      </trkpt>
      <trkpt lat="47.37402" lon="2.80022">
        <ele>221.07</ele>
        <time>2017-10-01T06:49:48Z</time>
      </trkpt>
      <trkpt lat="47.37391" lon="2.8">
        <ele>221.58</ele>
        <time>2017-10-01T06:50:00Z</time>
      </trkpt>
      <trkpt lat="47.37382" lon="2.79972">
        <ele>221.59</ele>
        <time>2017-10-01T06:50:13Z</time>
      </trkpt>
      <trkpt lat="47.37374" lon="2.79947">
        <ele>222.65</ele>
        <time>2017-10-01T06:50:23Z</time>
      </trkpt>
      <trkpt lat="47.37369" lon="2.79921">
        <ele>224.47</ele>
        <time>2017-10-01T06:50:35Z</time>
      </trkpt>
      <trkpt lat="47.37359" lon="2.79897">
        <ele>225.72</ele>
        <time>2017-10-01T06:50:49Z</time>
      </trkpt>
      <trkpt lat="47.37351" lon="2.79872">
        <ele>226.17</ele>
        <time>2017-10-01T06:51:01Z</time>
      </trkpt>
      <trkpt lat="47.37341" lon="2.79847">
        <ele>227.39</ele>
        <time>2017-10-01T06:51:12Z</time>
      </trkpt>
      <trkpt lat="47.37341" lon="2.79819">
        <ele>229.52</ele>
        <time>2017-10-01T06:51:24Z</time>
      </trkpt>
      <trkpt lat="47.37339" lon="2.7979">
        <ele>231.19</ele>
        <time>2017-10-01T06:51:35Z</time>
      </trkpt>
      <trkpt lat="47.37337" lon="2.79764">
        <ele>232.38</ele>
        <time>2017-10-01T06:51:49Z</time>
      </trkpt>
      <trkpt lat="47.37345" lon="2.79738">
        <ele>232.33</ele>
        <time>2017-10-01T06:52:03Z</time>
      </trkpt>
      <trkpt lat="47.37358" lon="2.79717">
        <ele>234.34</ele>
        <time>2017-10-01T06:52:16Z</time>
      </trkpt>
      <trkpt lat="47.37372" lon="2.79698">
        <ele>235.42</ele>
        <time>2017-10-01T06:52:27Z</time>
      </trkpt>
      <trkpt lat="47.37375" lon="2.7967">
        <ele>235.01</ele>
        <time>2017-10-01T06:52:38Z</time>
      </trkpt>
      <trkpt lat="47.37379" lon="2.79643">
        <ele>235.47</ele>
        <time>2017-10-01T06:52:50Z</time>
      </trkpt>
      <trkpt lat="47.37381" lon="2.79615">
        <ele>237.08</ele>
        <time>2017-10-01T06:53:03Z</time>
      </trkpt>
      <trkpt lat="47.37385" lon="2.79587">
        <ele>237.86</ele>
        <time>2017-10-01T06:53:16Z</time>
      </trkpt>
      <trkpt lat="47.37391" lon="2.79561">
        <ele>238.41</ele>
        <time>2017-10-01T06:53:28Z</time>
      </trkpt>
      <trkpt lat="47.37396" lon="2.79533">
        <ele>239.03</ele>
        <time>2017-10-01T06:53:41Z</time>
      </trkpt>
      <trkpt lat="47.37399" lon="2.79506">
        <ele>240.04</ele>
        <time>2017-10-01T06:53:53Z</time>
      </trkpt>
      <trkpt lat="47.374" lon="2.79479">
        <ele>241.23</ele>
        <time>2017-10-01T06:54:05Z</time>
      </trkpt>
      <trkpt lat="47.37398" lon="2.79452">
        <ele>242.54</ele>
        <time>2017-10-01T06:54:17Z</time>
      </trkpt>
      <trkpt lat="47.37399" lon="2.79423">
        <ele>242.59</ele>
        <time>2017-10-01T06:54:29Z</time>
      </trkpt>
      <trkpt lat="47.374" lon="2.79396">
        <ele>242.98</ele>
        <time>2017-10-01T06:54:42Z</time>
      </trkpt>
      <trkpt lat="47.37403" lon="2.79369">
        <ele>243.74</ele>
        <time>2017-10-01T06:54:54Z</time>
      </trkpt>
      <trkpt lat="47.37408" lon="2.79342">
        <ele>243.86</ele>
        <time>2017-10-01T06:55:07Z</time>
      </trkpt>
      <trkpt lat="47.37417" lon="2.79318">
        <ele>245.53</ele>
        <time>2017-10-01T06:55:19Z</time>
      </trkpt>
      <trkpt lat="47.37417" lon="2.7929">
        <ele>246.36</ele>
        <time>2017-10-01T06:55:32Z</time>
      </trkpt>
      <trkpt lat="47.37417" lon="2.79263">
        <ele>247.16</ele>
        <time>2017-10-01T06:55:42Z</time>
      </trkpt>
      <trkpt lat="47.37419" lon="2.79235">
        <ele>248.15</ele>
        <time>2017-10-01T06:55:57Z</time>
      </trkpt>
      <trkpt lat="47.37405" lon="2.79217">
        <ele>247.91</ele>
        <time>2017-10-01T06:56:09Z</time>
      </trkpt>
      <trkpt lat="47.37389" lon="2.79205">
        <ele>248.87</ele>
        <time>2017-10-01T06:56:23Z</time>
      </trkpt>
      <trkpt lat="47.37371" lon="2.79198">
        <ele>249.47</ele>
        <time>2017-10-01T06:56:34Z</time>
      </trkpt>
      <trkpt lat="47.37351" lon="2.79197">
        <ele>251.97</ele>
        <time>2017-10-01T06:56:49Z</time>
      </trkpt>
      <trkpt lat="47.37333" lon="2.79197">
        <ele>254.24</ele>
        <time>2017-10-01T06:57:02Z</time>
      </trkpt>
      <trkpt lat="47.37314" lon="2.79184">
        <ele>256.57</ele>
        <time>2017-10-01T06:57:12Z</time>
      </trkpt>
      <trkpt lat="47.37296" lon="2.79174">
        <ele>259.71</ele>
        <time>2017-10-01T06:57:29Z</time>
      </trkpt>
      <trkpt lat="47.37278" lon="2.79164">
        <ele>260.18</ele>
        <time>2017-10-01T06:57:41Z</time>
      </trkpt>
      <trkpt lat="47.3726" lon="2.79154">
        <ele>262.7</ele>
        <time>2017-10-01T06:57:56Z</time>
      </trkpt>
      <trkpt lat="47.37258" lon="2.79181">
        <ele>263.42</ele>
        <time>2017-10-01T06:58:13Z</time>
      </trkpt>
      <trkpt lat="47.37265" lon="2.79206">
        <ele>263.81</ele>
        <time>2017-10-01T06:58:32Z</time>
      </trkpt>
      <trkpt lat="47.37272" lon="2.79232">
        <ele>263.16</ele>
        <time>2017-10-01T06:58:46Z</time>
      </trkpt>
      <trkpt lat="47.37276" lon="2.7926">
        <ele>262.96</ele>
        <time>2017-10-01T06:58:59Z</time>
      </trkpt>
      <trkpt lat="47.37282" lon="2.79286">
        <ele>265.07</ele>
        <time>2017-10-01T06:59:11Z</time>
      </trkpt>
      <trkpt lat="47.37289" lon="2.79312">
        <ele>266.57</ele>
        <time>2017-10-01T06:59:23Z</time>
      </trkpt>
      <trkpt lat="47.37293" lon="2.7934">
        <ele>267.97</ele>
        <time>2017-10-01T06:59:35Z</time>
      </trkpt>
      <trkpt lat="47.37291" lon="2.79367">
        <ele>268.05</ele>
        <time>2017-10-01T06:59:48Z</time>
      </trkpt>
      <trkpt lat="47.37274" lon="2.79377">
        <ele>268.09</ele>
        <time>2017-10-01T07:00:00Z</time>
      </trkpt>
      <trkpt lat="47.37255" lon="2.79378">
        <ele>268.96</ele>
        <time>2017-10-01T07:00:17Z</time>
      </trkpt>
      <trkpt lat="47.37237" lon="2.79374">
        <ele>272.35</ele>
        <time>2017-10-01T07:00:33Z</time>
      </trkpt>
      <trkpt lat="47.37219" lon="2.79366">
        <ele>273.69</ele>
        <time>2017-10-01T07:00:49Z</time>
      </trkpt>
      <trkpt lat="47.37201" lon="2.79358">
        <ele>275.18</ele>
        <time>2017-10-01T07:01:03Z</time>
      </trkpt>
      <trkpt lat="47.37183" lon="2.7935">
        <ele>276.7</ele>
        <time>2017-10-01T07:01:16Z</time>
      </trkpt>
      <trkpt lat="47.37165" lon="2.7934">
        <ele>279.55</ele>
        <time>2017-10-01T07:01:30Z</time>
      </trkpt>
      <trkpt lat="47.37149" lon="2.79327">
        <ele>281.76</ele>
        <time>2017-10-01T07:01:44Z</time>
      </trkpt>
      <trkpt lat="47.37132" lon="2.79315">
        <ele>282.83</ele>
        <time>2017-10-01T07:01:58Z</time>
      </trkpt>
      <trkpt lat="47.37117" lon="2.79301">
        <ele>284.33</ele>
        <time>2017-10-01T07:02:11Z</time>
      </trkpt>
      <trkpt lat="47.37099" lon="2.79292">
        <ele>285.16</ele>
        <time>2017-10-01T07:02:24Z</time>
      </trkpt>
      <trkpt lat="47.37083" lon="2.7928">
        <ele>286.85</ele>
        <time>2017-10-01T07:02:36Z</time>
      </trkpt>
      <trkpt lat="47.37066" lon="2.79268">
        <ele>288.02</ele>
        <time>2017-10-01T07:02:47Z</time>
      </trkpt>
      <trkpt lat="47.37051" lon="2.79253">
        <ele>289.93</ele>
        <time>2017-10-01T07:03:00Z</time>
      </trkpt>
      <trkpt lat="47.37035" lon="2.79238">
        <ele>290.36</ele>
        <time>2017-10-01T07:03:14Z</time>
      </trkpt>
      <trkpt lat="47.37019" lon="2.79225">
        <ele>289.41</ele>
        <time>2017-10-01T07:03:27Z</time>
      </trkpt>
      <trkpt lat="47.37002" lon="2.7921">
        <ele>289.85</ele>
        <time>2017-10-01T07:03:38Z</time>
      </trkpt>
      <trkpt lat="47.36986" lon="2.79194">
        <ele>290.55</ele>
        <time>2017-10-01T07:03:50Z</time>
      </trkpt>
      <trkpt lat="47.36969" lon="2.7918">
        <ele>291.67</ele>
        <time>2017-10-01T07:04:02Z</time>
      </trkpt>
      <trkpt lat="47.36952" lon="2.79164">
        <ele>292.64</ele>
        <time>2017-10-01T07:04:15Z</time>
      </trkpt>
      <trkpt lat="47.36934" lon="2.79157">
        <ele>293.68</ele>
        <time>2017-10-01T07:04:27Z</time>
      </trkpt>
      <trkpt lat="47.36918" lon="2.79172">
        <ele>298.67</ele>
        <time>2017-10-01T07:04:42Z</time>
      </trkpt>
      <trkpt lat="47.36902" lon="2.79186">
        <ele>301.6</ele>
        <time>2017-10-01T07:04:54Z</time>
      </trkpt>
      <trkpt lat="47.36886" lon="2.792">
        <ele>302.27</ele>
        <time>2017-10-01T07:05:07Z</time>
      </trkpt>
      <trkpt lat="47.36874" lon="2.79222">
        <ele>301.58</ele>
        <time>2017-10-01T07:05:19Z</time>
      </trkpt>
      <trkpt lat="47.36865" lon="2.79246">
        <ele>302.55</ele>
        <time>2017-10-01T07:05:32Z</time>
      </trkpt>
      <trkpt lat="47.3686" lon="2.79273">
        <ele>303.18</ele>
        <time>2017-10-01T07:05:45Z</time>
      </trkpt>
      <trkpt lat="47.36857" lon="2.79299">
        <ele>301.65</ele>
        <time>2017-10-01T07:05:56Z</time>
      </trkpt>
      <trkpt lat="47.36854" lon="2.79327">
        <ele>300.77</ele>
        <time>2017-10-01T07:06:10Z</time>
      </trkpt>
      <trkpt lat="47.36856" lon="2.79354">
        <ele>300.87</ele>
        <time>2017-10-01T07:06:23Z</time>
      </trkpt>
      <trkpt lat="47.36857" lon="2.79383">
        <ele>301.11</ele>
        <time>2017-10-01T07:06:35Z</time>
      </trkpt>
      <trkpt lat="47.36855" lon="2.7941">
        <ele>299.41</ele>
        <time>2017-10-01T07:06:47Z</time>
      </trkpt>
      <trkpt lat="47.3685" lon="2.79437">
        <ele>297.71</ele>
        <time>2017-10-01T07:07:00Z</time>
      </trkpt>
      <trkpt lat="47.36842" lon="2.79461">
        <ele>297.9</ele>
        <time>2017-10-01T07:07:13Z</time>
      </trkpt>
      <trkpt lat="47.36833" lon="2.79485">
        <ele>297.58</ele>
        <time>2017-10-01T07:07:25Z</time>
      </trkpt>
      <trkpt lat="47.36823" lon="2.79507">
        <ele>298.04</ele>
        <time>2017-10-01T07:07:35Z</time>
      </trkpt>
      <trkpt lat="47.36809" lon="2.79527">
        <ele>298.84</ele>
        <time>2017-10-01T07:07:48Z</time>
      </trkpt>
      <trkpt lat="47.36792" lon="2.79539">
        <ele>298.97</ele>
        <time>2017-10-01T07:07:59Z</time>
      </trkpt>
      <trkpt lat="47.36774" lon="2.79543">
        <ele>299.81</ele>
        <time>2017-10-01T07:08:10Z</time>
      </trkpt>
      <trkpt lat="47.36755" lon="2.79548">
        <ele>300.83</ele>
        <time>2017-10-01T07:08:22Z</time>
      </trkpt>
      <trkpt lat="47.36738" lon="2.79554">
        <ele>301.07</ele>
        <time>2017-10-01T07:08:35Z</time>
      </trkpt>
      <trkpt lat="47.3672" lon="2.79563">
        <ele>301.23</ele>
        <time>2017-10-01T07:08:47Z</time>
      </trkpt>
      <trkpt lat="47.36701" lon="2.79572">
        <ele>299.89</ele>
        <time>2017-10-01T07:08:58Z</time>
      </trkpt>
      <trkpt lat="47.36684" lon="2.7958">
        <ele>297.92</ele>
        <time>2017-10-01T07:09:11Z</time>
      </trkpt>
      <trkpt lat="47.36672" lon="2.79559">
        <ele>297.4</ele>
        <time>2017-10-01T07:09:29Z</time>
      </trkpt>
      <trkpt lat="47.36669" lon="2.79532">
        <ele>297.02</ele>
        <time>2017-10-01T07:09:41Z</time>
      </trkpt>
      <trkpt lat="47.36668" lon="2.79505">
        <ele>297.09</ele>
        <time>2017-10-01T07:09:51Z</time>
      </trkpt>
      <trkpt lat="47.36667" lon="2.79478">
        <ele>297.75</ele>
        <time>2017-10-01T07:10:04Z</time>
      </trkpt>
      <trkpt lat="47.36666" lon="2.7945">
        <ele>298.21</ele>
        <time>2017-10-01T07:10:17Z</time>
      </trkpt>
      <trkpt lat="47.36667" lon="2.79422">
        <ele>299.02</ele>
        <time>2017-10-01T07:10:30Z</time>
      </trkpt>
      <trkpt lat="47.36669" lon="2.79394">
        <ele>299.72</ele>
        <time>2017-10-01T07:10:43Z</time>
      </trkpt>
      <trkpt lat="47.3667" lon="2.79366">
        <ele>300.43</ele>
        <time>2017-10-01T07:10:55Z</time>
      </trkpt>
      <trkpt lat="47.36666" lon="2.79339">
        <ele>300.97</ele>
        <time>2017-10-01T07:11:08Z</time>
      </trkpt>
      <trkpt lat="47.36648" lon="2.79345">
        <ele>302.04</ele>
        <time>2017-10-01T07:11:22Z</time>
      </trkpt>
      <trkpt lat="47.36631" lon="2.79355">
        <ele>303.8</ele>
        <time>2017-10-01T07:11:34Z</time>
      </trkpt>
      <trkpt lat="47.36613" lon="2.79363">
        <ele>305.38</ele>
        <time>2017-10-01T07:11:45Z</time>
      </trkpt>
      <trkpt lat="47.36595" lon="2.7937">
        <ele>306.39</ele>
        <time>2017-10-01T07:11:56Z</time>
      </trkpt>
      <trkpt lat="47.36577" lon="2.79374">
        <ele>307.02</ele>
        <time>2017-10-01T07:12:07Z</time>
      </trkpt>
      <trkpt lat="47.36558" lon="2.79374">
        <ele>307.34</ele>
        <time>2017-10-01T07:12:19Z</time>
      </trkpt>
      <trkpt lat="47.36539" lon="2.79375">
        <ele>306.72</ele>
        <time>2017-10-01T07:12:30Z</time>
      </trkpt>
      <trkpt lat="47.3652" lon="2.79384">
        <ele>306.03</ele>
        <time>2017-10-01T07:12:43Z</time>
      </trkpt>
      <trkpt lat="47.36502" lon="2.79389">
        <ele>305.09</ele>
        <time>2017-10-01T07:12:56Z</time>
      </trkpt>
      <trkpt lat="47.36484" lon="2.79394">
        <ele>304.97</ele>
        <time>2017-10-01T07:13:08Z</time>
      </trkpt>
      <trkpt lat="47.36469" lon="2.79377">
        <ele>304.06</ele>
        <time>2017-10-01T07:13:24Z</time>
      </trkpt>
      <trkpt lat="47.36455" lon="2.79359">
        <ele>303.94</ele>
        <time>2017-10-01T07:13:43Z</time>
      </trkpt>
      <trkpt lat="47.36437" lon="2.7935">
        <ele>303.37</ele>
        <time>2017-10-01T07:13:56Z</time>
      </trkpt>
      <trkpt lat="47.3642" lon="2.79342">
        <ele>303.58</ele>
        <time>2017-10-01T07:14:07Z</time>
      </trkpt>
      <trkpt lat="47.36402" lon="2.79332">
        <ele>303.49</ele>
        <time>2017-10-01T07:14:21Z</time>
      </trkpt>
      <trkpt lat="47.36384" lon="2.79327">
        <ele>303.12</ele>
        <time>2017-10-01T07:14:32Z</time>
      </trkpt>
      <trkpt lat="47.36366" lon="2.79323">
        <ele>301.96</ele>
        <time>2017-10-01T07:14:45Z</time>
      </trkpt>
      <trkpt lat="47.36349" lon="2.79312">
        <ele>301.35</ele>
        <time>2017-10-01T07:14:57Z</time>
      </trkpt>
      <trkpt lat="47.36334" lon="2.79293">
        <ele>301.96</ele>
        <time>2017-10-01T07:15:11Z</time>
      </trkpt>
      <trkpt lat="47.36327" lon="2.79266">
        <ele>301.97</ele>
        <time>2017-10-01T07:15:22Z</time>
      </trkpt>
      <trkpt lat="47.36317" lon="2.79243">
        <ele>301.23</ele>
        <time>2017-10-01T07:15:36Z</time>
      </trkpt>
      <trkpt lat="47.36308" lon="2.79218">
        <ele>301.15</ele>
        <time>2017-10-01T07:15:49Z</time>
      </trkpt>
      <trkpt lat="47.36302" lon="2.79191">
        <ele>301.4</ele>
        <time>2017-10-01T07:16:01Z</time>
      </trkpt>
      <trkpt lat="47.36297" lon="2.79165">
        <ele>302.26</ele>
        <time>2017-10-01T07:16:13Z</time>
      </trkpt>
      <trkpt lat="47.36295" lon="2.79137">
        <ele>303.18</ele>
        <time>2017-10-01T07:16:25Z</time>
      </trkpt>
      <trkpt lat="47.36289" lon="2.7911">
        <ele>303.18</ele>
        <time>2017-10-01T07:16:36Z</time>
      </trkpt>
      <trkpt lat="47.36286" lon="2.79082">
        <ele>303.1</ele>
        <time>2017-10-01T07:16:49Z</time>
      </trkpt>
      <trkpt lat="47.36286" lon="2.79052">
        <ele>303.45</ele>
        <time>2017-10-01T07:17:03Z</time>
      </trkpt>
      <trkpt lat="47.36285" lon="2.79024">
        <ele>303.66</ele>
        <time>2017-10-01T07:17:15Z</time>
      </trkpt>
      <trkpt lat="47.36286" lon="2.78997">
        <ele>304.67</ele>
        <time>2017-10-01T07:17:28Z</time>
      </trkpt>
      <trkpt lat="47.36288" lon="2.7897">
        <ele>305.86</ele>
        <time>2017-10-01T07:17:39Z</time>
      </trkpt>
      <trkpt lat="47.36293" lon="2.78945">
        <ele>306.01</ele>
        <time>2017-10-01T07:17:51Z</time>
      </trkpt>
      <trkpt lat="47.36302" lon="2.78921">
        <ele>305.98</ele>
        <time>2017-10-01T07:18:03Z</time>
      </trkpt>
      <trkpt lat="47.36312" lon="2.78897">
        <ele>306.43</ele>
        <time>2017-10-01T07:18:13Z</time>
      </trkpt>
      <trkpt lat="47.36322" lon="2.78874">
        <ele>306.93</ele>
        <time>2017-10-01T07:18:24Z</time>
      </trkpt>
      <trkpt lat="47.36333" lon="2.7885">
        <ele>307.18</ele>
        <time>2017-10-01T07:18:37Z</time>
      </trkpt>
      <trkpt lat="47.36341" lon="2.78826">
        <ele>307.91</ele>
        <time>2017-10-01T07:18:51Z</time>
      </trkpt>
      <trkpt lat="47.36352" lon="2.78804">
        <ele>308.96</ele>
        <time>2017-10-01T07:19:02Z</time>
      </trkpt>
      <trkpt lat="47.36365" lon="2.78783">
        <ele>309.75</ele>
        <time>2017-10-01T07:19:13Z</time>
      </trkpt>
      <trkpt lat="47.36378" lon="2.78765">
        <ele>310.81</ele>
        <time>2017-10-01T07:19:23Z</time>
      </trkpt>
      <trkpt lat="47.36387" lon="2.78741">
        <ele>310.59</ele>
        <time>2017-10-01T07:19:37Z</time>
      </trkpt>
      <trkpt lat="47.36381" lon="2.78716">
        <ele>311.7</ele>
        <time>2017-10-01T07:19:53Z</time>
      </trkpt>
      <trkpt lat="47.36366" lon="2.78701">
        <ele>310.41</ele>
        <time>2017-10-01T07:20:08Z</time>
      </trkpt>
      <trkpt lat="47.36351" lon="2.78685">
        <ele>309.6</ele>
        <time>2017-10-01T07:20:19Z</time>
      </trkpt>
      <trkpt lat="47.36334" lon="2.78675">
        <ele>308.33</ele>
        <time>2017-10-01T07:20:34Z</time>
      </trkpt>
      <trkpt lat="47.36315" lon="2.78679">
        <ele>308.44</ele>
        <time>2017-10-01T07:20:47Z</time>
      </trkpt>
      <trkpt lat="47.36298" lon="2.78691">
        <ele>307.92</ele>
        <time>2017-10-01T07:20:59Z</time>
      </trkpt>
      <trkpt lat="47.36283" lon="2.78707">
        <ele>307.35</ele>
        <time>2017-10-01T07:21:10Z</time>
      </trkpt>
      <trkpt lat="47.36269" lon="2.78727">
        <ele>306.82</ele>
        <time>2017-10-01T07:21:25Z</time>
      </trkpt>
      <trkpt lat="47.36256" lon="2.78745">
        <ele>305.44</ele>
        <time>2017-10-01T07:21:37Z</time>
      </trkpt>
      <trkpt lat="47.3624" lon="2.78761">
        <ele>302.93</ele>
        <time>2017-10-01T07:21:47Z</time>
      </trkpt>
      <trkpt lat="47.36223" lon="2.78775">
        <ele>300.43</ele>
        <time>2017-10-01T07:21:59Z</time>
      </trkpt>
      <trkpt lat="47.36208" lon="2.78792">
        <ele>297.36</ele>
        <time>2017-10-01T07:22:15Z</time>
      </trkpt>
      <trkpt lat="47.36192" lon="2.78811">
        <ele>295.16</ele>
        <time>2017-10-01T07:22:26Z</time>
      </trkpt>
      <trkpt lat="47.36178" lon="2.7883">
        <ele>293.22</ele>
        <time>2017-10-01T07:22:38Z</time>
      </trkpt>
      <trkpt lat="47.36167" lon="2.78851">
        <ele>291.92</ele>
        <time>2017-10-01T07:22:48Z</time>
      </trkpt>
      <trkpt lat="47.36157" lon="2.78874">
        <ele>289.49</ele>
        <time>2017-10-01T07:22:59Z</time>
      </trkpt>
      <trkpt lat="47.36151" lon="2.789">
        <ele>286.11</ele>
        <time>2017-10-01T07:23:13Z</time>
      </trkpt>
      <trkpt lat="47.36146" lon="2.78927">
        <ele>283.17</ele>
        <time>2017-10-01T07:23:26Z</time>
      </trkpt>
      <trkpt lat="47.36143" lon="2.78958">
        <ele>281.58</ele>
        <time>2017-10-01T07:23:37Z</time>
      </trkpt>
      <trkpt lat="47.36137" lon="2.78985">
        <ele>280.14</ele>
        <time>2017-10-01T07:23:48Z</time>
      </trkpt>
      <trkpt lat="47.36131" lon="2.7901">
        <ele>279.35</ele>
        <time>2017-10-01T07:23:59Z</time>
      </trkpt>
      <trkpt lat="47.36128" lon="2.79038">
        <ele>279.24</ele>
        <time>2017-10-01T07:24:13Z</time>
      </trkpt>
      <trkpt lat="47.36122" lon="2.79065">
        <ele>278.85</ele>
        <time>2017-10-01T07:24:26Z</time>
      </trkpt>
      <trkpt lat="47.3611" lon="2.79085">
        <ele>277.8</ele>
        <time>2017-10-01T07:24:41Z</time>
      </trkpt>
      <trkpt lat="47.36091" lon="2.79075">
        <ele>276.36</ele>
        <time>2017-10-01T07:24:50Z</time>
      </trkpt>
      <trkpt lat="47.36072" lon="2.79077">
        <ele>275.13</ele>
        <time>2017-10-01T07:25:00Z</time>
      </trkpt>
      <trkpt lat="47.36065" lon="2.79102">
        <ele>273.99</ele>
        <time>2017-10-01T07:25:11Z</time>
      </trkpt>
      <trkpt lat="47.3606" lon="2.79128">
        <ele>273.33</ele>
        <time>2017-10-01T07:25:22Z</time>
      </trkpt>
      <trkpt lat="47.36054" lon="2.79156">
        <ele>272.16</ele>
        <time>2017-10-01T07:25:35Z</time>
      </trkpt>
      <trkpt lat="47.36051" lon="2.79183">
        <ele>271.26</ele>
        <time>2017-10-01T07:25:45Z</time>
      </trkpt>
      <trkpt lat="47.36053" lon="2.79211">
        <ele>270.69</ele>
        <time>2017-10-01T07:25:57Z</time>
      </trkpt>
      <trkpt lat="47.36053" lon="2.79239">
        <ele>269.52</ele>
        <time>2017-10-01T07:26:10Z</time>
      </trkpt>
      <trkpt lat="47.36052" lon="2.79266">
        <ele>267.55</ele>
        <time>2017-10-01T07:26:22Z</time>
      </trkpt>
      <trkpt lat="47.36054" lon="2.79293">
        <ele>264.92</ele>
        <time>2017-10-01T07:26:34Z</time>
      </trkpt>
      <trkpt lat="47.36051" lon="2.79321">
        <ele>263.54</ele>
        <time>2017-10-01T07:26:45Z</time>
      </trkpt>
      <trkpt lat="47.36049" lon="2.79348">
        <ele>260.84</ele>
        <time>2017-10-01T07:26:59Z</time>
      </trkpt>
      <trkpt lat="47.36048" lon="2.79375">
        <ele>258.27</ele>
        <time>2017-10-01T07:27:10Z</time>
      </trkpt>
      <trkpt lat="47.3605" lon="2.79402">
        <ele>257.01</ele>
        <time>2017-10-01T07:27:20Z</time>
      </trkpt>
      <trkpt lat="47.36053" lon="2.79428">
        <ele>256.24</ele>
        <time>2017-10-01T07:27:30Z</time>
      </trkpt>
      <trkpt lat="47.36056" lon="2.79455">
        <ele>256.35</ele>
        <time>2017-10-01T07:27:41Z</time>
      </trkpt>
      <trkpt lat="47.36052" lon="2.79481">
        <ele>254.97</ele>
        <time>2017-10-01T07:27:52Z</time>
      </trkpt>
      <trkpt lat="47.36057" lon="2.79509">
        <ele>253.24</ele>
        <time>2017-10-01T07:28:04Z</time>
      </trkpt>
      <trkpt lat="47.36063" lon="2.79536">
        <ele>250.9</ele>
        <time>2017-10-01T07:28:16Z</time>
      </trkpt>
      <trkpt lat="47.36072" lon="2.7956">
        <ele>249.51</ele>
        <time>2017-10-01T07:28:27Z</time>
      </trkpt>
      <trkpt lat="47.36082" lon="2.79582">
        <ele>248.39</ele>
        <time>2017-10-01T07:28:40Z</time>
      </trkpt>
      <trkpt lat="47.36092" lon="2.79605">
        <ele>249.17</ele>
        <time>2017-10-01T07:28:51Z</time>
      </trkpt>
      <trkpt lat="47.361" lon="2.7963">
        <ele>248.47</ele>
        <time>2017-10-01T07:29:05Z</time>
      </trkpt>
      <trkpt lat="47.361" lon="2.79657">
        <ele>247.35</ele>
        <time>2017-10-01T07:29:18Z</time>
      </trkpt>
      <trkpt lat="47.36103" lon="2.79684">
        <ele>246.41</ele>
        <time>2017-10-01T07:29:31Z</time>
      </trkpt>
      <trkpt lat="47.36101" lon="2.79711">
        <ele>245.39</ele>
        <time>2017-10-01T07:29:42Z</time>
      </trkpt>
      <trkpt lat="47.36093" lon="2.79735">
        <ele>243.48</ele>
        <time>2017-10-01T07:29:59Z</time>
      </trkpt>
      <trkpt lat="47.36077" lon="2.79754">
        <ele>241.11</ele>
        <time>2017-10-01T07:30:13Z</time>
      </trkpt>
      <trkpt lat="47.36062" lon="2.79773">
        <ele>238.93</ele>
        <time>2017-10-01T07:30:25Z</time>
      </trkpt>
      <trkpt lat="47.36047" lon="2.7979">
        <ele>238.35</ele>
        <time>2017-10-01T07:30:37Z</time>
      </trkpt>
      <trkpt lat="47.3603" lon="2.79806">
        <ele>236.12</ele>
        <time>2017-10-01T07:30:56Z</time>
      </trkpt>
      <trkpt lat="47.36019" lon="2.79828">
        <ele>234.24</ele>
        <time>2017-10-01T07:31:10Z</time>
      </trkpt>
      <trkpt lat="47.36015" lon="2.79854">
        <ele>233.44</ele>
        <time>2017-10-01T07:31:20Z</time>
      </trkpt>
      <trkpt lat="47.36006" lon="2.79877">
        <ele>232.05</ele>
        <time>2017-10-01T07:31:33Z</time>
      </trkpt>
      <trkpt lat="47.35998" lon="2.79905">
        <ele>229.88</ele>
        <time>2017-10-01T07:31:44Z</time>
      </trkpt>
      <trkpt lat="47.35988" lon="2.79928">
        <ele>227.55</ele>
        <time>2017-10-01T07:31:57Z</time>
      </trkpt>
      <trkpt lat="47.35974" lon="2.79945">
        <ele>226.72</ele>
        <time>2017-10-01T07:32:12Z</time>
      </trkpt>
      <trkpt lat="47.35958" lon="2.79961">
        <ele>226.6</ele>
        <time>2017-10-01T07:32:24Z</time>
      </trkpt>
      <trkpt lat="47.35943" lon="2.79978">
        <ele>226.94</ele>
        <time>2017-10-01T07:32:37Z</time>
      </trkpt>
      <trkpt lat="47.35931" lon="2.79956">
        <ele>227.64</ele>
        <time>2017-10-01T07:32:55Z</time>
      </trkpt>
      <trkpt lat="47.35918" lon="2.79936">
        <ele>228.85</ele>
        <time>2017-10-01T07:33:06Z</time>
      </trkpt>
      <trkpt lat="47.35905" lon="2.79917">
        <ele>231.46</ele>
        <time>2017-10-01T07:33:18Z</time>
      </trkpt>
      <trkpt lat="47.35895" lon="2.79893">
        <ele>234.03</ele>
        <time>2017-10-01T07:33:29Z</time>
      </trkpt>
      <trkpt lat="47.35885" lon="2.79866">
        <ele>234.62</ele>
        <time>2017-10-01T07:33:41Z</time>
      </trkpt>
      <trkpt lat="47.35875" lon="2.79842">
        <ele>235.36</ele>
        <time>2017-10-01T07:33:57Z</time>
      </trkpt>
      <trkpt lat="47.35866" lon="2.79819">
        <ele>235.39</ele>
        <time>2017-10-01T07:34:07Z</time>
      </trkpt>
      <trkpt lat="47.35853" lon="2.79797">
        <ele>235.98</ele>
        <time>2017-10-01T07:34:20Z</time>
      </trkpt>
      <trkpt lat="47.35843" lon="2.79775">
        <ele>234.26</ele>
        <time>2017-10-01T07:34:35Z</time>
      </trkpt>
      <trkpt lat="47.35824" lon="2.79774">
        <ele>233.3</ele>
        <time>2017-10-01T07:34:52Z</time>
      </trkpt>
      <trkpt lat="47.35807" lon="2.79788">
        <ele>233.66</ele>
        <time>2017-10-01T07:35:04Z</time>
      </trkpt>
      <trkpt lat="47.3579" lon="2.798">
        <ele>234.72</ele>
        <time>2017-10-01T07:35:20Z</time>
      </trkpt>
      <trkpt lat="47.35775" lon="2.79814">
        <ele>235.78</ele>
        <time>2017-10-01T07:35:35Z</time>
      </trkpt>
      <trkpt lat="47.35754" lon="2.79822">
        <ele>235.55</ele>
        <time>2017-10-01T07:35:49Z</time>
      </trkpt>
      <trkpt lat="47.35736" lon="2.79827">
        <ele>239.23</ele>
        <time>2017-10-01T07:36:08Z</time>
      </trkpt>
      <trkpt lat="47.35717" lon="2.79827">
        <ele>244.12</ele>
        <time>2017-10-01T07:36:29Z</time>
      </trkpt>
      <trkpt lat="47.35699" lon="2.79827">
        <ele>247.51</ele>
        <time>2017-10-01T07:36:48Z</time>
      </trkpt>
      <trkpt lat="47.3568" lon="2.79825">
        <ele>251.23</ele>
        <time>2017-10-01T07:37:05Z</time>
      </trkpt>
      <trkpt lat="47.35662" lon="2.79821">
        <ele>255.17</ele>
        <time>2017-10-01T07:37:19Z</time>
      </trkpt>
      <trkpt lat="47.35644" lon="2.7982">
        <ele>258.29</ele>
        <time>2017-10-01T07:37:33Z</time>
      </trkpt>
      <trkpt lat="47.35624" lon="2.79821">
        <ele>260.66</ele>
        <time>2017-10-01T07:37:48Z</time>
      </trkpt>
      <trkpt lat="47.35605" lon="2.79817">
        <ele>264.33</ele>
        <time>2017-10-01T07:38:04Z</time>
      </trkpt>
      <trkpt lat="47.35587" lon="2.79819">
        <ele>267.07</ele>
        <time>2017-10-01T07:38:24Z</time>
      </trkpt>
      <trkpt lat="47.35569" lon="2.79821">
        <ele>268.09</ele>
        <time>2017-10-01T07:38:40Z</time>
      </trkpt>
      <trkpt lat="47.3555" lon="2.79822">
        <ele>269.8</ele>
        <time>2017-10-01T07:38:51Z</time>
      </trkpt>
      <trkpt lat="47.35532" lon="2.79824">
        <ele>272.75</ele>
        <time>2017-10-01T07:39:05Z</time>
      </trkpt>
      <trkpt lat="47.35515" lon="2.79832">
        <ele>274.93</ele>
        <time>2017-10-01T07:39:19Z</time>
      </trkpt>
      <trkpt lat="47.35497" lon="2.79841">
        <ele>277.29</ele>
        <time>2017-10-01T07:39:34Z</time>
      </trkpt>
      <trkpt lat="47.35481" lon="2.79855">
        <ele>279.91</ele>
        <time>2017-10-01T07:39:48Z</time>
      </trkpt>
      <trkpt lat="47.35463" lon="2.7986">
        <ele>283.03</ele>
        <time>2017-10-01T07:40:03Z</time>
      </trkpt>
      <trkpt lat="47.35447" lon="2.79876">
        <ele>284.49</ele>
        <time>2017-10-01T07:40:21Z</time>
      </trkpt>
      <trkpt lat="47.35432" lon="2.79891">
        <ele>285.92</ele>
        <time>2017-10-01T07:40:36Z</time>
      </trkpt>
      <trkpt lat="47.35419" lon="2.7991">
        <ele>286.92</ele>
        <time>2017-10-01T07:40:50Z</time>
      </trkpt>
      <trkpt lat="47.35402" lon="2.79922">
        <ele>288.39</ele>
        <time>2017-10-01T07:41:05Z</time>
      </trkpt>
      <trkpt lat="47.35387" lon="2.79941">
        <ele>289.7</ele>
        <time>2017-10-01T07:41:21Z</time>
      </trkpt>
      <trkpt lat="47.35373" lon="2.79958">
        <ele>291.51</ele>
        <time>2017-10-01T07:41:36Z</time>
      </trkpt>
      <trkpt lat="47.35357" lon="2.79975">
        <ele>293.59</ele>
        <time>2017-10-01T07:41:51Z</time>
      </trkpt>
      <trkpt lat="47.35341" lon="2.79989">
        <ele>296.19</ele>
        <time>2017-10-01T07:42:03Z</time>
      </trkpt>
      <trkpt lat="47.35331" lon="2.80012">
        <ele>299.45</ele>
        <time>2017-10-01T07:42:20Z</time>
      </trkpt>
      <trkpt lat="47.35321" lon="2.80036">
        <ele>301.18</ele>
        <time>2017-10-01T07:42:40Z</time>
      </trkpt>
      <trkpt lat="47.35308" lon="2.80057">
        <ele>302.42</ele>
        <time>2017-10-01T07:42:54Z</time>
      </trkpt>
      <trkpt lat="47.35297" lon="2.8008">
        <ele>302.58</ele>
        <time>2017-10-01T07:43:08Z</time>
      </trkpt>
      <trkpt lat="47.35284" lon="2.80099">
        <ele>302.93</ele>
        <time>2017-10-01T07:43:24Z</time>
      </trkpt>
      <trkpt lat="47.35267" lon="2.80089">
        <ele>305.1</ele>
        <time>2017-10-01T07:43:54Z</time>
      </trkpt>
      <trkpt lat="47.35252" lon="2.80074">
        <ele>307.42</ele>
        <time>2017-10-01T07:44:13Z</time>
      </trkpt>
      <trkpt lat="47.35238" lon="2.80055">
        <ele>307.33</ele>
        <time>2017-10-01T07:44:26Z</time>
      </trkpt>
      <trkpt lat="47.35223" lon="2.8004">
        <ele>308.15</ele>
        <time>2017-10-01T07:44:40Z</time>
      </trkpt>
      <trkpt lat="47.3521" lon="2.80022">
        <ele>308.74</ele>
        <time>2017-10-01T07:44:54Z</time>
      </trkpt>
      <trkpt lat="47.35195" lon="2.80004">
        <ele>308.56</ele>
        <time>2017-10-01T07:45:08Z</time>
      </trkpt>
      <trkpt lat="47.35176" lon="2.80009">
        <ele>308.64</ele>
        <time>2017-10-01T07:45:21Z</time>
      </trkpt>
      <trkpt lat="47.35161" lon="2.80023">
        <ele>309.83</ele>
        <time>2017-10-01T07:45:32Z</time>
      </trkpt>
      <trkpt lat="47.35148" lon="2.80042">
        <ele>310.18</ele>
        <time>2017-10-01T07:45:45Z</time>
      </trkpt>
      <trkpt lat="47.35136" lon="2.80064">
        <ele>311.27</ele>
        <time>2017-10-01T07:45:59Z</time>
      </trkpt>
      <trkpt lat="47.35123" lon="2.80082">
        <ele>312.01</ele>
        <time>2017-10-01T07:46:11Z</time>
      </trkpt>
      <trkpt lat="47.35111" lon="2.80103">
        <ele>313.27</ele>
        <time>2017-10-01T07:46:23Z</time>
      </trkpt>
      <trkpt lat="47.351" lon="2.80126">
        <ele>313.59</ele>
        <time>2017-10-01T07:46:35Z</time>
      </trkpt>
      <trkpt lat="47.35088" lon="2.80146">
        <ele>313.17</ele>
        <time>2017-10-01T07:46:48Z</time>
      </trkpt>
      <trkpt lat="47.35077" lon="2.80167">
        <ele>312.38</ele>
        <time>2017-10-01T07:46:59Z</time>
      </trkpt>
      <trkpt lat="47.35066" lon="2.8019">
        <ele>312.1</ele>
        <time>2017-10-01T07:47:11Z</time>
      </trkpt>
      <trkpt lat="47.35053" lon="2.8021">
        <ele>312.44</ele>
        <time>2017-10-01T07:47:24Z</time>
      </trkpt>
      <trkpt lat="47.35043" lon="2.80232">
        <ele>312.63</ele>
        <time>2017-10-01T07:47:36Z</time>
      </trkpt>
      <trkpt lat="47.3503" lon="2.80253">
        <ele>311.71</ele>
        <time>2017-10-01T07:47:49Z</time>
      </trkpt>
      <trkpt lat="47.35018" lon="2.80274">
        <ele>310.56</ele>
        <time>2017-10-01T07:48:03Z</time>
      </trkpt>
      <trkpt lat="47.35003" lon="2.80257">
        <ele>308.44</ele>
        <time>2017-10-01T07:48:22Z</time>
      </trkpt>
      <trkpt lat="47.3499" lon="2.80237">
        <ele>307.87</ele>
        <time>2017-10-01T07:48:35Z</time>
      </trkpt>
      <trkpt lat="47.34976" lon="2.80219">
        <ele>309.2</ele>
        <time>2017-10-01T07:48:51Z</time>
      </trkpt>
      <trkpt lat="47.34964" lon="2.80239">
        <ele>311.03</ele>
        <time>2017-10-01T07:49:06Z</time>
      </trkpt>
      <trkpt lat="47.34953" lon="2.80261">
        <ele>311.09</ele>
        <time>2017-10-01T07:49:18Z</time>
      </trkpt>
      <trkpt lat="47.34938" lon="2.80276">
        <ele>311.09</ele>
        <time>2017-10-01T07:49:30Z</time>
      </trkpt>
      <trkpt lat="47.34924" lon="2.80259">
        <ele>310.81</ele>
        <time>2017-10-01T07:49:43Z</time>
      </trkpt>
      <trkpt lat="47.3491" lon="2.80242">
        <ele>311.88</ele>
        <time>2017-10-01T07:49:56Z</time>
      </trkpt>
      <trkpt lat="47.34894" lon="2.80226">
        <ele>312.9</ele>
        <time>2017-10-01T07:50:09Z</time>
      </trkpt>
      <trkpt lat="47.34878" lon="2.8021">
        <ele>313.89</ele>
        <time>2017-10-01T07:50:21Z</time>
      </trkpt>
      <trkpt lat="47.34861" lon="2.80197">
        <ele>314.24</ele>
        <time>2017-10-01T07:50:34Z</time>
      </trkpt>
      <trkpt lat="47.34846" lon="2.8018">
        <ele>314.14</ele>
        <time>2017-10-01T07:50:47Z</time>
      </trkpt>
      <trkpt lat="47.34831" lon="2.80163">
        <ele>314.2</ele>
        <time>2017-10-01T07:51:00Z</time>
      </trkpt>
      <trkpt lat="47.34815" lon="2.80146">
        <ele>314.43</ele>
        <time>2017-10-01T07:51:13Z</time>
      </trkpt>
      <trkpt lat="47.348" lon="2.80131">
        <ele>314.88</ele>
        <time>2017-10-01T07:51:26Z</time>
      </trkpt>
      <trkpt lat="47.34785" lon="2.80113">
        <ele>315.58</ele>
        <time>2017-10-01T07:51:37Z</time>
      </trkpt>
      <trkpt lat="47.34769" lon="2.801">
        <ele>315.31</ele>
        <time>2017-10-01T07:51:49Z</time>
      </trkpt>
      <trkpt lat="47.34753" lon="2.80087">
        <ele>314.86</ele>
        <time>2017-10-01T07:52:03Z</time>
      </trkpt>
      <trkpt lat="47.34738" lon="2.80072">
        <ele>314.71</ele>
        <time>2017-10-01T07:52:15Z</time>
      </trkpt>
      <trkpt lat="47.34721" lon="2.80058">
        <ele>314.34</ele>
        <time>2017-10-01T07:52:27Z</time>
      </trkpt>
      <trkpt lat="47.34705" lon="2.80045">
        <ele>314.69</ele>
        <time>2017-10-01T07:52:38Z</time>
      </trkpt>
      <trkpt lat="47.34688" lon="2.80032">
        <ele>315.47</ele>
        <time>2017-10-01T07:52:50Z</time>
      </trkpt>
      <trkpt lat="47.34669" lon="2.80031">
        <ele>315.44</ele>
        <time>2017-10-01T07:53:02Z</time>
      </trkpt>
      <trkpt lat="47.34651" lon="2.80027">
        <ele>315.95</ele>
        <time>2017-10-01T07:53:12Z</time>
      </trkpt>
      <trkpt lat="47.34632" lon="2.80027">
        <ele>316.35</ele>
        <time>2017-10-01T07:53:25Z</time>
      </trkpt>
      <trkpt lat="47.34612" lon="2.80028">
        <ele>315.92</ele>
        <time>2017-10-01T07:53:38Z</time>
      </trkpt>
      <trkpt lat="47.34593" lon="2.80029">
        <ele>314.92</ele>
        <time>2017-10-01T07:53:51Z</time>
      </trkpt>
      <trkpt lat="47.34575" lon="2.80034">
        <ele>314.83</ele>
        <time>2017-10-01T07:54:04Z</time>
      </trkpt>
      <trkpt lat="47.34557" lon="2.80034">
        <ele>314.85</ele>
        <time>2017-10-01T07:54:15Z</time>
      </trkpt>
      <trkpt lat="47.34545" lon="2.80055">
        <ele>314.25</ele>
        <time>2017-10-01T07:54:32Z</time>
      </trkpt>
      <trkpt lat="47.34532" lon="2.80074">
        <ele>312.25</ele>
        <time>2017-10-01T07:54:44Z</time>
      </trkpt>
      <trkpt lat="47.3452" lon="2.80094">
        <ele>310.69</ele>
        <time>2017-10-01T07:54:55Z</time>
      </trkpt>
      <trkpt lat="47.34508" lon="2.80115">
        <ele>309.7</ele>
        <time>2017-10-01T07:55:04Z</time>
      </trkpt>
      <trkpt lat="47.34496" lon="2.80136">
        <ele>309.52</ele>
        <time>2017-10-01T07:55:17Z</time>
      </trkpt>
      <trkpt lat="47.34487" lon="2.80159">
        <ele>308.68</ele>
        <time>2017-10-01T07:55:28Z</time>
      </trkpt>
      <trkpt lat="47.34477" lon="2.80182">
        <ele>306.18</ele>
        <time>2017-10-01T07:55:45Z</time>
      </trkpt>
      <trkpt lat="47.3447" lon="2.80207">
        <ele>303.35</ele>
        <time>2017-10-01T07:55:57Z</time>
      </trkpt>
      <trkpt lat="47.34464" lon="2.80233">
        <ele>301.17</ele>
        <time>2017-10-01T07:56:10Z</time>
      </trkpt>
      <trkpt lat="47.34457" lon="2.80257">
        <ele>298.94</ele>
        <time>2017-10-01T07:56:21Z</time>
      </trkpt>
      <trkpt lat="47.34448" lon="2.80281">
        <ele>296.69</ele>
        <time>2017-10-01T07:56:35Z</time>
      </trkpt>
      <trkpt lat="47.34438" lon="2.80305">
        <ele>294.7</ele>
        <time>2017-10-01T07:56:47Z</time>
      </trkpt>
      <trkpt lat="47.34426" lon="2.80326">
        <ele>292.29</ele>
        <time>2017-10-01T07:57:00Z</time>
      </trkpt>
      <trkpt lat="47.34411" lon="2.80343">
        <ele>289.82</ele>
        <time>2017-10-01T07:57:12Z</time>
      </trkpt>
      <trkpt lat="47.34396" lon="2.80362">
        <ele>288.13</ele>
        <time>2017-10-01T07:57:22Z</time>
      </trkpt>
      <trkpt lat="47.34381" lon="2.80381">
        <ele>286.14</ele>
        <time>2017-10-01T07:57:34Z</time>
      </trkpt>
      <trkpt lat="47.34368" lon="2.80401">
        <ele>283.67</ele>
        <time>2017-10-01T07:57:49Z</time>
      </trkpt>
      <trkpt lat="47.34357" lon="2.80424">
        <ele>281.44</ele>
        <time>2017-10-01T07:58:00Z</time>
      </trkpt>
      <trkpt lat="47.3435" lon="2.80449">
        <ele>278.43</ele>
        <time>2017-10-01T07:58:16Z</time>
      </trkpt>
      <trkpt lat="47.34343" lon="2.80474">
        <ele>275.83</ele>
        <time>2017-10-01T07:58:27Z</time>
      </trkpt>
      <trkpt lat="47.3434" lon="2.80501">
        <ele>273.16</ele>
        <time>2017-10-01T07:58:38Z</time>
      </trkpt>
      <trkpt lat="47.34337" lon="2.8053">
        <ele>272.61</ele>
        <time>2017-10-01T07:58:49Z</time>
      </trkpt>
      <trkpt lat="47.34335" lon="2.80558">
        <ele>272.21</ele>
        <time>2017-10-01T07:59:01Z</time>
      </trkpt>
      <trkpt lat="47.34329" lon="2.80583">
        <ele>271.26</ele>
        <time>2017-10-01T07:59:12Z</time>
      </trkpt>
      <trkpt lat="47.3432" lon="2.8061">
        <ele>269.72</ele>
        <time>2017-10-01T07:59:23Z</time>
      </trkpt>
      <trkpt lat="47.34308" lon="2.80631">
        <ele>269.89</ele>
        <time>2017-10-01T07:59:35Z</time>
      </trkpt>
      <trkpt lat="47.34296" lon="2.80651">
        <ele>269.98</ele>
        <time>2017-10-01T07:59:45Z</time>
      </trkpt>
      <trkpt lat="47.34284" lon="2.80673">
        <ele>267.4</ele>
        <time>2017-10-01T07:59:58Z</time>
      </trkpt>
      <trkpt lat="47.34271" lon="2.80693">
        <ele>266.94</ele>
        <time>2017-10-01T08:00:09Z</time>
      </trkpt>
      <trkpt lat="47.34261" lon="2.80715">
        <ele>266.79</ele>
        <time>2017-10-01T08:00:19Z</time>
      </trkpt>
      <trkpt lat="47.34249" lon="2.80736">
        <ele>266.34</ele>
        <time>2017-10-01T08:00:30Z</time>
      </trkpt>
      <trkpt lat="47.34234" lon="2.80752">
        <ele>264.77</ele>
        <time>2017-10-01T08:00:43Z</time>
      </trkpt>
      <trkpt lat="47.34221" lon="2.80773">
        <ele>262.62</ele>
        <time>2017-10-01T08:00:57Z</time>
      </trkpt>
      <trkpt lat="47.34211" lon="2.80797">
        <ele>260.93</ele>
        <time>2017-10-01T08:01:09Z</time>
      </trkpt>
      <trkpt lat="47.34194" lon="2.80809">
        <ele>293.74</ele>
        <time>2017-10-01T08:01:35Z</time>
      </trkpt>
      <trkpt lat="47.34188" lon="2.80784">
        <ele>305.35</ele>
        <time>2017-10-01T08:01:51Z</time>
      </trkpt>
      <trkpt lat="47.34179" lon="2.80761">
        <ele>303.9</ele>
        <time>2017-10-01T08:02:01Z</time>
      </trkpt>
      <trkpt lat="47.34178" lon="2.8079">
        <ele>298.23</ele>
        <time>2017-10-01T08:02:13Z</time>
      </trkpt>
      <trkpt lat="47.34171" lon="2.8082">
        <ele>293.32</ele>
        <time>2017-10-01T08:02:18Z</time>
      </trkpt>
      <trkpt lat="47.34166" lon="2.80849">
        <ele>289.77</ele>
        <time>2017-10-01T08:02:22Z</time>
      </trkpt>
      <trkpt lat="47.34156" lon="2.80878">
        <ele>285.47</ele>
        <time>2017-10-01T08:02:27Z</time>
      </trkpt>
      <trkpt lat="47.34151" lon="2.80904">
        <ele>281.75</ele>
        <time>2017-10-01T08:02:32Z</time>
      </trkpt>
      <trkpt lat="47.34148" lon="2.80931">
        <ele>277.46</ele>
        <time>2017-10-01T08:02:39Z</time>
      </trkpt>
      <trkpt lat="47.34143" lon="2.80963">
        <ele>273.9</ele>
        <time>2017-10-01T08:02:46Z</time>
      </trkpt>
      <trkpt lat="47.3414" lon="2.80991">
        <ele>270.27</ele>
        <time>2017-10-01T08:02:53Z</time>
      </trkpt>
      <trkpt lat="47.34135" lon="2.81019">
        <ele>266.26</ele>
        <time>2017-10-01T08:03:03Z</time>
      </trkpt>
      <trkpt lat="47.34129" lon="2.81046">
        <ele>263.68</ele>
        <time>2017-10-01T08:03:14Z</time>
      </trkpt>
      <trkpt lat="47.34125" lon="2.81072">
        <ele>261.75</ele>
        <time>2017-10-01T08:03:26Z</time>
      </trkpt>
      <trkpt lat="47.34122" lon="2.81099">
        <ele>261.18</ele>
        <time>2017-10-01T08:03:35Z</time>
      </trkpt>
      <trkpt lat="47.34117" lon="2.81125">
        <ele>260.21</ele>
        <time>2017-10-01T08:03:47Z</time>
      </trkpt>
      <trkpt lat="47.34113" lon="2.81151">
        <ele>260.76</ele>
        <time>2017-10-01T08:03:58Z</time>
      </trkpt>
      <trkpt lat="47.34109" lon="2.81179">
        <ele>261.12</ele>
        <time>2017-10-01T08:04:11Z</time>
      </trkpt>
      <trkpt lat="47.34109" lon="2.81207">
        <ele>260.26</ele>
        <time>2017-10-01T08:04:21Z</time>
      </trkpt>
      <trkpt lat="47.34109" lon="2.81236">
        <ele>259.28</ele>
        <time>2017-10-01T08:04:31Z</time>
      </trkpt>
      <trkpt lat="47.34112" lon="2.81264">
        <ele>257.67</ele>
        <time>2017-10-01T08:04:44Z</time>
      </trkpt>
      <trkpt lat="47.34113" lon="2.81291">
        <ele>257.22</ele>
        <time>2017-10-01T08:04:56Z</time>
      </trkpt>
      <trkpt lat="47.34113" lon="2.81319">
        <ele>256.17</ele>
        <time>2017-10-01T08:05:08Z</time>
      </trkpt>
      <trkpt lat="47.34112" lon="2.81346">
        <ele>255.2</ele>
        <time>2017-10-01T08:05:20Z</time>
      </trkpt>
      <trkpt lat="47.34112" lon="2.81374">
        <ele>253.33</ele>
        <time>2017-10-01T08:05:32Z</time>
      </trkpt>
      <trkpt lat="47.341" lon="2.81394">
        <ele>251.59</ele>
        <time>2017-10-01T08:05:45Z</time>
      </trkpt>
      <trkpt lat="47.3408" lon="2.81397">
        <ele>250.14</ele>
        <time>2017-10-01T08:05:56Z</time>
      </trkpt>
      <trkpt lat="47.34062" lon="2.81395">
        <ele>249.28</ele>
        <time>2017-10-01T08:06:08Z</time>
      </trkpt>
      <trkpt lat="47.34043" lon="2.8139">
        <ele>247.34</ele>
        <time>2017-10-01T08:06:21Z</time>
      </trkpt>
      <trkpt lat="47.34025" lon="2.81381">
        <ele>245.81</ele>
        <time>2017-10-01T08:06:33Z</time>
      </trkpt>
      <trkpt lat="47.34008" lon="2.81371">
        <ele>244.8</ele>
        <time>2017-10-01T08:06:42Z</time>
      </trkpt>
      <trkpt lat="47.33991" lon="2.81362">
        <ele>242.98</ele>
        <time>2017-10-01T08:06:53Z</time>
      </trkpt>
      <trkpt lat="47.33973" lon="2.81356">
        <ele>240.36</ele>
        <time>2017-10-01T08:07:06Z</time>
      </trkpt>
      <trkpt lat="47.33954" lon="2.81355">
        <ele>237.33</ele>
        <time>2017-10-01T08:07:21Z</time>
      </trkpt>
      <trkpt lat="47.33935" lon="2.81353">
        <ele>235.31</ele>
        <time>2017-10-01T08:07:34Z</time>
      </trkpt>
      <trkpt lat="47.33915" lon="2.81349">
        <ele>232.13</ele>
        <time>2017-10-01T08:07:47Z</time>
      </trkpt>
      <trkpt lat="47.33896" lon="2.81348">
        <ele>228.13</ele>
        <time>2017-10-01T08:08:01Z</time>
      </trkpt>
      <trkpt lat="47.33878" lon="2.81354">
        <ele>226.81</ele>
        <time>2017-10-01T08:08:12Z</time>
      </trkpt>
      <trkpt lat="47.3386" lon="2.8136">
        <ele>224.15</ele>
        <time>2017-10-01T08:08:25Z</time>
      </trkpt>
      <trkpt lat="47.33841" lon="2.81364">
        <ele>222.12</ele>
        <time>2017-10-01T08:08:36Z</time>
      </trkpt>
      <trkpt lat="47.33829" lon="2.81386">
        <ele>218.71</ele>
        <time>2017-10-01T08:08:50Z</time>
      </trkpt>
      <trkpt lat="47.33822" lon="2.81412">
        <ele>214.99</ele>
        <time>2017-10-01T08:09:03Z</time>
      </trkpt>
      <trkpt lat="47.33813" lon="2.81436">
        <ele>212.73</ele>
        <time>2017-10-01T08:09:15Z</time>
      </trkpt>
      <trkpt lat="47.33806" lon="2.81464">
        <ele>210.23</ele>
        <time>2017-10-01T08:09:28Z</time>
      </trkpt>
      <trkpt lat="47.338" lon="2.81489">
        <ele>209.08</ele>
        <time>2017-10-01T08:09:38Z</time>
      </trkpt>
      <trkpt lat="47.33795" lon="2.81515">
        <ele>208.15</ele>
        <time>2017-10-01T08:09:51Z</time>
      </trkpt>
      <trkpt lat="47.33791" lon="2.81542">
        <ele>206.76</ele>
        <time>2017-10-01T08:10:02Z</time>
      </trkpt>
      <trkpt lat="47.33786" lon="2.8157">
        <ele>205.73</ele>
        <time>2017-10-01T08:10:14Z</time>
      </trkpt>
      <trkpt lat="47.33786" lon="2.81599">
        <ele>203.77</ele>
        <time>2017-10-01T08:10:26Z</time>
      </trkpt>
      <trkpt lat="47.33781" lon="2.81626">
        <ele>201.89</ele>
        <time>2017-10-01T08:10:40Z</time>
      </trkpt>
      <trkpt lat="47.33778" lon="2.81654">
        <ele>200.7</ele>
        <time>2017-10-01T08:10:52Z</time>
      </trkpt>
      <trkpt lat="47.33771" lon="2.81679">
        <ele>198.6</ele>
        <time>2017-10-01T08:11:03Z</time>
      </trkpt>
      <trkpt lat="47.33765" lon="2.81705">
        <ele>195.61</ele>
        <time>2017-10-01T08:11:17Z</time>
      </trkpt>
      <trkpt lat="47.3375" lon="2.81719">
        <ele>193.59</ele>
        <time>2017-10-01T08:11:27Z</time>
      </trkpt>
      <trkpt lat="47.33731" lon="2.81727">
        <ele>191.55</ele>
        <time>2017-10-01T08:11:39Z</time>
      </trkpt>
      <trkpt lat="47.33712" lon="2.81732">
        <ele>191.04</ele>
        <time>2017-10-01T08:11:50Z</time>
      </trkpt>
      <trkpt lat="47.33694" lon="2.81735">
        <ele>190.73</ele>
        <time>2017-10-01T08:12:00Z</time>
      </trkpt>
      <trkpt lat="47.33676" lon="2.81741">
        <ele>190.9</ele>
        <time>2017-10-01T08:12:12Z</time>
      </trkpt>
      <trkpt lat="47.3366" lon="2.81757">
        <ele>191.11</ele>
        <time>2017-10-01T08:12:26Z</time>
      </trkpt>
      <trkpt lat="47.33647" lon="2.81775">
        <ele>189.43</ele>
        <time>2017-10-01T08:14:17Z</time>
      </trkpt>
      <trkpt lat="47.33633" lon="2.81757">
        <ele>188.26</ele>
        <time>2017-10-01T08:16:16Z</time>
      </trkpt>
      <trkpt lat="47.33616" lon="2.81771">
        <ele>187.73</ele>
        <time>2017-10-01T08:16:40Z</time>
      </trkpt>
      <trkpt lat="47.33604" lon="2.81792">
        <ele>187.75</ele>
        <time>2017-10-01T08:16:55Z</time>
      </trkpt>
      <trkpt lat="47.33605" lon="2.8182">
        <ele>188.73</ele>
        <time>2017-10-01T08:17:09Z</time>
      </trkpt>
      <trkpt lat="47.33601" lon="2.8185">
        <ele>189.08</ele>
        <time>2017-10-01T08:17:20Z</time>
      </trkpt>
      <trkpt lat="47.33598" lon="2.81878">
        <ele>191.09</ele>
        <time>2017-10-01T08:17:35Z</time>
      </trkpt>
      <trkpt lat="47.33594" lon="2.81904">
        <ele>192.41</ele>
        <time>2017-10-01T08:17:44Z</time>
      </trkpt>
      <trkpt lat="47.3359" lon="2.81931">
        <ele>193.03</ele>
        <time>2017-10-01T08:17:58Z</time>
      </trkpt>
      <trkpt lat="47.33585" lon="2.81957">
        <ele>192.21</ele>
        <time>2017-10-01T08:18:12Z</time>
      </trkpt>
      <trkpt lat="47.33575" lon="2.81983">
        <ele>192.39</ele>
        <time>2017-10-01T08:18:23Z</time>
      </trkpt>
      <trkpt lat="47.33562" lon="2.82004">
        <ele>191.9</ele>
        <time>2017-10-01T08:18:34Z</time>
      </trkpt>
      <trkpt lat="47.3355" lon="2.82023">
        <ele>191.49</ele>
        <time>2017-10-01T08:18:49Z</time>
      </trkpt>
      <trkpt lat="47.33543" lon="2.82048">
        <ele>191.75</ele>
        <time>2017-10-01T08:19:02Z</time>
      </trkpt>
      <trkpt lat="47.33537" lon="2.82073">
        <ele>192.66</ele>
        <time>2017-10-01T08:19:17Z</time>
      </trkpt>
      <trkpt lat="47.33537" lon="2.82102">
        <ele>192.56</ele>
        <time>2017-10-01T08:19:28Z</time>
      </trkpt>
      <trkpt lat="47.33529" lon="2.82128">
        <ele>191.95</ele>
        <time>2017-10-01T08:19:39Z</time>
      </trkpt>
      <trkpt lat="47.33519" lon="2.82151">
        <ele>192.19</ele>
        <time>2017-10-01T08:19:52Z</time>
      </trkpt>
      <trkpt lat="47.33509" lon="2.82174">
        <ele>193.76</ele>
        <time>2017-10-01T08:20:06Z</time>
      </trkpt>
      <trkpt lat="47.33491" lon="2.82177">
        <ele>194.83</ele>
        <time>2017-10-01T08:20:28Z</time>
      </trkpt>
      <trkpt lat="47.33477" lon="2.8216">
        <ele>196.49</ele>
        <time>2017-10-01T08:20:46Z</time>
      </trkpt>
      <trkpt lat="47.33464" lon="2.8214">
        <ele>197.06</ele>
        <time>2017-10-01T08:21:00Z</time>
      </trkpt>
      <trkpt lat="47.33452" lon="2.82119">
        <ele>198.8</ele>
        <time>2017-10-01T08:21:18Z</time>
      </trkpt>
      <trkpt lat="47.33438" lon="2.82099">
        <ele>202.14</ele>
        <time>2017-10-01T08:21:33Z</time>
      </trkpt>
      <trkpt lat="47.33426" lon="2.82078">
        <ele>204.14</ele>
        <time>2017-10-01T08:21:47Z</time>
      </trkpt>
      <trkpt lat="47.33419" lon="2.82053">
        <ele>207.44</ele>
        <time>2017-10-01T08:22:09Z</time>
      </trkpt>
      <trkpt lat="47.33418" lon="2.82026">
        <ele>208.87</ele>
        <time>2017-10-01T08:22:24Z</time>
      </trkpt>
      <trkpt lat="47.33407" lon="2.82004">
        <ele>209.79</ele>
        <time>2017-10-01T08:22:38Z</time>
      </trkpt>
      <trkpt lat="47.33394" lon="2.8198">
        <ele>211.63</ele>
        <time>2017-10-01T08:22:57Z</time>
      </trkpt>
      <trkpt lat="47.33385" lon="2.81956">
        <ele>214.59</ele>
        <time>2017-10-01T08:23:18Z</time>
      </trkpt>
      <trkpt lat="47.33379" lon="2.81931">
        <ele>214.89</ele>
        <time>2017-10-01T08:23:34Z</time>
      </trkpt>
      <trkpt lat="47.33369" lon="2.81906">
        <ele>215.25</ele>
        <time>2017-10-01T08:23:50Z</time>
      </trkpt>
      <trkpt lat="47.33359" lon="2.81884">
        <ele>216.49</ele>
        <time>2017-10-01T08:24:02Z</time>
      </trkpt>
      <trkpt lat="47.33349" lon="2.81859">
        <ele>218.18</ele>
        <time>2017-10-01T08:24:15Z</time>
      </trkpt>
      <trkpt lat="47.33341" lon="2.81836">
        <ele>220.43</ele>
        <time>2017-10-01T08:24:27Z</time>
      </trkpt>
      <trkpt lat="47.33327" lon="2.81815">
        <ele>222.21</ele>
        <time>2017-10-01T08:24:40Z</time>
      </trkpt>
      <trkpt lat="47.33316" lon="2.81793">
        <ele>224.06</ele>
        <time>2017-10-01T08:24:52Z</time>
      </trkpt>
      <trkpt lat="47.33304" lon="2.81772">
        <ele>227.25</ele>
        <time>2017-10-01T08:25:08Z</time>
      </trkpt>
      <trkpt lat="47.33293" lon="2.8175">
        <ele>228.73</ele>
        <time>2017-10-01T08:25:22Z</time>
      </trkpt>
      <trkpt lat="47.33282" lon="2.81725">
        <ele>231.83</ele>
        <time>2017-10-01T08:25:37Z</time>
      </trkpt>
      <trkpt lat="47.33268" lon="2.81708">
        <ele>234.67</ele>
        <time>2017-10-01T08:25:50Z</time>
      </trkpt>
      <trkpt lat="47.33253" lon="2.81691">
        <ele>236.48</ele>
        <time>2017-10-01T08:26:00Z</time>
      </trkpt>
      <trkpt lat="47.33238" lon="2.81674">
        <ele>239.23</ele>
        <time>2017-10-01T08:26:12Z</time>
      </trkpt>
      <trkpt lat="47.33225" lon="2.81653">
        <ele>241.53</ele>
        <time>2017-10-01T08:26:25Z</time>
      </trkpt>
      <trkpt lat="47.33213" lon="2.81633">
        <ele>243.05</ele>
        <time>2017-10-01T08:26:37Z</time>
      </trkpt>
      <trkpt lat="47.33199" lon="2.81616">
        <ele>244.01</ele>
        <time>2017-10-01T08:26:51Z</time>
      </trkpt>
      <trkpt lat="47.33187" lon="2.81596">
        <ele>244.78</ele>
        <time>2017-10-01T08:27:07Z</time>
      </trkpt>
      <trkpt lat="47.33171" lon="2.81579">
        <ele>246.42</ele>
        <time>2017-10-01T08:27:21Z</time>
      </trkpt>
      <trkpt lat="47.33157" lon="2.81561">
        <ele>246.79</ele>
        <time>2017-10-01T08:27:34Z</time>
      </trkpt>
      <trkpt lat="47.33145" lon="2.81539">
        <ele>247.29</ele>
        <time>2017-10-01T08:27:49Z</time>
      </trkpt>
      <trkpt lat="47.33132" lon="2.81519">
        <ele>248.49</ele>
        <time>2017-10-01T08:27:59Z</time>
      </trkpt>
      <trkpt lat="47.33119" lon="2.81498">
        <ele>248.48</ele>
        <time>2017-10-01T08:28:16Z</time>
      </trkpt>
      <trkpt lat="47.33108" lon="2.81477">
        <ele>248.27</ele>
        <time>2017-10-01T08:28:38Z</time>
      </trkpt>
      <trkpt lat="47.33096" lon="2.81456">
        <ele>250.42</ele>
        <time>2017-10-01T08:29:00Z</time>
      </trkpt>
      <trkpt lat="47.33083" lon="2.81437">
        <ele>251.9</ele>
        <time>2017-10-01T08:29:14Z</time>
      </trkpt>
      <trkpt lat="47.3307" lon="2.81419">
        <ele>253.4</ele>
        <time>2017-10-01T08:29:29Z</time>
      </trkpt>
      <trkpt lat="47.33058" lon="2.81397">
        <ele>254.22</ele>
        <time>2017-10-01T08:29:44Z</time>
      </trkpt>
      <trkpt lat="47.33045" lon="2.81375">
        <ele>254.52</ele>
        <time>2017-10-01T08:30:00Z</time>
      </trkpt>
      <trkpt lat="47.33034" lon="2.81351">
        <ele>252.95</ele>
        <time>2017-10-01T08:30:12Z</time>
      </trkpt>
      <trkpt lat="47.33025" lon="2.81327">
        <ele>252.03</ele>
        <time>2017-10-01T08:30:24Z</time>
      </trkpt>
      <trkpt lat="47.33015" lon="2.81303">
        <ele>252.47</ele>
        <time>2017-10-01T08:30:35Z</time>
      </trkpt>
      <trkpt lat="47.33005" lon="2.81278">
        <ele>253.78</ele>
        <time>2017-10-01T08:30:48Z</time>
      </trkpt>
      <trkpt lat="47.32997" lon="2.81254">
        <ele>254.86</ele>
        <time>2017-10-01T08:31:00Z</time>
      </trkpt>
      <trkpt lat="47.32986" lon="2.81231">
        <ele>255.97</ele>
        <time>2017-10-01T08:31:11Z</time>
      </trkpt>
      <trkpt lat="47.32976" lon="2.81208">
        <ele>256.36</ele>
        <time>2017-10-01T08:31:24Z</time>
      </trkpt>
      <trkpt lat="47.32967" lon="2.81184">
        <ele>255.63</ele>
        <time>2017-10-01T08:31:36Z</time>
      </trkpt>
      <trkpt lat="47.32958" lon="2.81158">
        <ele>254.15</ele>
        <time>2017-10-01T08:31:48Z</time>
      </trkpt>
      <trkpt lat="47.32951" lon="2.81131">
        <ele>253.2</ele>
        <time>2017-10-01T08:32:01Z</time>
      </trkpt>
      <trkpt lat="47.32943" lon="2.81107">
        <ele>253</ele>
        <time>2017-10-01T08:32:13Z</time>
      </trkpt>
      <trkpt lat="47.32934" lon="2.8108">
        <ele>252.47</ele>
        <time>2017-10-01T08:32:24Z</time>
      </trkpt>
      <trkpt lat="47.32926" lon="2.81055">
        <ele>251.7</ele>
        <time>2017-10-01T08:32:37Z</time>
      </trkpt>
      <trkpt lat="47.32918" lon="2.8103">
        <ele>251.73</ele>
        <time>2017-10-01T08:32:52Z</time>
      </trkpt>
      <trkpt lat="47.32914" lon="2.81003">
        <ele>252.16</ele>
        <time>2017-10-01T08:33:06Z</time>
      </trkpt>
      <trkpt lat="47.32909" lon="2.80977">
        <ele>252.42</ele>
        <time>2017-10-01T08:33:20Z</time>
      </trkpt>
      <trkpt lat="47.32901" lon="2.80951">
        <ele>253.26</ele>
        <time>2017-10-01T08:33:33Z</time>
      </trkpt>
      <trkpt lat="47.32892" lon="2.80925">
        <ele>252.5</ele>
        <time>2017-10-01T08:33:44Z</time>
      </trkpt>
      <trkpt lat="47.32883" lon="2.80901">
        <ele>252.35</ele>
        <time>2017-10-01T08:33:55Z</time>
      </trkpt>
      <trkpt lat="47.32873" lon="2.80878">
        <ele>251.73</ele>
        <time>2017-10-01T08:34:06Z</time>
      </trkpt>
      <trkpt lat="47.32864" lon="2.80853">
        <ele>251.93</ele>
        <time>2017-10-01T08:34:19Z</time>
      </trkpt>
      <trkpt lat="47.32855" lon="2.8083">
        <ele>252.3</ele>
        <time>2017-10-01T08:34:31Z</time>
      </trkpt>
      <trkpt lat="47.32843" lon="2.80807">
        <ele>252.43</ele>
        <time>2017-10-01T08:34:42Z</time>
      </trkpt>
      <trkpt lat="47.32832" lon="2.80783">
        <ele>253.1</ele>
        <time>2017-10-01T08:34:53Z</time>
      </trkpt>
      <trkpt lat="47.32822" lon="2.80758">
        <ele>253.87</ele>
        <time>2017-10-01T08:35:04Z</time>
      </trkpt>
      <trkpt lat="47.32811" lon="2.80734">
        <ele>254.89</ele>
        <time>2017-10-01T08:35:16Z</time>
      </trkpt>
      <trkpt lat="47.32801" lon="2.80711">
        <ele>255.52</ele>
        <time>2017-10-01T08:35:29Z</time>
      </trkpt>
      <trkpt lat="47.3279" lon="2.80687">
        <ele>256.76</ele>
        <time>2017-10-01T08:35:44Z</time>
      </trkpt>
      <trkpt lat="47.32779" lon="2.80665">
        <ele>257.88</ele>
        <time>2017-10-01T08:35:56Z</time>
      </trkpt>
      <trkpt lat="47.32768" lon="2.80642">
        <ele>258.92</ele>
        <time>2017-10-01T08:36:09Z</time>
      </trkpt>
      <trkpt lat="47.32758" lon="2.80619">
        <ele>259.25</ele>
        <time>2017-10-01T08:36:22Z</time>
      </trkpt>
      <trkpt lat="47.32751" lon="2.80594">
        <ele>258.08</ele>
        <time>2017-10-01T08:36:38Z</time>
      </trkpt>
      <trkpt lat="47.32747" lon="2.80567">
        <ele>256.24</ele>
        <time>2017-10-01T08:36:51Z</time>
      </trkpt>
      <trkpt lat="47.32741" lon="2.8054">
        <ele>255.49</ele>
        <time>2017-10-01T08:37:02Z</time>
      </trkpt>
      <trkpt lat="47.32733" lon="2.80515">
        <ele>254.75</ele>
        <time>2017-10-01T08:37:13Z</time>
      </trkpt>
      <trkpt lat="47.32722" lon="2.80491">
        <ele>254.96</ele>
        <time>2017-10-01T08:37:23Z</time>
      </trkpt>
      <trkpt lat="47.32711" lon="2.8047">
        <ele>255.49</ele>
        <time>2017-10-01T08:37:33Z</time>
      </trkpt>
      <trkpt lat="47.32697" lon="2.80444">
        <ele>256.87</ele>
        <time>2017-10-01T08:37:48Z</time>
      </trkpt>
      <trkpt lat="47.32687" lon="2.80422">
        <ele>257.55</ele>
        <time>2017-10-01T08:38:00Z</time>
      </trkpt>
      <trkpt lat="47.32674" lon="2.80401">
        <ele>258.44</ele>
        <time>2017-10-01T08:38:12Z</time>
      </trkpt>
      <trkpt lat="47.32661" lon="2.80381">
        <ele>259.87</ele>
        <time>2017-10-01T08:38:24Z</time>
      </trkpt>
      <trkpt lat="47.32648" lon="2.8036">
        <ele>261</ele>
        <time>2017-10-01T08:38:37Z</time>
      </trkpt>
      <trkpt lat="47.32637" lon="2.80337">
        <ele>262.52</ele>
        <time>2017-10-01T08:38:50Z</time>
      </trkpt>
      <trkpt lat="47.32629" lon="2.80312">
        <ele>262.69</ele>
        <time>2017-10-01T08:39:06Z</time>
      </trkpt>
      <trkpt lat="47.32618" lon="2.8029">
        <ele>261.6</ele>
        <time>2017-10-01T08:39:19Z</time>
      </trkpt>
      <trkpt lat="47.32614" lon="2.80262">
        <ele>260.64</ele>
        <time>2017-10-01T08:39:33Z</time>
      </trkpt>
      <trkpt lat="47.3261" lon="2.80235">
        <ele>261.13</ele>
        <time>2017-10-01T08:39:43Z</time>
      </trkpt>
      <trkpt lat="47.3261" lon="2.80207">
        <ele>261.54</ele>
        <time>2017-10-01T08:39:53Z</time>
      </trkpt>
      <trkpt lat="47.32602" lon="2.80182">
        <ele>262.42</ele>
        <time>2017-10-01T08:40:06Z</time>
      </trkpt>
      <trkpt lat="47.32593" lon="2.80158">
        <ele>262.28</ele>
        <time>2017-10-01T08:40:17Z</time>
      </trkpt>
      <trkpt lat="47.32583" lon="2.80134">
        <ele>261.51</ele>
        <time>2017-10-01T08:40:27Z</time>
      </trkpt>
      <trkpt lat="47.32575" lon="2.80111">
        <ele>260.83</ele>
        <time>2017-10-01T08:40:38Z</time>
      </trkpt>
      <trkpt lat="47.32569" lon="2.80084">
        <ele>261.28</ele>
        <time>2017-10-01T08:40:51Z</time>
      </trkpt>
      <trkpt lat="47.32566" lon="2.80056">
        <ele>261.75</ele>
        <time>2017-10-01T08:41:04Z</time>
      </trkpt>
      <trkpt lat="47.32564" lon="2.80029">
        <ele>262.45</ele>
        <time>2017-10-01T08:41:18Z</time>
      </trkpt>
      <trkpt lat="47.32565" lon="2.80002">
        <ele>261.71</ele>
        <time>2017-10-01T08:41:30Z</time>
      </trkpt>
      <trkpt lat="47.32564" lon="2.79975">
        <ele>261.24</ele>
        <time>2017-10-01T08:41:42Z</time>
      </trkpt>
      <trkpt lat="47.32565" lon="2.79946">
        <ele>261.72</ele>
        <time>2017-10-01T08:41:52Z</time>
      </trkpt>
      <trkpt lat="47.32582" lon="2.79936">
        <ele>261.51</ele>
        <time>2017-10-01T08:42:01Z</time>
      </trkpt>
      <trkpt lat="47.32599" lon="2.79925">
        <ele>261.09</ele>
        <time>2017-10-01T08:42:15Z</time>
      </trkpt>
      <trkpt lat="47.32616" lon="2.79916">
        <ele>262.56</ele>
        <time>2017-10-01T08:42:28Z</time>
      </trkpt>
      <trkpt lat="47.32633" lon="2.79904">
        <ele>263.37</ele>
        <time>2017-10-01T08:42:39Z</time>
      </trkpt>
      <trkpt lat="47.32637" lon="2.79877">
        <ele>260.3</ele>
        <time>2017-10-01T08:42:55Z</time>
      </trkpt>
      <trkpt lat="47.32645" lon="2.79851">
        <ele>258.36</ele>
        <time>2017-10-01T08:43:07Z</time>
      </trkpt>
      <trkpt lat="47.32663" lon="2.79844">
        <ele>256.76</ele>
        <time>2017-10-01T08:43:20Z</time>
      </trkpt>
      <trkpt lat="47.32681" lon="2.79836">
        <ele>255.75</ele>
        <time>2017-10-01T08:43:32Z</time>
      </trkpt>
      <trkpt lat="47.32698" lon="2.79826">
        <ele>255.51</ele>
        <time>2017-10-01T08:43:42Z</time>
      </trkpt>
      <trkpt lat="47.32715" lon="2.79815">
        <ele>254.49</ele>
        <time>2017-10-01T08:43:57Z</time>
      </trkpt>
      <trkpt lat="47.32732" lon="2.798">
        <ele>253.13</ele>
        <time>2017-10-01T08:44:08Z</time>
      </trkpt>
      <trkpt lat="47.32748" lon="2.7979">
        <ele>251.16</ele>
        <time>2017-10-01T08:44:29Z</time>
      </trkpt>
      <trkpt lat="47.32761" lon="2.79769">
        <ele>251.83</ele>
        <time>2017-10-01T08:44:43Z</time>
      </trkpt>
      <trkpt lat="47.32774" lon="2.79749">
        <ele>252.37</ele>
        <time>2017-10-01T08:45:01Z</time>
      </trkpt>
      <trkpt lat="47.32789" lon="2.79736">
        <ele>255.37</ele>
        <time>2017-10-01T08:45:24Z</time>
      </trkpt>
      <trkpt lat="47.32805" lon="2.79751">
        <ele>259.06</ele>
        <time>2017-10-01T08:45:55Z</time>
      </trkpt>
      <trkpt lat="47.32819" lon="2.79766">
        <ele>260.29</ele>
        <time>2017-10-01T08:46:12Z</time>
      </trkpt>
      <trkpt lat="47.32834" lon="2.79783">
        <ele>261.55</ele>
        <time>2017-10-01T08:46:26Z</time>
      </trkpt>
      <trkpt lat="47.32849" lon="2.79802">
        <ele>262.8</ele>
        <time>2017-10-01T08:46:55Z</time>
      </trkpt>
      <trkpt lat="47.32864" lon="2.7982">
        <ele>262.19</ele>
        <time>2017-10-01T08:47:07Z</time>
      </trkpt>
      <trkpt lat="47.32878" lon="2.7984">
        <ele>262.93</ele>
        <time>2017-10-01T08:47:26Z</time>
      </trkpt>
      <trkpt lat="47.32893" lon="2.79856">
        <ele>263</ele>
        <time>2017-10-01T08:47:37Z</time>
      </trkpt>
      <trkpt lat="47.32911" lon="2.79862">
        <ele>262.2</ele>
        <time>2017-10-01T08:47:50Z</time>
      </trkpt>
      <trkpt lat="47.3293" lon="2.79861">
        <ele>261.3</ele>
        <time>2017-10-01T08:48:04Z</time>
      </trkpt>
      <trkpt lat="47.32948" lon="2.79867">
        <ele>259.3</ele>
        <time>2017-10-01T08:48:18Z</time>
      </trkpt>
      <trkpt lat="47.32966" lon="2.79872">
        <ele>257.41</ele>
        <time>2017-10-01T08:48:29Z</time>
      </trkpt>
      <trkpt lat="47.32985" lon="2.79879">
        <ele>256.09</ele>
        <time>2017-10-01T08:48:42Z</time>
      </trkpt>
      <trkpt lat="47.33003" lon="2.79881">
        <ele>256.1</ele>
        <time>2017-10-01T08:48:57Z</time>
      </trkpt>
      <trkpt lat="47.3302" lon="2.79866">
        <ele>254.9</ele>
        <time>2017-10-01T08:49:11Z</time>
      </trkpt>
      <trkpt lat="47.33039" lon="2.79868">
        <ele>254.99</ele>
        <time>2017-10-01T08:49:25Z</time>
      </trkpt>
      <trkpt lat="47.33057" lon="2.79873">
        <ele>255.6</ele>
        <time>2017-10-01T08:49:36Z</time>
      </trkpt>
      <trkpt lat="47.33076" lon="2.79874">
        <ele>255.98</ele>
        <time>2017-10-01T08:49:48Z</time>
      </trkpt>
      <trkpt lat="47.33094" lon="2.79876">
        <ele>255.97</ele>
        <time>2017-10-01T08:49:59Z</time>
      </trkpt>
      <trkpt lat="47.33112" lon="2.79881">
        <ele>256.67</ele>
        <time>2017-10-01T08:50:13Z</time>
      </trkpt>
      <trkpt lat="47.33131" lon="2.79881">
        <ele>255.68</ele>
        <time>2017-10-01T08:50:26Z</time>
      </trkpt>
      <trkpt lat="47.33149" lon="2.79878">
        <ele>255.55</ele>
        <time>2017-10-01T08:50:40Z</time>
      </trkpt>
      <trkpt lat="47.33168" lon="2.79881">
        <ele>256.59</ele>
        <time>2017-10-01T08:50:52Z</time>
      </trkpt>
      <trkpt lat="47.33186" lon="2.79891">
        <ele>256.38</ele>
        <time>2017-10-01T08:51:05Z</time>
      </trkpt>
      <trkpt lat="47.33202" lon="2.79906">
        <ele>256.09</ele>
        <time>2017-10-01T08:51:17Z</time>
      </trkpt>
      <trkpt lat="47.33217" lon="2.79922">
        <ele>256.17</ele>
        <time>2017-10-01T08:51:30Z</time>
      </trkpt>
      <trkpt lat="47.33229" lon="2.79942">
        <ele>257.11</ele>
        <time>2017-10-01T08:51:42Z</time>
      </trkpt>
      <trkpt lat="47.33242" lon="2.79963">
        <ele>257.98</ele>
        <time>2017-10-01T08:51:55Z</time>
      </trkpt>
      <trkpt lat="47.33256" lon="2.79982">
        <ele>258.75</ele>
        <time>2017-10-01T08:52:08Z</time>
      </trkpt>
      <trkpt lat="47.33274" lon="2.79986">
        <ele>258.71</ele>
        <time>2017-10-01T08:52:21Z</time>
      </trkpt>
      <trkpt lat="47.33293" lon="2.7999">
        <ele>257.93</ele>
        <time>2017-10-01T08:52:35Z</time>
      </trkpt>
      <trkpt lat="47.33311" lon="2.79993">
        <ele>257.58</ele>
        <time>2017-10-01T08:52:51Z</time>
      </trkpt>
      <trkpt lat="47.33329" lon="2.79992">
        <ele>257.63</ele>
        <time>2017-10-01T08:53:04Z</time>
      </trkpt>
      <trkpt lat="47.33348" lon="2.79993">
        <ele>257.56</ele>
        <time>2017-10-01T08:53:15Z</time>
      </trkpt>
      <trkpt lat="47.33367" lon="2.79996">
        <ele>257.6</ele>
        <time>2017-10-01T08:53:26Z</time>
      </trkpt>
      <trkpt lat="47.33384" lon="2.8001">
        <ele>257.98</ele>
        <time>2017-10-01T08:53:37Z</time>
      </trkpt>
      <trkpt lat="47.33398" lon="2.80029">
        <ele>257.7</ele>
        <time>2017-10-01T08:53:49Z</time>
      </trkpt>
      <trkpt lat="47.33414" lon="2.80016">
        <ele>257.84</ele>
        <time>2017-10-01T08:54:15Z</time>
      </trkpt>
      <trkpt lat="47.33423" lon="2.79992">
        <ele>257.06</ele>
        <time>2017-10-01T08:54:28Z</time>
      </trkpt>
      <trkpt lat="47.33431" lon="2.79967">
        <ele>256.19</ele>
        <time>2017-10-01T08:54:41Z</time>
      </trkpt>
      <trkpt lat="47.33435" lon="2.79941">
        <ele>255.45</ele>
        <time>2017-10-01T08:54:53Z</time>
      </trkpt>
      <trkpt lat="47.33435" lon="2.79913">
        <ele>253.61</ele>
        <time>2017-10-01T08:55:05Z</time>
      </trkpt>
      <trkpt lat="47.33431" lon="2.79886">
        <ele>252.15</ele>
        <time>2017-10-01T08:55:17Z</time>
      </trkpt>
      <trkpt lat="47.33429" lon="2.79859">
        <ele>250.11</ele>
        <time>2017-10-01T08:55:31Z</time>
      </trkpt>
      <trkpt lat="47.33423" lon="2.79833">
        <ele>248.13</ele>
        <time>2017-10-01T08:55:45Z</time>
      </trkpt>
      <trkpt lat="47.33417" lon="2.79805">
        <ele>247.31</ele>
        <time>2017-10-01T08:55:59Z</time>
      </trkpt>
      <trkpt lat="47.33413" lon="2.79779">
        <ele>246.52</ele>
        <time>2017-10-01T08:56:11Z</time>
      </trkpt>
      <trkpt lat="47.33408" lon="2.79751">
        <ele>246.05</ele>
        <time>2017-10-01T08:56:26Z</time>
      </trkpt>
      <trkpt lat="47.33404" lon="2.79724">
        <ele>245.39</ele>
        <time>2017-10-01T08:56:39Z</time>
      </trkpt>
      <trkpt lat="47.33405" lon="2.79697">
        <ele>245.27</ele>
        <time>2017-10-01T08:56:52Z</time>
      </trkpt>
      <trkpt lat="47.33405" lon="2.79669">
        <ele>245.46</ele>
        <time>2017-10-01T08:57:06Z</time>
      </trkpt>
      <trkpt lat="47.33406" lon="2.7964">
        <ele>245.52</ele>
        <time>2017-10-01T08:57:19Z</time>
      </trkpt>
      <trkpt lat="47.33405" lon="2.79613">
        <ele>245.35</ele>
        <time>2017-10-01T08:57:31Z</time>
      </trkpt>
      <trkpt lat="47.33408" lon="2.79587">
        <ele>245.8</ele>
        <time>2017-10-01T08:57:43Z</time>
      </trkpt>
      <trkpt lat="47.33409" lon="2.79559">
        <ele>246.22</ele>
        <time>2017-10-01T08:57:57Z</time>
      </trkpt>
      <trkpt lat="47.33411" lon="2.79531">
        <ele>245.45</ele>
        <time>2017-10-01T08:58:11Z</time>
      </trkpt>
      <trkpt lat="47.33409" lon="2.79503">
        <ele>244.68</ele>
        <time>2017-10-01T08:58:23Z</time>
      </trkpt>
      <trkpt lat="47.33408" lon="2.79474">
        <ele>243.21</ele>
        <time>2017-10-01T08:58:35Z</time>
      </trkpt>
      <trkpt lat="47.33406" lon="2.79447">
        <ele>241.33</ele>
        <time>2017-10-01T08:58:48Z</time>
      </trkpt>
      <trkpt lat="47.33405" lon="2.79419">
        <ele>241.15</ele>
        <time>2017-10-01T08:59:01Z</time>
      </trkpt>
      <trkpt lat="47.33402" lon="2.79392">
        <ele>240.73</ele>
        <time>2017-10-01T08:59:14Z</time>
      </trkpt>
      <trkpt lat="47.33398" lon="2.79364">
        <ele>240.26</ele>
        <time>2017-10-01T08:59:28Z</time>
      </trkpt>
      <trkpt lat="47.33395" lon="2.79336">
        <ele>240.06</ele>
        <time>2017-10-01T08:59:41Z</time>
      </trkpt>
      <trkpt lat="47.3339" lon="2.79309">
        <ele>239.59</ele>
        <time>2017-10-01T08:59:53Z</time>
      </trkpt>
      <trkpt lat="47.33388" lon="2.79281">
        <ele>239.43</ele>
        <time>2017-10-01T09:00:05Z</time>
      </trkpt>
      <trkpt lat="47.33384" lon="2.79254">
        <ele>239.9</ele>
        <time>2017-10-01T09:00:18Z</time>
      </trkpt>
      <trkpt lat="47.33375" lon="2.79229">
        <ele>239.51</ele>
        <time>2017-10-01T09:00:32Z</time>
      </trkpt>
      <trkpt lat="47.33368" lon="2.79205">
        <ele>239.85</ele>
        <time>2017-10-01T09:00:45Z</time>
      </trkpt>
      <trkpt lat="47.33361" lon="2.79179">
        <ele>240.89</ele>
        <time>2017-10-01T09:00:58Z</time>
      </trkpt>
      <trkpt lat="47.33352" lon="2.79155">
        <ele>241.85</ele>
        <time>2017-10-01T09:01:13Z</time>
      </trkpt>
      <trkpt lat="47.33344" lon="2.79129">
        <ele>242.74</ele>
        <time>2017-10-01T09:01:23Z</time>
      </trkpt>
      <trkpt lat="47.33339" lon="2.79103">
        <ele>244.08</ele>
        <time>2017-10-01T09:01:35Z</time>
      </trkpt>
      <trkpt lat="47.33326" lon="2.79078">
        <ele>244.79</ele>
        <time>2017-10-01T09:01:47Z</time>
      </trkpt>
      <trkpt lat="47.33317" lon="2.79053">
        <ele>247.44</ele>
        <time>2017-10-01T09:02:00Z</time>
      </trkpt>
      <trkpt lat="47.33304" lon="2.79031">
        <ele>248.78</ele>
        <time>2017-10-01T09:02:13Z</time>
      </trkpt>
      <trkpt lat="47.33295" lon="2.79006">
        <ele>251.55</ele>
        <time>2017-10-01T09:02:24Z</time>
      </trkpt>
      <trkpt lat="47.33291" lon="2.7898">
        <ele>252.63</ele>
        <time>2017-10-01T09:02:38Z</time>
      </trkpt>
      <trkpt lat="47.33288" lon="2.78953">
        <ele>254.37</ele>
        <time>2017-10-01T09:02:50Z</time>
      </trkpt>
      <trkpt lat="47.33294" lon="2.78927">
        <ele>256.28</ele>
        <time>2017-10-01T09:03:03Z</time>
      </trkpt>
      <trkpt lat="47.33312" lon="2.78921">
        <ele>256.82</ele>
        <time>2017-10-01T09:03:14Z</time>
      </trkpt>
      <trkpt lat="47.33328" lon="2.78907">
        <ele>256.69</ele>
        <time>2017-10-01T09:03:28Z</time>
      </trkpt>
      <trkpt lat="47.33344" lon="2.78895">
        <ele>257.25</ele>
        <time>2017-10-01T09:03:41Z</time>
      </trkpt>
      <trkpt lat="47.33361" lon="2.7888">
        <ele>256.59</ele>
        <time>2017-10-01T09:03:54Z</time>
      </trkpt>
      <trkpt lat="47.33361" lon="2.78853">
        <ele>251.66</ele>
        <time>2017-10-01T09:04:20Z</time>
      </trkpt>
      <trkpt lat="47.33351" lon="2.7882">
        <ele>251.41</ele>
        <time>2017-10-01T09:04:32Z</time>
      </trkpt>
      <trkpt lat="47.33341" lon="2.78794">
        <ele>254.97</ele>
        <time>2017-10-01T09:04:48Z</time>
      </trkpt>
      <trkpt lat="47.33337" lon="2.78768">
        <ele>256.81</ele>
        <time>2017-10-01T09:04:59Z</time>
      </trkpt>
      <trkpt lat="47.3333" lon="2.78739">
        <ele>257.48</ele>
        <time>2017-10-01T09:05:25Z</time>
      </trkpt>
      <trkpt lat="47.33318" lon="2.78714">
        <ele>257.25</ele>
        <time>2017-10-01T09:05:38Z</time>
      </trkpt>
      <trkpt lat="47.33305" lon="2.78694">
        <ele>258.6</ele>
        <time>2017-10-01T09:05:48Z</time>
      </trkpt>
      <trkpt lat="47.33296" lon="2.78671">
        <ele>259.46</ele>
        <time>2017-10-01T09:05:58Z</time>
      </trkpt>
      <trkpt lat="47.33285" lon="2.78648">
        <ele>260.93</ele>
        <time>2017-10-01T09:06:15Z</time>
      </trkpt>
      <trkpt lat="47.33282" lon="2.78622">
        <ele>265.62</ele>
        <time>2017-10-01T09:06:35Z</time>
      </trkpt>
      <trkpt lat="47.33284" lon="2.78595">
        <ele>270.52</ele>
        <time>2017-10-01T09:06:53Z</time>
      </trkpt>
      <trkpt lat="47.33284" lon="2.78568">
        <ele>274.84</ele>
        <time>2017-10-01T09:07:06Z</time>
      </trkpt>
      <trkpt lat="47.33283" lon="2.78542">
        <ele>281.55</ele>
        <time>2017-10-01T09:07:22Z</time>
      </trkpt>
      <trkpt lat="47.33287" lon="2.78515">
        <ele>285.45</ele>
        <time>2017-10-01T09:07:41Z</time>
      </trkpt>
      <trkpt lat="47.33291" lon="2.78488">
        <ele>286.27</ele>
        <time>2017-10-01T09:07:57Z</time>
      </trkpt>
      <trkpt lat="47.3331" lon="2.78489">
        <ele>291.62</ele>
        <time>2017-10-01T09:09:46Z</time>
      </trkpt>
      <trkpt lat="47.33328" lon="2.78492">
        <ele>297.67</ele>
        <time>2017-10-01T09:10:00Z</time>
      </trkpt>
      <trkpt lat="47.33345" lon="2.78509">
        <ele>301.95</ele>
        <time>2017-10-01T09:10:22Z</time>
      </trkpt>
      <trkpt lat="47.33362" lon="2.78518">
        <ele>305.37</ele>
        <time>2017-10-01T09:10:40Z</time>
      </trkpt>
      <trkpt lat="47.33376" lon="2.78537">
        <ele>310.24</ele>
        <time>2017-10-01T09:11:06Z</time>
      </trkpt>
      <trkpt lat="47.33387" lon="2.78559">
        <ele>313.02</ele>
        <time>2017-10-01T09:11:22Z</time>
      </trkpt>
      <trkpt lat="47.33395" lon="2.78583">
        <ele>316.04</ele>
        <time>2017-10-01T09:11:40Z</time>
      </trkpt>
      <trkpt lat="47.33402" lon="2.78612">
        <ele>317.61</ele>
        <time>2017-10-01T09:11:53Z</time>
      </trkpt>
      <trkpt lat="47.3341" lon="2.78636">
        <ele>316.87</ele>
        <time>2017-10-01T09:12:06Z</time>
      </trkpt>
      <trkpt lat="47.33422" lon="2.78656">
        <ele>319</ele>
        <time>2017-10-01T09:12:22Z</time>
      </trkpt>
      <trkpt lat="47.33434" lon="2.78678">
        <ele>320.74</ele>
        <time>2017-10-01T09:12:34Z</time>
      </trkpt>
      <trkpt lat="47.33446" lon="2.78698">
        <ele>321.62</ele>
        <time>2017-10-01T09:12:48Z</time>
      </trkpt>
      <trkpt lat="47.33458" lon="2.78718">
        <ele>321.35</ele>
        <time>2017-10-01T09:13:03Z</time>
      </trkpt>
      <trkpt lat="47.33469" lon="2.7874">
        <ele>320.22</ele>
        <time>2017-10-01T09:13:16Z</time>
      </trkpt>
      <trkpt lat="47.33483" lon="2.78757">
        <ele>319.63</ele>
        <time>2017-10-01T09:13:31Z</time>
      </trkpt>
      <trkpt lat="47.33495" lon="2.7878">
        <ele>317.49</ele>
        <time>2017-10-01T09:13:46Z</time>
      </trkpt>
      <trkpt lat="47.33506" lon="2.78804">
        <ele>316.09</ele>
        <time>2017-10-01T09:13:59Z</time>
      </trkpt>
      <trkpt lat="47.33519" lon="2.78824">
        <ele>313.48</ele>
        <time>2017-10-01T09:14:14Z</time>
      </trkpt>
      <trkpt lat="47.33537" lon="2.78836">
        <ele>314.09</ele>
        <time>2017-10-01T09:14:29Z</time>
      </trkpt>
      <trkpt lat="47.33545" lon="2.7886">
        <ele>311.75</ele>
        <time>2017-10-01T09:14:41Z</time>
      </trkpt>
      <trkpt lat="47.33553" lon="2.78884">
        <ele>309.44</ele>
        <time>2017-10-01T09:14:52Z</time>
      </trkpt>
      <trkpt lat="47.3356" lon="2.78912">
        <ele>307.94</ele>
        <time>2017-10-01T09:15:03Z</time>
      </trkpt>
      <trkpt lat="47.33576" lon="2.78928">
        <ele>306.7</ele>
        <time>2017-10-01T09:15:27Z</time>
      </trkpt>
      <trkpt lat="47.33592" lon="2.78942">
        <ele>306.2</ele>
        <time>2017-10-01T09:15:38Z</time>
      </trkpt>
      <trkpt lat="47.33609" lon="2.78954">
        <ele>305.85</ele>
        <time>2017-10-01T09:15:53Z</time>
      </trkpt>
      <trkpt lat="47.33619" lon="2.78977">
        <ele>305.23</ele>
        <time>2017-10-01T09:16:05Z</time>
      </trkpt>
      <trkpt lat="47.33629" lon="2.78998">
        <ele>304.53</ele>
        <time>2017-10-01T09:16:15Z</time>
      </trkpt>
      <trkpt lat="47.33633" lon="2.79025">
        <ele>305.91</ele>
        <time>2017-10-01T09:16:27Z</time>
      </trkpt>
      <trkpt lat="47.33649" lon="2.79039">
        <ele>308.22</ele>
        <time>2017-10-01T09:16:42Z</time>
      </trkpt>
      <trkpt lat="47.33661" lon="2.7906">
        <ele>309.39</ele>
        <time>2017-10-01T09:16:57Z</time>
      </trkpt>
      <trkpt lat="47.33675" lon="2.79077">
        <ele>308.64</ele>
        <time>2017-10-01T09:17:09Z</time>
      </trkpt>
      <trkpt lat="47.33687" lon="2.79097">
        <ele>308.92</ele>
        <time>2017-10-01T09:17:22Z</time>
      </trkpt>
      <trkpt lat="47.33697" lon="2.79121">
        <ele>309.91</ele>
        <time>2017-10-01T09:17:38Z</time>
      </trkpt>
      <trkpt lat="47.33709" lon="2.79143">
        <ele>311.12</ele>
        <time>2017-10-01T09:17:50Z</time>
      </trkpt>
      <trkpt lat="47.3372" lon="2.79165">
        <ele>311.01</ele>
        <time>2017-10-01T09:18:03Z</time>
      </trkpt>
      <trkpt lat="47.33734" lon="2.79183">
        <ele>311.36</ele>
        <time>2017-10-01T09:18:16Z</time>
      </trkpt>
      <trkpt lat="47.3375" lon="2.79197">
        <ele>311.84</ele>
        <time>2017-10-01T09:18:27Z</time>
      </trkpt>
      <trkpt lat="47.33769" lon="2.79203">
        <ele>308.62</ele>
        <time>2017-10-01T09:18:49Z</time>
      </trkpt>
      <trkpt lat="47.33784" lon="2.79185">
        <ele>305.95</ele>
        <time>2017-10-01T09:19:03Z</time>
      </trkpt>
      <trkpt lat="47.33799" lon="2.79171">
        <ele>303.07</ele>
        <time>2017-10-01T09:19:16Z</time>
      </trkpt>
      <trkpt lat="47.33811" lon="2.79151">
        <ele>301.53</ele>
        <time>2017-10-01T09:19:25Z</time>
      </trkpt>
      <trkpt lat="47.33824" lon="2.79131">
        <ele>300.75</ele>
        <time>2017-10-01T09:19:36Z</time>
      </trkpt>
      <trkpt lat="47.33838" lon="2.79113">
        <ele>299.83</ele>
        <time>2017-10-01T09:19:48Z</time>
      </trkpt>
      <trkpt lat="47.33848" lon="2.7909">
        <ele>299.75</ele>
        <time>2017-10-01T09:19:57Z</time>
      </trkpt>
      <trkpt lat="47.33856" lon="2.79066">
        <ele>301.14</ele>
        <time>2017-10-01T09:20:08Z</time>
      </trkpt>
      <trkpt lat="47.33868" lon="2.79045">
        <ele>303.97</ele>
        <time>2017-10-01T09:20:21Z</time>
      </trkpt>
      <trkpt lat="47.33885" lon="2.79032">
        <ele>305.44</ele>
        <time>2017-10-01T09:20:35Z</time>
      </trkpt>
      <trkpt lat="47.339" lon="2.79016">
        <ele>304.9</ele>
        <time>2017-10-01T09:20:47Z</time>
      </trkpt>
      <trkpt lat="47.33913" lon="2.78998">
        <ele>304.2</ele>
        <time>2017-10-01T09:20:58Z</time>
      </trkpt>
      <trkpt lat="47.33925" lon="2.78977">
        <ele>301.1</ele>
        <time>2017-10-01T09:21:12Z</time>
      </trkpt>
      <trkpt lat="47.33936" lon="2.78954">
        <ele>298.76</ele>
        <time>2017-10-01T09:21:25Z</time>
      </trkpt>
      <trkpt lat="47.33947" lon="2.78931">
        <ele>297.16</ele>
        <time>2017-10-01T09:21:38Z</time>
      </trkpt>
      <trkpt lat="47.33952" lon="2.78905">
        <ele>295.5</ele>
        <time>2017-10-01T09:21:52Z</time>
      </trkpt>
      <trkpt lat="47.33956" lon="2.78878">
        <ele>294.37</ele>
        <time>2017-10-01T09:22:07Z</time>
      </trkpt>
      <trkpt lat="47.33961" lon="2.78853">
        <ele>293.65</ele>
        <time>2017-10-01T09:22:22Z</time>
      </trkpt>
      <trkpt lat="47.33962" lon="2.78824">
        <ele>292.44</ele>
        <time>2017-10-01T09:22:34Z</time>
      </trkpt>
      <trkpt lat="47.33975" lon="2.78804">
        <ele>292.99</ele>
        <time>2017-10-01T09:22:48Z</time>
      </trkpt>
      <trkpt lat="47.33986" lon="2.78782">
        <ele>296.59</ele>
        <time>2017-10-01T09:23:05Z</time>
      </trkpt>
      <trkpt lat="47.34001" lon="2.78766">
        <ele>298.8</ele>
        <time>2017-10-01T09:23:20Z</time>
      </trkpt>
      <trkpt lat="47.3402" lon="2.78761">
        <ele>300.89</ele>
        <time>2017-10-01T09:23:43Z</time>
      </trkpt>
      <trkpt lat="47.34038" lon="2.78759">
        <ele>302.21</ele>
        <time>2017-10-01T09:23:59Z</time>
      </trkpt>
      <trkpt lat="47.34056" lon="2.78767">
        <ele>304.84</ele>
        <time>2017-10-01T09:24:17Z</time>
      </trkpt>
      <trkpt lat="47.34074" lon="2.78774">
        <ele>306.89</ele>
        <time>2017-10-01T09:24:36Z</time>
      </trkpt>
      <trkpt lat="47.34088" lon="2.78791">
        <ele>308.39</ele>
        <time>2017-10-01T09:24:53Z</time>
      </trkpt>
      <trkpt lat="47.34102" lon="2.78809">
        <ele>311.81</ele>
        <time>2017-10-01T09:25:13Z</time>
      </trkpt>
      <trkpt lat="47.34118" lon="2.78822">
        <ele>317.25</ele>
        <time>2017-10-01T09:25:33Z</time>
      </trkpt>
      <trkpt lat="47.34128" lon="2.78799">
        <ele>321.51</ele>
        <time>2017-10-01T09:25:53Z</time>
      </trkpt>
      <trkpt lat="47.34122" lon="2.78774">
        <ele>325.98</ele>
        <time>2017-10-01T09:26:10Z</time>
      </trkpt>
      <trkpt lat="47.34114" lon="2.78748">
        <ele>327.73</ele>
        <time>2017-10-01T09:26:30Z</time>
      </trkpt>
      <trkpt lat="47.34114" lon="2.7872">
        <ele>327.84</ele>
        <time>2017-10-01T09:26:46Z</time>
      </trkpt>
      <trkpt lat="47.34132" lon="2.78709">
        <ele>329.26</ele>
        <time>2017-10-01T09:27:17Z</time>
      </trkpt>
      <trkpt lat="47.34149" lon="2.78719">
        <ele>331.18</ele>
        <time>2017-10-01T09:27:31Z</time>
      </trkpt>
      <trkpt lat="47.34166" lon="2.78731">
        <ele>331.81</ele>
        <time>2017-10-01T09:27:43Z</time>
      </trkpt>
      <trkpt lat="47.34182" lon="2.78744">
        <ele>332.65</ele>
        <time>2017-10-01T09:27:56Z</time>
      </trkpt>
      <trkpt lat="47.342" lon="2.78754">
        <ele>333.1</ele>
        <time>2017-10-01T09:28:08Z</time>
      </trkpt>
      <trkpt lat="47.34217" lon="2.78764">
        <ele>333.26</ele>
        <time>2017-10-01T09:28:21Z</time>
      </trkpt>
      <trkpt lat="47.34232" lon="2.78777">
        <ele>333.77</ele>
        <time>2017-10-01T09:28:33Z</time>
      </trkpt>
      <trkpt lat="47.3425" lon="2.78788">
        <ele>334.03</ele>
        <time>2017-10-01T09:28:46Z</time>
      </trkpt>
      <trkpt lat="47.34267" lon="2.78799">
        <ele>334.35</ele>
        <time>2017-10-01T09:28:58Z</time>
      </trkpt>
      <trkpt lat="47.34284" lon="2.78811">
        <ele>334.72</ele>
        <time>2017-10-01T09:29:11Z</time>
      </trkpt>
      <trkpt lat="47.34302" lon="2.7882">
        <ele>335.04</ele>
        <time>2017-10-01T09:29:25Z</time>
      </trkpt>
      <trkpt lat="47.34321" lon="2.78825">
        <ele>336.07</ele>
        <time>2017-10-01T09:29:35Z</time>
      </trkpt>
      <trkpt lat="47.34339" lon="2.78828">
        <ele>337.17</ele>
        <time>2017-10-01T09:29:47Z</time>
      </trkpt>
      <trkpt lat="47.34357" lon="2.78835">
        <ele>337.58</ele>
        <time>2017-10-01T09:30:01Z</time>
      </trkpt>
      <trkpt lat="47.34376" lon="2.78838">
        <ele>338</ele>
        <time>2017-10-01T09:30:13Z</time>
      </trkpt>
      <trkpt lat="47.34395" lon="2.78845">
        <ele>337.52</ele>
        <time>2017-10-01T09:30:27Z</time>
      </trkpt>
      <trkpt lat="47.34413" lon="2.7885">
        <ele>336.97</ele>
        <time>2017-10-01T09:30:40Z</time>
      </trkpt>
      <trkpt lat="47.34431" lon="2.78855">
        <ele>336.05</ele>
        <time>2017-10-01T09:30:54Z</time>
      </trkpt>
      <trkpt lat="47.34449" lon="2.78863">
        <ele>335.34</ele>
        <time>2017-10-01T09:31:05Z</time>
      </trkpt>
      <trkpt lat="47.34466" lon="2.78872">
        <ele>334.17</ele>
        <time>2017-10-01T09:31:18Z</time>
      </trkpt>
      <trkpt lat="47.34483" lon="2.78885">
        <ele>333.3</ele>
        <time>2017-10-01T09:31:31Z</time>
      </trkpt>
      <trkpt lat="47.345" lon="2.78898">
        <ele>332.51</ele>
        <time>2017-10-01T09:31:43Z</time>
      </trkpt>
      <trkpt lat="47.34517" lon="2.78911">
        <ele>331.32</ele>
        <time>2017-10-01T09:31:58Z</time>
      </trkpt>
      <trkpt lat="47.34534" lon="2.78924">
        <ele>330.9</ele>
        <time>2017-10-01T09:32:09Z</time>
      </trkpt>
      <trkpt lat="47.3455" lon="2.78938">
        <ele>330.45</ele>
        <time>2017-10-01T09:32:21Z</time>
      </trkpt>
      <trkpt lat="47.34567" lon="2.78951">
        <ele>329.02</ele>
        <time>2017-10-01T09:32:35Z</time>
      </trkpt>
      <trkpt lat="47.34583" lon="2.78966">
        <ele>327.66</ele>
        <time>2017-10-01T09:32:48Z</time>
      </trkpt>
      <trkpt lat="47.346" lon="2.78976">
        <ele>326.99</ele>
        <time>2017-10-01T09:33:02Z</time>
      </trkpt>
      <trkpt lat="47.34604" lon="2.78949">
        <ele>326.18</ele>
        <time>2017-10-01T09:33:21Z</time>
      </trkpt>
      <trkpt lat="47.34602" lon="2.78921">
        <ele>324.86</ele>
        <time>2017-10-01T09:33:36Z</time>
      </trkpt>
      <trkpt lat="47.34601" lon="2.78894">
        <ele>324.09</ele>
        <time>2017-10-01T09:33:51Z</time>
      </trkpt>
      <trkpt lat="47.34604" lon="2.78866">
        <ele>324.47</ele>
        <time>2017-10-01T09:34:07Z</time>
      </trkpt>
      <trkpt lat="47.34607" lon="2.78839">
        <ele>324.31</ele>
        <time>2017-10-01T09:34:19Z</time>
      </trkpt>
      <trkpt lat="47.34606" lon="2.78812">
        <ele>323.58</ele>
        <time>2017-10-01T09:34:30Z</time>
      </trkpt>
      <trkpt lat="47.34604" lon="2.78785">
        <ele>324.04</ele>
        <time>2017-10-01T09:34:44Z</time>
      </trkpt>
      <trkpt lat="47.34602" lon="2.78757">
        <ele>324.95</ele>
        <time>2017-10-01T09:34:58Z</time>
      </trkpt>
      <trkpt lat="47.34601" lon="2.78729">
        <ele>325.41</ele>
        <time>2017-10-01T09:35:12Z</time>
      </trkpt>
      <trkpt lat="47.34598" lon="2.78702">
        <ele>325.67</ele>
        <time>2017-10-01T09:35:24Z</time>
      </trkpt>
      <trkpt lat="47.34595" lon="2.78673">
        <ele>326.54</ele>
        <time>2017-10-01T09:35:37Z</time>
      </trkpt>
      <trkpt lat="47.34592" lon="2.78646">
        <ele>326.79</ele>
        <time>2017-10-01T09:35:50Z</time>
      </trkpt>
      <trkpt lat="47.34591" lon="2.78617">
        <ele>326.47</ele>
        <time>2017-10-01T09:36:02Z</time>
      </trkpt>
      <trkpt lat="47.34591" lon="2.78591">
        <ele>326.62</ele>
        <time>2017-10-01T09:36:16Z</time>
      </trkpt>
      <trkpt lat="47.34589" lon="2.78562">
        <ele>326.9</ele>
        <time>2017-10-01T09:36:28Z</time>
      </trkpt>
      <trkpt lat="47.34588" lon="2.78534">
        <ele>327.55</ele>
        <time>2017-10-01T09:36:42Z</time>
      </trkpt>
      <trkpt lat="47.34587" lon="2.78506">
        <ele>326.86</ele>
        <time>2017-10-01T09:36:53Z</time>
      </trkpt>
      <trkpt lat="47.34585" lon="2.78479">
        <ele>325.84</ele>
        <time>2017-10-01T09:37:04Z</time>
      </trkpt>
      <trkpt lat="47.34584" lon="2.78452">
        <ele>324.48</ele>
        <time>2017-10-01T09:37:15Z</time>
      </trkpt>
      <trkpt lat="47.34583" lon="2.78425">
        <ele>323.86</ele>
        <time>2017-10-01T09:37:29Z</time>
      </trkpt>
      <trkpt lat="47.34582" lon="2.78397">
        <ele>321.66</ele>
        <time>2017-10-01T09:37:43Z</time>
      </trkpt>
      <trkpt lat="47.34582" lon="2.7837">
        <ele>319.72</ele>
        <time>2017-10-01T09:37:56Z</time>
      </trkpt>
      <trkpt lat="47.34581" lon="2.78343">
        <ele>317.54</ele>
        <time>2017-10-01T09:38:09Z</time>
      </trkpt>
      <trkpt lat="47.3458" lon="2.78316">
        <ele>316.12</ele>
        <time>2017-10-01T09:38:21Z</time>
      </trkpt>
      <trkpt lat="47.34576" lon="2.78288">
        <ele>314.38</ele>
        <time>2017-10-01T09:38:34Z</time>
      </trkpt>
      <trkpt lat="47.34576" lon="2.78261">
        <ele>312.45</ele>
        <time>2017-10-01T09:38:44Z</time>
      </trkpt>
      <trkpt lat="47.34561" lon="2.78245">
        <ele>307.95</ele>
        <time>2017-10-01T09:39:04Z</time>
      </trkpt>
      <trkpt lat="47.34541" lon="2.78241">
        <ele>305.67</ele>
        <time>2017-10-01T09:39:16Z</time>
      </trkpt>
      <trkpt lat="47.34523" lon="2.78232">
        <ele>304.72</ele>
        <time>2017-10-01T09:39:26Z</time>
      </trkpt>
      <trkpt lat="47.34505" lon="2.78225">
        <ele>304.03</ele>
        <time>2017-10-01T09:39:36Z</time>
      </trkpt>
      <trkpt lat="47.34488" lon="2.78216">
        <ele>304.88</ele>
        <time>2017-10-01T09:39:47Z</time>
      </trkpt>
      <trkpt lat="47.3447" lon="2.78208">
        <ele>305.81</ele>
        <time>2017-10-01T09:40:00Z</time>
      </trkpt>
      <trkpt lat="47.34455" lon="2.78194">
        <ele>306.12</ele>
        <time>2017-10-01T09:40:15Z</time>
      </trkpt>
      <trkpt lat="47.34438" lon="2.78182">
        <ele>306.23</ele>
        <time>2017-10-01T09:40:27Z</time>
      </trkpt>
      <trkpt lat="47.34421" lon="2.78166">
        <ele>306.42</ele>
        <time>2017-10-01T09:40:41Z</time>
      </trkpt>
      <trkpt lat="47.34403" lon="2.78154">
        <ele>306.92</ele>
        <time>2017-10-01T09:40:55Z</time>
      </trkpt>
      <trkpt lat="47.34388" lon="2.78138">
        <ele>308.14</ele>
        <time>2017-10-01T09:41:09Z</time>
      </trkpt>
      <trkpt lat="47.34372" lon="2.78122">
        <ele>309.54</ele>
        <time>2017-10-01T09:41:25Z</time>
      </trkpt>
      <trkpt lat="47.34357" lon="2.78108">
        <ele>309.96</ele>
        <time>2017-10-01T09:41:39Z</time>
      </trkpt>
      <trkpt lat="47.34343" lon="2.78088">
        <ele>309.72</ele>
        <time>2017-10-01T09:41:51Z</time>
      </trkpt>
      <trkpt lat="47.34326" lon="2.78077">
        <ele>310.62</ele>
        <time>2017-10-01T09:42:08Z</time>
      </trkpt>
      <trkpt lat="47.34311" lon="2.7806">
        <ele>308.31</ele>
        <time>2017-10-01T09:42:23Z</time>
      </trkpt>
      <trkpt lat="47.34297" lon="2.78043">
        <ele>308.39</ele>
        <time>2017-10-01T09:42:40Z</time>
      </trkpt>
      <trkpt lat="47.3429" lon="2.78019">
        <ele>310.4</ele>
        <time>2017-10-01T09:42:55Z</time>
      </trkpt>
      <trkpt lat="47.34294" lon="2.77991">
        <ele>314.72</ele>
        <time>2017-10-01T09:43:09Z</time>
      </trkpt>
      <trkpt lat="47.34302" lon="2.77964">
        <ele>317.71</ele>
        <time>2017-10-01T09:43:23Z</time>
      </trkpt>
      <trkpt lat="47.34309" lon="2.7794">
        <ele>319.46</ele>
        <time>2017-10-01T09:43:34Z</time>
      </trkpt>
      <trkpt lat="47.34315" lon="2.77914">
        <ele>322.12</ele>
        <time>2017-10-01T09:43:48Z</time>
      </trkpt>
      <trkpt lat="47.34323" lon="2.77889">
        <ele>324.31</ele>
        <time>2017-10-01T09:44:01Z</time>
      </trkpt>
      <trkpt lat="47.34332" lon="2.77865">
        <ele>325.49</ele>
        <time>2017-10-01T09:44:15Z</time>
      </trkpt>
      <trkpt lat="47.34339" lon="2.7784">
        <ele>325.88</ele>
        <time>2017-10-01T09:44:29Z</time>
      </trkpt>
      <trkpt lat="47.34347" lon="2.77815">
        <ele>325.4</ele>
        <time>2017-10-01T09:44:42Z</time>
      </trkpt>
      <trkpt lat="47.34351" lon="2.77788">
        <ele>325.72</ele>
        <time>2017-10-01T09:44:54Z</time>
      </trkpt>
      <trkpt lat="47.34359" lon="2.77764">
        <ele>325.75</ele>
        <time>2017-10-01T09:45:05Z</time>
      </trkpt>
      <trkpt lat="47.34371" lon="2.77741">
        <ele>323.47</ele>
        <time>2017-10-01T09:45:22Z</time>
      </trkpt>
      <trkpt lat="47.34379" lon="2.77716">
        <ele>321.56</ele>
        <time>2017-10-01T09:45:37Z</time>
      </trkpt>
      <trkpt lat="47.34385" lon="2.77691">
        <ele>320.04</ele>
        <time>2017-10-01T09:45:52Z</time>
      </trkpt>
      <trkpt lat="47.34386" lon="2.77664">
        <ele>325.68</ele>
        <time>2017-10-01T09:47:43Z</time>
      </trkpt>
      <trkpt lat="47.34394" lon="2.77639">
        <ele>331.97</ele>
        <time>2017-10-01T09:50:40Z</time>
      </trkpt>
      <trkpt lat="47.34405" lon="2.77617">
        <ele>331.54</ele>
        <time>2017-10-01T09:50:55Z</time>
      </trkpt>
      <trkpt lat="47.34416" lon="2.77596">
        <ele>330.52</ele>
        <time>2017-10-01T09:51:10Z</time>
      </trkpt>
      <trkpt lat="47.34433" lon="2.77576">
        <ele>328.27</ele>
        <time>2017-10-01T09:51:25Z</time>
      </trkpt>
      <trkpt lat="47.34451" lon="2.7756">
        <ele>326.15</ele>
        <time>2017-10-01T09:51:39Z</time>
      </trkpt>
      <trkpt lat="47.34467" lon="2.77545">
        <ele>325.44</ele>
        <time>2017-10-01T09:51:59Z</time>
      </trkpt>
      <trkpt lat="47.34484" lon="2.77534">
        <ele>324.87</ele>
        <time>2017-10-01T09:52:08Z</time>
      </trkpt>
      <trkpt lat="47.345" lon="2.77515">
        <ele>325.43</ele>
        <time>2017-10-01T09:52:24Z</time>
      </trkpt>
      <trkpt lat="47.34514" lon="2.77498">
        <ele>325.78</ele>
        <time>2017-10-01T09:52:34Z</time>
      </trkpt>
      <trkpt lat="47.34531" lon="2.77488">
        <ele>326.57</ele>
        <time>2017-10-01T09:52:46Z</time>
      </trkpt>
      <trkpt lat="47.34545" lon="2.77471">
        <ele>327.06</ele>
        <time>2017-10-01T09:52:58Z</time>
      </trkpt>
      <trkpt lat="47.34561" lon="2.77458">
        <ele>327.18</ele>
        <time>2017-10-01T09:53:12Z</time>
      </trkpt>
      <trkpt lat="47.34577" lon="2.77445">
        <ele>326.87</ele>
        <time>2017-10-01T09:53:23Z</time>
      </trkpt>
      <trkpt lat="47.34595" lon="2.77431">
        <ele>327.56</ele>
        <time>2017-10-01T09:53:33Z</time>
      </trkpt>
      <trkpt lat="47.34606" lon="2.7741">
        <ele>327.32</ele>
        <time>2017-10-01T09:53:44Z</time>
      </trkpt>
      <trkpt lat="47.34622" lon="2.77397">
        <ele>327.92</ele>
        <time>2017-10-01T09:54:35Z</time>
      </trkpt>
      <trkpt lat="47.34637" lon="2.77381">
        <ele>328.9</ele>
        <time>2017-10-01T09:54:50Z</time>
      </trkpt>
      <trkpt lat="47.34651" lon="2.77364">
        <ele>328.79</ele>
        <time>2017-10-01T09:55:04Z</time>
      </trkpt>
      <trkpt lat="47.3466" lon="2.7734">
        <ele>328.8</ele>
        <time>2017-10-01T09:55:17Z</time>
      </trkpt>
      <trkpt lat="47.34675" lon="2.77319">
        <ele>329.27</ele>
        <time>2017-10-01T09:55:28Z</time>
      </trkpt>
      <trkpt lat="47.34689" lon="2.77301">
        <ele>328.51</ele>
        <time>2017-10-01T09:55:41Z</time>
      </trkpt>
      <trkpt lat="47.347" lon="2.77277">
        <ele>328.3</ele>
        <time>2017-10-01T09:55:53Z</time>
      </trkpt>
      <trkpt lat="47.34714" lon="2.77257">
        <ele>329.48</ele>
        <time>2017-10-01T09:56:04Z</time>
      </trkpt>
      <trkpt lat="47.34726" lon="2.77235">
        <ele>329.3</ele>
        <time>2017-10-01T09:56:19Z</time>
      </trkpt>
      <trkpt lat="47.34741" lon="2.77217">
        <ele>329.67</ele>
        <time>2017-10-01T09:56:31Z</time>
      </trkpt>
      <trkpt lat="47.34758" lon="2.77204">
        <ele>329.13</ele>
        <time>2017-10-01T09:56:41Z</time>
      </trkpt>
      <trkpt lat="47.34773" lon="2.77186">
        <ele>328.29</ele>
        <time>2017-10-01T09:56:52Z</time>
      </trkpt>
      <trkpt lat="47.34786" lon="2.77168">
        <ele>327.49</ele>
        <time>2017-10-01T09:57:05Z</time>
      </trkpt>
      <trkpt lat="47.34802" lon="2.77152">
        <ele>327.14</ele>
        <time>2017-10-01T09:57:18Z</time>
      </trkpt>
      <trkpt lat="47.34815" lon="2.77132">
        <ele>326.68</ele>
        <time>2017-10-01T09:57:30Z</time>
      </trkpt>
      <trkpt lat="47.3483" lon="2.77113">
        <ele>325.47</ele>
        <time>2017-10-01T09:57:44Z</time>
      </trkpt>
      <trkpt lat="47.34844" lon="2.77093">
        <ele>324.11</ele>
        <time>2017-10-01T09:57:58Z</time>
      </trkpt>
      <trkpt lat="47.34858" lon="2.77074">
        <ele>322.74</ele>
        <time>2017-10-01T09:58:10Z</time>
      </trkpt>
      <trkpt lat="47.34874" lon="2.77059">
        <ele>321.96</ele>
        <time>2017-10-01T09:58:24Z</time>
      </trkpt>
      <trkpt lat="47.34889" lon="2.77041">
        <ele>321.66</ele>
        <time>2017-10-01T09:58:35Z</time>
      </trkpt>
      <trkpt lat="47.34902" lon="2.77022">
        <ele>321.2</ele>
        <time>2017-10-01T09:58:47Z</time>
      </trkpt>
      <trkpt lat="47.34916" lon="2.77003">
        <ele>320.44</ele>
        <time>2017-10-01T09:58:58Z</time>
      </trkpt>
      <trkpt lat="47.34932" lon="2.76984">
        <ele>320.81</ele>
        <time>2017-10-01T09:59:11Z</time>
      </trkpt>
      <trkpt lat="47.34945" lon="2.76964">
        <ele>320.92</ele>
        <time>2017-10-01T09:59:24Z</time>
      </trkpt>
      <trkpt lat="47.3496" lon="2.76946">
        <ele>320.03</ele>
        <time>2017-10-01T09:59:38Z</time>
      </trkpt>
      <trkpt lat="47.34976" lon="2.76929">
        <ele>319.61</ele>
        <time>2017-10-01T09:59:50Z</time>
      </trkpt>
      <trkpt lat="47.34991" lon="2.76911">
        <ele>318.53</ele>
        <time>2017-10-01T10:00:02Z</time>
      </trkpt>
      <trkpt lat="47.35007" lon="2.76894">
        <ele>316.57</ele>
        <time>2017-10-01T10:00:15Z</time>
      </trkpt>
      <trkpt lat="47.35023" lon="2.76879">
        <ele>315.65</ele>
        <time>2017-10-01T10:00:27Z</time>
      </trkpt>
      <trkpt lat="47.3504" lon="2.76863">
        <ele>316.22</ele>
        <time>2017-10-01T10:00:38Z</time>
      </trkpt>
      <trkpt lat="47.35055" lon="2.76848">
        <ele>316.23</ele>
        <time>2017-10-01T10:00:50Z</time>
      </trkpt>
      <trkpt lat="47.3507" lon="2.76833">
        <ele>316.88</ele>
        <time>2017-10-01T10:01:02Z</time>
      </trkpt>
      <trkpt lat="47.35087" lon="2.76818">
        <ele>316.61</ele>
        <time>2017-10-01T10:01:16Z</time>
      </trkpt>
      <trkpt lat="47.35101" lon="2.76802">
        <ele>315.51</ele>
        <time>2017-10-01T10:01:27Z</time>
      </trkpt>
      <trkpt lat="47.35116" lon="2.76786">
        <ele>314.48</ele>
        <time>2017-10-01T10:01:39Z</time>
      </trkpt>
      <trkpt lat="47.3513" lon="2.76769">
        <ele>314.23</ele>
        <time>2017-10-01T10:01:52Z</time>
      </trkpt>
      <trkpt lat="47.35142" lon="2.76747">
        <ele>313.42</ele>
        <time>2017-10-01T10:02:04Z</time>
      </trkpt>
      <trkpt lat="47.35154" lon="2.76728">
        <ele>313.43</ele>
        <time>2017-10-01T10:02:14Z</time>
      </trkpt>
      <trkpt lat="47.35168" lon="2.76709">
        <ele>313.49</ele>
        <time>2017-10-01T10:02:26Z</time>
      </trkpt>
      <trkpt lat="47.35181" lon="2.76689">
        <ele>313.52</ele>
        <time>2017-10-01T10:02:37Z</time>
      </trkpt>
      <trkpt lat="47.35195" lon="2.76669">
        <ele>313.33</ele>
        <time>2017-10-01T10:02:49Z</time>
      </trkpt>
      <trkpt lat="47.35209" lon="2.76649">
        <ele>313.82</ele>
        <time>2017-10-01T10:03:00Z</time>
      </trkpt>
      <trkpt lat="47.35224" lon="2.76632">
        <ele>313.17</ele>
        <time>2017-10-01T10:03:12Z</time>
      </trkpt>
      <trkpt lat="47.35236" lon="2.7661">
        <ele>312.59</ele>
        <time>2017-10-01T10:03:25Z</time>
      </trkpt>
      <trkpt lat="47.3525" lon="2.76592">
        <ele>313.13</ele>
        <time>2017-10-01T10:03:37Z</time>
      </trkpt>
      <trkpt lat="47.35264" lon="2.76574">
        <ele>313.84</ele>
        <time>2017-10-01T10:03:48Z</time>
      </trkpt>
      <trkpt lat="47.35277" lon="2.76555">
        <ele>313.82</ele>
        <time>2017-10-01T10:03:59Z</time>
      </trkpt>
      <trkpt lat="47.3529" lon="2.76533">
        <ele>314.06</ele>
        <time>2017-10-01T10:04:12Z</time>
      </trkpt>
      <trkpt lat="47.35304" lon="2.76513">
        <ele>314.01</ele>
        <time>2017-10-01T10:04:25Z</time>
      </trkpt>
      <trkpt lat="47.35318" lon="2.76492">
        <ele>313.66</ele>
        <time>2017-10-01T10:04:39Z</time>
      </trkpt>
      <trkpt lat="47.3533" lon="2.76472">
        <ele>313.42</ele>
        <time>2017-10-01T10:04:51Z</time>
      </trkpt>
      <trkpt lat="47.35345" lon="2.76455">
        <ele>313.38</ele>
        <time>2017-10-01T10:05:03Z</time>
      </trkpt>
      <trkpt lat="47.35358" lon="2.76434">
        <ele>313.49</ele>
        <time>2017-10-01T10:05:16Z</time>
      </trkpt>
      <trkpt lat="47.3537" lon="2.76412">
        <ele>313.1</ele>
        <time>2017-10-01T10:05:31Z</time>
      </trkpt>
      <trkpt lat="47.35383" lon="2.76394">
        <ele>312.43</ele>
        <time>2017-10-01T10:05:43Z</time>
      </trkpt>
      <trkpt lat="47.35398" lon="2.76376">
        <ele>311.45</ele>
        <time>2017-10-01T10:05:57Z</time>
      </trkpt>
      <trkpt lat="47.35416" lon="2.7636">
        <ele>311.24</ele>
        <time>2017-10-01T10:06:09Z</time>
      </trkpt>
      <trkpt lat="47.35432" lon="2.76346">
        <ele>310.92</ele>
        <time>2017-10-01T10:06:19Z</time>
      </trkpt>
      <trkpt lat="47.35445" lon="2.76325">
        <ele>310.23</ele>
        <time>2017-10-01T10:06:31Z</time>
      </trkpt>
      <trkpt lat="47.35452" lon="2.76299">
        <ele>309.14</ele>
        <time>2017-10-01T10:06:44Z</time>
      </trkpt>
      <trkpt lat="47.35461" lon="2.76275">
        <ele>308.86</ele>
        <time>2017-10-01T10:06:58Z</time>
      </trkpt>
      <trkpt lat="47.35471" lon="2.76252">
        <ele>308.12</ele>
        <time>2017-10-01T10:07:08Z</time>
      </trkpt>
      <trkpt lat="47.35483" lon="2.76231">
        <ele>308.21</ele>
        <time>2017-10-01T10:07:20Z</time>
      </trkpt>
      <trkpt lat="47.35494" lon="2.76209">
        <ele>307.99</ele>
        <time>2017-10-01T10:07:31Z</time>
      </trkpt>
      <trkpt lat="47.35503" lon="2.76186">
        <ele>308.16</ele>
        <time>2017-10-01T10:07:43Z</time>
      </trkpt>
      <trkpt lat="47.35514" lon="2.76162">
        <ele>307.95</ele>
        <time>2017-10-01T10:07:58Z</time>
      </trkpt>
      <trkpt lat="47.35523" lon="2.76136">
        <ele>306.8</ele>
        <time>2017-10-01T10:08:10Z</time>
      </trkpt>
      <trkpt lat="47.35536" lon="2.76116">
        <ele>306.51</ele>
        <time>2017-10-01T10:08:21Z</time>
      </trkpt>
      <trkpt lat="47.35546" lon="2.76094">
        <ele>306.11</ele>
        <time>2017-10-01T10:08:33Z</time>
      </trkpt>
      <trkpt lat="47.35557" lon="2.7607">
        <ele>305.67</ele>
        <time>2017-10-01T10:08:44Z</time>
      </trkpt>
      <trkpt lat="47.35569" lon="2.76047">
        <ele>304.64</ele>
        <time>2017-10-01T10:08:55Z</time>
      </trkpt>
      <trkpt lat="47.3558" lon="2.76026">
        <ele>304.96</ele>
        <time>2017-10-01T10:09:07Z</time>
      </trkpt>
      <trkpt lat="47.35593" lon="2.76005">
        <ele>304.63</ele>
        <time>2017-10-01T10:09:19Z</time>
      </trkpt>
      <trkpt lat="47.35603" lon="2.75981">
        <ele>303.29</ele>
        <time>2017-10-01T10:09:32Z</time>
      </trkpt>
      <trkpt lat="47.35614" lon="2.75959">
        <ele>304.08</ele>
        <time>2017-10-01T10:09:45Z</time>
      </trkpt>
      <trkpt lat="47.35625" lon="2.75937">
        <ele>304.79</ele>
        <time>2017-10-01T10:09:56Z</time>
      </trkpt>
      <trkpt lat="47.35643" lon="2.75932">
        <ele>305.8</ele>
        <time>2017-10-01T10:10:08Z</time>
      </trkpt>
      <trkpt lat="47.35662" lon="2.75938">
        <ele>306.94</ele>
        <time>2017-10-01T10:10:21Z</time>
      </trkpt>
      <trkpt lat="47.3568" lon="2.75946">
        <ele>307.64</ele>
        <time>2017-10-01T10:10:33Z</time>
      </trkpt>
      <trkpt lat="47.35698" lon="2.75952">
        <ele>308.01</ele>
        <time>2017-10-01T10:10:45Z</time>
      </trkpt>
      <trkpt lat="47.35717" lon="2.75958">
        <ele>307.9</ele>
        <time>2017-10-01T10:11:01Z</time>
      </trkpt>
      <trkpt lat="47.35735" lon="2.75965">
        <ele>307.52</ele>
        <time>2017-10-01T10:11:15Z</time>
      </trkpt>
      <trkpt lat="47.35753" lon="2.75973">
        <ele>307.83</ele>
        <time>2017-10-01T10:11:27Z</time>
      </trkpt>
      <trkpt lat="47.35771" lon="2.75981">
        <ele>308.01</ele>
        <time>2017-10-01T10:11:41Z</time>
      </trkpt>
      <trkpt lat="47.35789" lon="2.7599">
        <ele>307.98</ele>
        <time>2017-10-01T10:11:55Z</time>
      </trkpt>
      <trkpt lat="47.35806" lon="2.75999">
        <ele>307.77</ele>
        <time>2017-10-01T10:12:05Z</time>
      </trkpt>
      <trkpt lat="47.35825" lon="2.76006">
        <ele>307.17</ele>
        <time>2017-10-01T10:12:16Z</time>
      </trkpt>
      <trkpt lat="47.35843" lon="2.7601">
        <ele>307.59</ele>
        <time>2017-10-01T10:12:28Z</time>
      </trkpt>
      <trkpt lat="47.35862" lon="2.76016">
        <ele>307.99</ele>
        <time>2017-10-01T10:12:40Z</time>
      </trkpt>
      <trkpt lat="47.35881" lon="2.76018">
        <ele>308.65</ele>
        <time>2017-10-01T10:12:53Z</time>
      </trkpt>
      <trkpt lat="47.35899" lon="2.76017">
        <ele>310.01</ele>
        <time>2017-10-01T10:13:05Z</time>
      </trkpt>
      <trkpt lat="47.35917" lon="2.76015">
        <ele>310.32</ele>
        <time>2017-10-01T10:13:18Z</time>
      </trkpt>
      <trkpt lat="47.35936" lon="2.76011">
        <ele>310.7</ele>
        <time>2017-10-01T10:13:30Z</time>
      </trkpt>
      <trkpt lat="47.35955" lon="2.76016">
        <ele>310.2</ele>
        <time>2017-10-01T10:13:46Z</time>
      </trkpt>
      <trkpt lat="47.35974" lon="2.7602">
        <ele>308.94</ele>
        <time>2017-10-01T10:13:59Z</time>
      </trkpt>
      <trkpt lat="47.35993" lon="2.76022">
        <ele>307.51</ele>
        <time>2017-10-01T10:14:13Z</time>
      </trkpt>
      <trkpt lat="47.36011" lon="2.76023">
        <ele>306.16</ele>
        <time>2017-10-01T10:14:26Z</time>
      </trkpt>
      <trkpt lat="47.36029" lon="2.76025">
        <ele>304.92</ele>
        <time>2017-10-01T10:14:39Z</time>
      </trkpt>
      <trkpt lat="47.36048" lon="2.76028">
        <ele>304.56</ele>
        <time>2017-10-01T10:14:53Z</time>
      </trkpt>
      <trkpt lat="47.36066" lon="2.76031">
        <ele>303.24</ele>
        <time>2017-10-01T10:15:04Z</time>
      </trkpt>
      <trkpt lat="47.36085" lon="2.76034">
        <ele>301.68</ele>
        <time>2017-10-01T10:15:14Z</time>
      </trkpt>
      <trkpt lat="47.36103" lon="2.76036">
        <ele>299.91</ele>
        <time>2017-10-01T10:15:26Z</time>
      </trkpt>
      <trkpt lat="47.36122" lon="2.76039">
        <ele>298.36</ele>
        <time>2017-10-01T10:15:39Z</time>
      </trkpt>
      <trkpt lat="47.36141" lon="2.76043">
        <ele>296.65</ele>
        <time>2017-10-01T10:15:49Z</time>
      </trkpt>
      <trkpt lat="47.36159" lon="2.76045">
        <ele>295.48</ele>
        <time>2017-10-01T10:16:00Z</time>
      </trkpt>
      <trkpt lat="47.36178" lon="2.76044">
        <ele>295.38</ele>
        <time>2017-10-01T10:16:12Z</time>
      </trkpt>
      <trkpt lat="47.36196" lon="2.76047">
        <ele>295.2</ele>
        <time>2017-10-01T10:16:20Z</time>
      </trkpt>
      <trkpt lat="47.36216" lon="2.76048">
        <ele>294.48</ele>
        <time>2017-10-01T10:16:34Z</time>
      </trkpt>
      <trkpt lat="47.36234" lon="2.76049">
        <ele>293.27</ele>
        <time>2017-10-01T10:16:46Z</time>
      </trkpt>
      <trkpt lat="47.36252" lon="2.76052">
        <ele>293.52</ele>
        <time>2017-10-01T10:16:56Z</time>
      </trkpt>
      <trkpt lat="47.3627" lon="2.76059">
        <ele>292.72</ele>
        <time>2017-10-01T10:17:12Z</time>
      </trkpt>
      <trkpt lat="47.3629" lon="2.76063">
        <ele>291.45</ele>
        <time>2017-10-01T10:17:26Z</time>
      </trkpt>
      <trkpt lat="47.36307" lon="2.76071">
        <ele>291.53</ele>
        <time>2017-10-01T10:17:37Z</time>
      </trkpt>
      <trkpt lat="47.36325" lon="2.76078">
        <ele>292</ele>
        <time>2017-10-01T10:17:50Z</time>
      </trkpt>
      <trkpt lat="47.36344" lon="2.76087">
        <ele>290.98</ele>
        <time>2017-10-01T10:18:01Z</time>
      </trkpt>
      <trkpt lat="47.36362" lon="2.76092">
        <ele>290.85</ele>
        <time>2017-10-01T10:18:12Z</time>
      </trkpt>
      <trkpt lat="47.36381" lon="2.76099">
        <ele>291.18</ele>
        <time>2017-10-01T10:18:21Z</time>
      </trkpt>
      <trkpt lat="47.364" lon="2.76105">
        <ele>290.96</ele>
        <time>2017-10-01T10:18:34Z</time>
      </trkpt>
      <trkpt lat="47.36418" lon="2.7611">
        <ele>291.52</ele>
        <time>2017-10-01T10:18:47Z</time>
      </trkpt>
      <trkpt lat="47.36436" lon="2.7612">
        <ele>291.72</ele>
        <time>2017-10-01T10:18:58Z</time>
      </trkpt>
      <trkpt lat="47.36454" lon="2.76125">
        <ele>290.83</ele>
        <time>2017-10-01T10:19:11Z</time>
      </trkpt>
      <trkpt lat="47.36472" lon="2.7613">
        <ele>290.74</ele>
        <time>2017-10-01T10:19:23Z</time>
      </trkpt>
      <trkpt lat="47.3649" lon="2.76132">
        <ele>290.67</ele>
        <time>2017-10-01T10:19:36Z</time>
      </trkpt>
      <trkpt lat="47.36509" lon="2.76132">
        <ele>291.19</ele>
        <time>2017-10-01T10:19:47Z</time>
      </trkpt>
      <trkpt lat="47.36527" lon="2.7613">
        <ele>290.77</ele>
        <time>2017-10-01T10:19:56Z</time>
      </trkpt>
      <trkpt lat="47.36545" lon="2.76131">
        <ele>289.73</ele>
        <time>2017-10-01T10:20:08Z</time>
      </trkpt>
      <trkpt lat="47.36566" lon="2.76126">
        <ele>288.89</ele>
        <time>2017-10-01T10:20:21Z</time>
      </trkpt>
      <trkpt lat="47.36583" lon="2.7612">
        <ele>288.55</ele>
        <time>2017-10-01T10:20:31Z</time>
      </trkpt>
      <trkpt lat="47.366" lon="2.7611">
        <ele>286.87</ele>
        <time>2017-10-01T10:20:47Z</time>
      </trkpt>
      <trkpt lat="47.36617" lon="2.761">
        <ele>285.49</ele>
        <time>2017-10-01T10:21:00Z</time>
      </trkpt>
      <trkpt lat="47.36635" lon="2.76088">
        <ele>285.03</ele>
        <time>2017-10-01T10:21:12Z</time>
      </trkpt>
      <trkpt lat="47.36652" lon="2.76079">
        <ele>284.08</ele>
        <time>2017-10-01T10:21:25Z</time>
      </trkpt>
      <trkpt lat="47.36669" lon="2.76067">
        <ele>282.89</ele>
        <time>2017-10-01T10:21:36Z</time>
      </trkpt>
      <trkpt lat="47.36686" lon="2.76057">
        <ele>281.39</ele>
        <time>2017-10-01T10:21:49Z</time>
      </trkpt>
      <trkpt lat="47.36703" lon="2.76047">
        <ele>279.45</ele>
        <time>2017-10-01T10:22:02Z</time>
      </trkpt>
      <trkpt lat="47.36722" lon="2.76035">
        <ele>278.28</ele>
        <time>2017-10-01T10:22:13Z</time>
      </trkpt>
      <trkpt lat="47.36739" lon="2.76024">
        <ele>277.47</ele>
        <time>2017-10-01T10:22:25Z</time>
      </trkpt>
      <trkpt lat="47.36757" lon="2.76011">
        <ele>276.39</ele>
        <time>2017-10-01T10:22:38Z</time>
      </trkpt>
      <trkpt lat="47.36773" lon="2.76">
        <ele>275.46</ele>
        <time>2017-10-01T10:22:50Z</time>
      </trkpt>
      <trkpt lat="47.3679" lon="2.7599">
        <ele>274.47</ele>
        <time>2017-10-01T10:23:02Z</time>
      </trkpt>
      <trkpt lat="47.36807" lon="2.75982">
        <ele>273.86</ele>
        <time>2017-10-01T10:23:13Z</time>
      </trkpt>
      <trkpt lat="47.36825" lon="2.75973">
        <ele>272.85</ele>
        <time>2017-10-01T10:23:25Z</time>
      </trkpt>
      <trkpt lat="47.36843" lon="2.75962">
        <ele>271.75</ele>
        <time>2017-10-01T10:23:38Z</time>
      </trkpt>
      <trkpt lat="47.36859" lon="2.7595">
        <ele>270.52</ele>
        <time>2017-10-01T10:23:50Z</time>
      </trkpt>
      <trkpt lat="47.36876" lon="2.7594">
        <ele>269.92</ele>
        <time>2017-10-01T10:24:00Z</time>
      </trkpt>
      <trkpt lat="47.36892" lon="2.75928">
        <ele>270.07</ele>
        <time>2017-10-01T10:24:12Z</time>
      </trkpt>
      <trkpt lat="47.36909" lon="2.75918">
        <ele>269.18</ele>
        <time>2017-10-01T10:24:25Z</time>
      </trkpt>
      <trkpt lat="47.36926" lon="2.75907">
        <ele>267.86</ele>
        <time>2017-10-01T10:24:37Z</time>
      </trkpt>
      <trkpt lat="47.36944" lon="2.75898">
        <ele>266.56</ele>
        <time>2017-10-01T10:24:48Z</time>
      </trkpt>
      <trkpt lat="47.36962" lon="2.75893">
        <ele>266</ele>
        <time>2017-10-01T10:24:59Z</time>
      </trkpt>
      <trkpt lat="47.36975" lon="2.75913">
        <ele>264.84</ele>
        <time>2017-10-01T10:25:11Z</time>
      </trkpt>
      <trkpt lat="47.36983" lon="2.75939">
        <ele>263.71</ele>
        <time>2017-10-01T10:25:25Z</time>
      </trkpt>
      <trkpt lat="47.36994" lon="2.75959">
        <ele>263.1</ele>
        <time>2017-10-01T10:25:37Z</time>
      </trkpt>
      <trkpt lat="47.37009" lon="2.75979">
        <ele>260.67</ele>
        <time>2017-10-01T10:25:51Z</time>
      </trkpt>
      <trkpt lat="47.37021" lon="2.75998">
        <ele>258.24</ele>
        <time>2017-10-01T10:26:01Z</time>
      </trkpt>
      <trkpt lat="47.37033" lon="2.76021">
        <ele>258.48</ele>
        <time>2017-10-01T10:26:11Z</time>
      </trkpt>
      <trkpt lat="47.37046" lon="2.76041">
        <ele>258.57</ele>
        <time>2017-10-01T10:26:23Z</time>
      </trkpt>
      <trkpt lat="47.37058" lon="2.76062">
        <ele>258.34</ele>
        <time>2017-10-01T10:26:36Z</time>
      </trkpt>
      <trkpt lat="47.3707" lon="2.76083">
        <ele>258.35</ele>
        <time>2017-10-01T10:26:47Z</time>
      </trkpt>
      <trkpt lat="47.37083" lon="2.76103">
        <ele>259.18</ele>
        <time>2017-10-01T10:27:00Z</time>
      </trkpt>
      <trkpt lat="47.37096" lon="2.76123">
        <ele>259.74</ele>
        <time>2017-10-01T10:27:12Z</time>
      </trkpt>
      <trkpt lat="47.37113" lon="2.76136">
        <ele>260.87</ele>
        <time>2017-10-01T10:27:27Z</time>
      </trkpt>
      <trkpt lat="47.3713" lon="2.76143">
        <ele>261.48</ele>
        <time>2017-10-01T10:27:43Z</time>
      </trkpt>
      <trkpt lat="47.37148" lon="2.76151">
        <ele>262.44</ele>
        <time>2017-10-01T10:27:56Z</time>
      </trkpt>
      <trkpt lat="47.37164" lon="2.76166">
        <ele>262</ele>
        <time>2017-10-01T10:28:09Z</time>
      </trkpt>
      <trkpt lat="47.37176" lon="2.76186">
        <ele>262.24</ele>
        <time>2017-10-01T10:28:22Z</time>
      </trkpt>
      <trkpt lat="47.37186" lon="2.76212">
        <ele>264.16</ele>
        <time>2017-10-01T10:28:36Z</time>
      </trkpt>
      <trkpt lat="47.37193" lon="2.76237">
        <ele>265.64</ele>
        <time>2017-10-01T10:28:47Z</time>
      </trkpt>
      <trkpt lat="47.37192" lon="2.76264">
        <ele>267.56</ele>
        <time>2017-10-01T10:29:00Z</time>
      </trkpt>
      <trkpt lat="47.37196" lon="2.76291">
        <ele>269.94</ele>
        <time>2017-10-01T10:29:14Z</time>
      </trkpt>
      <trkpt lat="47.37204" lon="2.76316">
        <ele>271.78</ele>
        <time>2017-10-01T10:29:27Z</time>
      </trkpt>
      <trkpt lat="47.37214" lon="2.76341">
        <ele>273.26</ele>
        <time>2017-10-01T10:29:40Z</time>
      </trkpt>
      <trkpt lat="47.37226" lon="2.76361">
        <ele>274.69</ele>
        <time>2017-10-01T10:29:53Z</time>
      </trkpt>
      <trkpt lat="47.37238" lon="2.76384">
        <ele>275.48</ele>
        <time>2017-10-01T10:30:07Z</time>
      </trkpt>
      <trkpt lat="47.37245" lon="2.76411">
        <ele>274.72</ele>
        <time>2017-10-01T10:30:23Z</time>
      </trkpt>
      <trkpt lat="47.37252" lon="2.76436">
        <ele>273.98</ele>
        <time>2017-10-01T10:30:36Z</time>
      </trkpt>
      <trkpt lat="47.37261" lon="2.76461">
        <ele>273.63</ele>
        <time>2017-10-01T10:30:49Z</time>
      </trkpt>
      <trkpt lat="47.37269" lon="2.76485">
        <ele>274.51</ele>
        <time>2017-10-01T10:30:59Z</time>
      </trkpt>
      <trkpt lat="47.37277" lon="2.7651">
        <ele>275.99</ele>
        <time>2017-10-01T10:31:10Z</time>
      </trkpt>
      <trkpt lat="47.37285" lon="2.76534">
        <ele>277.42</ele>
        <time>2017-10-01T10:31:22Z</time>
      </trkpt>
      <trkpt lat="47.37293" lon="2.7656">
        <ele>279.32</ele>
        <time>2017-10-01T10:31:35Z</time>
      </trkpt>
      <trkpt lat="47.37299" lon="2.76585">
        <ele>280.16</ele>
        <time>2017-10-01T10:31:47Z</time>
      </trkpt>
      <trkpt lat="47.37308" lon="2.7661">
        <ele>281.18</ele>
        <time>2017-10-01T10:32:01Z</time>
      </trkpt>
      <trkpt lat="47.37318" lon="2.76633">
        <ele>281.57</ele>
        <time>2017-10-01T10:32:14Z</time>
      </trkpt>
      <trkpt lat="47.37332" lon="2.7665">
        <ele>282.71</ele>
        <time>2017-10-01T10:32:27Z</time>
      </trkpt>
      <trkpt lat="47.37346" lon="2.7667">
        <ele>283.6</ele>
        <time>2017-10-01T10:32:39Z</time>
      </trkpt>
      <trkpt lat="47.37358" lon="2.76692">
        <ele>282.3</ele>
        <time>2017-10-01T10:32:51Z</time>
      </trkpt>
      <trkpt lat="47.3737" lon="2.76711">
        <ele>281.93</ele>
        <time>2017-10-01T10:33:02Z</time>
      </trkpt>
      <trkpt lat="47.37383" lon="2.76732">
        <ele>282.67</ele>
        <time>2017-10-01T10:33:15Z</time>
      </trkpt>
      <trkpt lat="47.37396" lon="2.76752">
        <ele>283.46</ele>
        <time>2017-10-01T10:33:27Z</time>
      </trkpt>
      <trkpt lat="47.3741" lon="2.76771">
        <ele>284.37</ele>
        <time>2017-10-01T10:33:41Z</time>
      </trkpt>
      <trkpt lat="47.37425" lon="2.76789">
        <ele>286.08</ele>
        <time>2017-10-01T10:33:55Z</time>
      </trkpt>
      <trkpt lat="47.3744" lon="2.76806">
        <ele>286.39</ele>
        <time>2017-10-01T10:34:09Z</time>
      </trkpt>
      <trkpt lat="47.37453" lon="2.76825">
        <ele>284.72</ele>
        <time>2017-10-01T10:34:22Z</time>
      </trkpt>
      <trkpt lat="47.37464" lon="2.76849">
        <ele>285.16</ele>
        <time>2017-10-01T10:34:33Z</time>
      </trkpt>
      <trkpt lat="47.37474" lon="2.76872">
        <ele>286.94</ele>
        <time>2017-10-01T10:34:44Z</time>
      </trkpt>
      <trkpt lat="47.37488" lon="2.76892">
        <ele>288.24</ele>
        <time>2017-10-01T10:34:56Z</time>
      </trkpt>
      <trkpt lat="47.37501" lon="2.76911">
        <ele>290.19</ele>
        <time>2017-10-01T10:35:10Z</time>
      </trkpt>
      <trkpt lat="47.37516" lon="2.76926">
        <ele>291.29</ele>
        <time>2017-10-01T10:35:22Z</time>
      </trkpt>
      <trkpt lat="47.37532" lon="2.7694">
        <ele>291.72</ele>
        <time>2017-10-01T10:35:34Z</time>
      </trkpt>
      <trkpt lat="47.37548" lon="2.76953">
        <ele>291.7</ele>
        <time>2017-10-01T10:35:45Z</time>
      </trkpt>
      <trkpt lat="47.37566" lon="2.76958">
        <ele>292.47</ele>
        <time>2017-10-01T10:35:58Z</time>
      </trkpt>
      <trkpt lat="47.3758" lon="2.7694">
        <ele>293.79</ele>
        <time>2017-10-01T10:36:12Z</time>
      </trkpt>
      <trkpt lat="47.37597" lon="2.76952">
        <ele>294.4</ele>
        <time>2017-10-01T10:36:25Z</time>
      </trkpt>
      <trkpt lat="47.37599" lon="2.76979">
        <ele>294.85</ele>
        <time>2017-10-01T10:36:37Z</time>
      </trkpt>
      <trkpt lat="47.37606" lon="2.77004">
        <ele>295.35</ele>
        <time>2017-10-01T10:36:48Z</time>
      </trkpt>
      <trkpt lat="47.37619" lon="2.77024">
        <ele>295.85</ele>
        <time>2017-10-01T10:37:02Z</time>
      </trkpt>
      <trkpt lat="47.37634" lon="2.77041">
        <ele>296.81</ele>
        <time>2017-10-01T10:37:13Z</time>
      </trkpt>
      <trkpt lat="47.37649" lon="2.77057">
        <ele>296.91</ele>
        <time>2017-10-01T10:37:26Z</time>
      </trkpt>
      <trkpt lat="47.37664" lon="2.77074">
        <ele>296.63</ele>
        <time>2017-10-01T10:37:39Z</time>
      </trkpt>
      <trkpt lat="47.3768" lon="2.77089">
        <ele>296.33</ele>
        <time>2017-10-01T10:37:52Z</time>
      </trkpt>
      <trkpt lat="47.37696" lon="2.77102">
        <ele>297.1</ele>
        <time>2017-10-01T10:38:12Z</time>
      </trkpt>
      <trkpt lat="47.37715" lon="2.77113">
        <ele>297.48</ele>
        <time>2017-10-01T10:38:23Z</time>
      </trkpt>
      <trkpt lat="47.37732" lon="2.77126">
        <ele>295.9</ele>
        <time>2017-10-01T10:38:34Z</time>
      </trkpt>
      <trkpt lat="47.3775" lon="2.77136">
        <ele>294.84</ele>
        <time>2017-10-01T10:38:44Z</time>
      </trkpt>
      <trkpt lat="47.37767" lon="2.77146">
        <ele>294.88</ele>
        <time>2017-10-01T10:38:54Z</time>
      </trkpt>
      <trkpt lat="47.37784" lon="2.77158">
        <ele>295.52</ele>
        <time>2017-10-01T10:39:04Z</time>
      </trkpt>
      <trkpt lat="47.378" lon="2.77172">
        <ele>295.75</ele>
        <time>2017-10-01T10:39:14Z</time>
      </trkpt>
      <trkpt lat="47.37816" lon="2.77182">
        <ele>294.66</ele>
        <time>2017-10-01T10:39:26Z</time>
      </trkpt>
      <trkpt lat="47.37834" lon="2.77194">
        <ele>293.28</ele>
        <time>2017-10-01T10:39:40Z</time>
      </trkpt>
      <trkpt lat="47.37847" lon="2.77213">
        <ele>294.43</ele>
        <time>2017-10-01T10:39:51Z</time>
      </trkpt>
      <trkpt lat="47.37865" lon="2.77225">
        <ele>295.03</ele>
        <time>2017-10-01T10:40:04Z</time>
      </trkpt>
      <trkpt lat="47.37881" lon="2.77237">
        <ele>295.6</ele>
        <time>2017-10-01T10:40:14Z</time>
      </trkpt>
      <trkpt lat="47.37897" lon="2.77253">
        <ele>296.71</ele>
        <time>2017-10-01T10:40:26Z</time>
      </trkpt>
      <trkpt lat="47.37913" lon="2.77266">
        <ele>297.1</ele>
        <time>2017-10-01T10:40:38Z</time>
      </trkpt>
      <trkpt lat="47.37921" lon="2.7729">
        <ele>297.29</ele>
        <time>2017-10-01T10:40:47Z</time>
      </trkpt>
      <trkpt lat="47.37936" lon="2.77306">
        <ele>296.86</ele>
        <time>2017-10-01T10:41:03Z</time>
      </trkpt>
      <trkpt lat="47.37954" lon="2.77292">
        <ele>295.01</ele>
        <time>2017-10-01T10:41:22Z</time>
      </trkpt>
      <trkpt lat="47.37971" lon="2.7728">
        <ele>292.94</ele>
        <time>2017-10-01T10:41:37Z</time>
      </trkpt>
      <trkpt lat="47.37989" lon="2.77263">
        <ele>291.89</ele>
        <time>2017-10-01T10:41:48Z</time>
      </trkpt>
      <trkpt lat="47.38007" lon="2.77258">
        <ele>289.98</ele>
        <time>2017-10-01T10:41:57Z</time>
      </trkpt>
      <trkpt lat="47.38024" lon="2.77242">
        <ele>288.7</ele>
        <time>2017-10-01T10:42:13Z</time>
      </trkpt>
      <trkpt lat="47.38041" lon="2.77229">
        <ele>287.14</ele>
        <time>2017-10-01T10:42:25Z</time>
      </trkpt>
      <trkpt lat="47.38058" lon="2.77218">
        <ele>283.28</ele>
        <time>2017-10-01T10:42:35Z</time>
      </trkpt>
      <trkpt lat="47.38077" lon="2.77211">
        <ele>281.48</ele>
        <time>2017-10-01T10:42:49Z</time>
      </trkpt>
      <trkpt lat="47.38094" lon="2.77202">
        <ele>282.67</ele>
        <time>2017-10-01T10:43:00Z</time>
      </trkpt>
      <trkpt lat="47.38114" lon="2.77193">
        <ele>283.94</ele>
        <time>2017-10-01T10:43:13Z</time>
      </trkpt>
      <trkpt lat="47.38132" lon="2.77181">
        <ele>284.25</ele>
        <time>2017-10-01T10:43:25Z</time>
      </trkpt>
      <trkpt lat="47.38149" lon="2.77168">
        <ele>285.99</ele>
        <time>2017-10-01T10:43:37Z</time>
      </trkpt>
      <trkpt lat="47.38167" lon="2.77154">
        <ele>287.18</ele>
        <time>2017-10-01T10:43:49Z</time>
      </trkpt>
      <trkpt lat="47.38184" lon="2.7714">
        <ele>286.79</ele>
        <time>2017-10-01T10:44:00Z</time>
      </trkpt>
      <trkpt lat="47.38202" lon="2.77129">
        <ele>287.52</ele>
        <time>2017-10-01T10:44:10Z</time>
      </trkpt>
      <trkpt lat="47.3822" lon="2.77123">
        <ele>288.74</ele>
        <time>2017-10-01T10:44:19Z</time>
      </trkpt>
      <trkpt lat="47.38239" lon="2.77123">
        <ele>290.92</ele>
        <time>2017-10-01T10:44:32Z</time>
      </trkpt>
      <trkpt lat="47.38258" lon="2.77126">
        <ele>293.39</ele>
        <time>2017-10-01T10:44:45Z</time>
      </trkpt>
      <trkpt lat="47.38278" lon="2.77122">
        <ele>294.56</ele>
        <time>2017-10-01T10:44:55Z</time>
      </trkpt>
      <trkpt lat="47.38273" lon="2.77092">
        <ele>292.8</ele>
        <time>2017-10-01T10:45:16Z</time>
      </trkpt>
      <trkpt lat="47.38256" lon="2.77079">
        <ele>292.2</ele>
        <time>2017-10-01T10:45:24Z</time>
      </trkpt>
      <trkpt lat="47.38241" lon="2.77062">
        <ele>290.76</ele>
        <time>2017-10-01T10:45:35Z</time>
      </trkpt>
      <trkpt lat="47.38228" lon="2.77042">
        <ele>290.72</ele>
        <time>2017-10-01T10:45:43Z</time>
      </trkpt>
      <trkpt lat="47.38213" lon="2.77024">
        <ele>291.9</ele>
        <time>2017-10-01T10:45:51Z</time>
      </trkpt>
      <trkpt lat="47.38212" lon="2.76997">
        <ele>291.93</ele>
        <time>2017-10-01T10:46:11Z</time>
      </trkpt>
      <trkpt lat="47.38218" lon="2.76967">
        <ele>291.01</ele>
        <time>2017-10-01T10:46:24Z</time>
      </trkpt>
      <trkpt lat="47.38227" lon="2.76943">
        <ele>288.29</ele>
        <time>2017-10-01T10:46:39Z</time>
      </trkpt>
      <trkpt lat="47.38237" lon="2.7692">
        <ele>285.96</ele>
        <time>2017-10-01T10:46:49Z</time>
      </trkpt>
      <trkpt lat="47.38245" lon="2.76895">
        <ele>284.69</ele>
        <time>2017-10-01T10:47:02Z</time>
      </trkpt>
      <trkpt lat="47.38257" lon="2.76874">
        <ele>284.29</ele>
        <time>2017-10-01T10:47:14Z</time>
      </trkpt>
      <trkpt lat="47.38262" lon="2.76847">
        <ele>283.92</ele>
        <time>2017-10-01T10:47:24Z</time>
      </trkpt>
      <trkpt lat="47.3827" lon="2.76822">
        <ele>282.61</ele>
        <time>2017-10-01T10:47:35Z</time>
      </trkpt>
      <trkpt lat="47.3828" lon="2.76798">
        <ele>280.64</ele>
        <time>2017-10-01T10:47:49Z</time>
      </trkpt>
      <trkpt lat="47.38291" lon="2.76775">
        <ele>279.17</ele>
        <time>2017-10-01T10:47:58Z</time>
      </trkpt>
      <trkpt lat="47.38302" lon="2.76754">
        <ele>278.41</ele>
        <time>2017-10-01T10:48:08Z</time>
      </trkpt>
      <trkpt lat="47.3831" lon="2.76729">
        <ele>279.28</ele>
        <time>2017-10-01T10:48:20Z</time>
      </trkpt>
      <trkpt lat="47.38313" lon="2.76702">
        <ele>279.66</ele>
        <time>2017-10-01T10:48:30Z</time>
      </trkpt>
      <trkpt lat="47.38317" lon="2.76675">
        <ele>280</ele>
        <time>2017-10-01T10:48:42Z</time>
      </trkpt>
      <trkpt lat="47.38326" lon="2.76647">
        <ele>280.55</ele>
        <time>2017-10-01T10:48:51Z</time>
      </trkpt>
      <trkpt lat="47.38335" lon="2.76623">
        <ele>281.6</ele>
        <time>2017-10-01T10:49:05Z</time>
      </trkpt>
      <trkpt lat="47.38341" lon="2.76596">
        <ele>279.25</ele>
        <time>2017-10-01T10:49:16Z</time>
      </trkpt>
      <trkpt lat="47.38356" lon="2.7656">
        <ele>277.83</ele>
        <time>2017-10-01T10:49:32Z</time>
      </trkpt>
      <trkpt lat="47.38365" lon="2.76536">
        <ele>276.35</ele>
        <time>2017-10-01T10:49:45Z</time>
      </trkpt>
      <trkpt lat="47.38377" lon="2.76515">
        <ele>276.14</ele>
        <time>2017-10-01T10:50:01Z</time>
      </trkpt>
      <trkpt lat="47.3839" lon="2.76497">
        <ele>276.24</ele>
        <time>2017-10-01T10:50:12Z</time>
      </trkpt>
      <trkpt lat="47.38404" lon="2.76477">
        <ele>275.84</ele>
        <time>2017-10-01T10:50:23Z</time>
      </trkpt>
      <trkpt lat="47.38418" lon="2.7646">
        <ele>273.75</ele>
        <time>2017-10-01T10:50:39Z</time>
      </trkpt>
      <trkpt lat="47.38433" lon="2.76443">
        <ele>270.92</ele>
        <time>2017-10-01T10:50:52Z</time>
      </trkpt>
      <trkpt lat="47.38446" lon="2.76422">
        <ele>269.38</ele>
        <time>2017-10-01T10:51:06Z</time>
      </trkpt>
      <trkpt lat="47.38459" lon="2.76402">
        <ele>269.13</ele>
        <time>2017-10-01T10:51:16Z</time>
      </trkpt>
      <trkpt lat="47.38476" lon="2.7641">
        <ele>270.25</ele>
        <time>2017-10-01T10:51:27Z</time>
      </trkpt>
      <trkpt lat="47.38486" lon="2.76434">
        <ele>271.2</ele>
        <time>2017-10-01T10:51:37Z</time>
      </trkpt>
      <trkpt lat="47.38499" lon="2.76453">
        <ele>271.68</ele>
        <time>2017-10-01T10:51:48Z</time>
      </trkpt>
      <trkpt lat="47.38507" lon="2.76479">
        <ele>272.34</ele>
        <time>2017-10-01T10:51:59Z</time>
      </trkpt>
      <trkpt lat="47.3852" lon="2.76498">
        <ele>273.01</ele>
        <time>2017-10-01T10:52:10Z</time>
      </trkpt>
      <trkpt lat="47.38526" lon="2.76523">
        <ele>272.9</ele>
        <time>2017-10-01T10:52:21Z</time>
      </trkpt>
      <trkpt lat="47.38536" lon="2.76546">
        <ele>272.79</ele>
        <time>2017-10-01T10:52:32Z</time>
      </trkpt>
      <trkpt lat="47.38548" lon="2.76569">
        <ele>272.09</ele>
        <time>2017-10-01T10:52:45Z</time>
      </trkpt>
      <trkpt lat="47.3856" lon="2.76592">
        <ele>272.34</ele>
        <time>2017-10-01T10:52:58Z</time>
      </trkpt>
      <trkpt lat="47.38568" lon="2.76617">
        <ele>271.89</ele>
        <time>2017-10-01T10:53:10Z</time>
      </trkpt>
      <trkpt lat="47.38568" lon="2.76645">
        <ele>271.72</ele>
        <time>2017-10-01T10:53:22Z</time>
      </trkpt>
      <trkpt lat="47.38567" lon="2.76672">
        <ele>272.36</ele>
        <time>2017-10-01T10:53:38Z</time>
      </trkpt>
      <trkpt lat="47.38569" lon="2.76699">
        <ele>272.65</ele>
        <time>2017-10-01T10:53:53Z</time>
      </trkpt>
      <trkpt lat="47.38575" lon="2.76727">
        <ele>273.24</ele>
        <time>2017-10-01T10:54:06Z</time>
      </trkpt>
      <trkpt lat="47.38582" lon="2.76752">
        <ele>274.49</ele>
        <time>2017-10-01T10:54:18Z</time>
      </trkpt>
      <trkpt lat="47.38595" lon="2.7677">
        <ele>275.7</ele>
        <time>2017-10-01T10:54:31Z</time>
      </trkpt>
      <trkpt lat="47.38613" lon="2.76762">
        <ele>275.87</ele>
        <time>2017-10-01T10:54:46Z</time>
      </trkpt>
      <trkpt lat="47.38628" lon="2.76746">
        <ele>275.96</ele>
        <time>2017-10-01T10:55:01Z</time>
      </trkpt>
      <trkpt lat="47.38644" lon="2.7673">
        <ele>275.74</ele>
        <time>2017-10-01T10:55:13Z</time>
      </trkpt>
      <trkpt lat="47.38659" lon="2.76714">
        <ele>276.16</ele>
        <time>2017-10-01T10:55:24Z</time>
      </trkpt>
      <trkpt lat="47.38677" lon="2.76704">
        <ele>277.15</ele>
        <time>2017-10-01T10:56:01Z</time>
      </trkpt>
      <trkpt lat="47.38672" lon="2.76678">
        <ele>275.71</ele>
        <time>2017-10-01T10:59:35Z</time>
      </trkpt>
      <trkpt lat="47.38679" lon="2.76652">
        <ele>274.83</ele>
        <time>2017-10-01T10:59:54Z</time>
      </trkpt>
      <trkpt lat="47.38672" lon="2.76626">
        <ele>274.49</ele>
        <time>2017-10-01T11:00:06Z</time>
      </trkpt>
      <trkpt lat="47.38669" lon="2.76598">
        <ele>272.82</ele>
        <time>2017-10-01T11:00:19Z</time>
      </trkpt>
      <trkpt lat="47.38677" lon="2.76574">
        <ele>271.22</ele>
        <time>2017-10-01T11:00:32Z</time>
      </trkpt>
      <trkpt lat="47.38689" lon="2.76553">
        <ele>268.63</ele>
        <time>2017-10-01T11:00:45Z</time>
      </trkpt>
      <trkpt lat="47.38703" lon="2.76535">
        <ele>267.31</ele>
        <time>2017-10-01T11:00:56Z</time>
      </trkpt>
      <trkpt lat="47.3872" lon="2.76522">
        <ele>266.01</ele>
        <time>2017-10-01T11:01:08Z</time>
      </trkpt>
      <trkpt lat="47.38736" lon="2.76508">
        <ele>263.92</ele>
        <time>2017-10-01T11:01:19Z</time>
      </trkpt>
      <trkpt lat="47.38754" lon="2.76498">
        <ele>262.21</ele>
        <time>2017-10-01T11:01:32Z</time>
      </trkpt>
      <trkpt lat="47.38768" lon="2.76481">
        <ele>261.84</ele>
        <time>2017-10-01T11:01:45Z</time>
      </trkpt>
      <trkpt lat="47.38774" lon="2.76454">
        <ele>260.79</ele>
        <time>2017-10-01T11:01:57Z</time>
      </trkpt>
      <trkpt lat="47.38776" lon="2.76425">
        <ele>260.45</ele>
        <time>2017-10-01T11:02:09Z</time>
      </trkpt>
      <trkpt lat="47.38779" lon="2.76397">
        <ele>260.58</ele>
        <time>2017-10-01T11:02:21Z</time>
      </trkpt>
      <trkpt lat="47.38793" lon="2.76379">
        <ele>260.15</ele>
        <time>2017-10-01T11:02:33Z</time>
      </trkpt>
      <trkpt lat="47.3881" lon="2.76367">
        <ele>260.43</ele>
        <time>2017-10-01T11:02:44Z</time>
      </trkpt>
      <trkpt lat="47.38826" lon="2.76351">
        <ele>260.06</ele>
        <time>2017-10-01T11:02:58Z</time>
      </trkpt>
      <trkpt lat="47.38838" lon="2.76328">
        <ele>259.19</ele>
        <time>2017-10-01T11:03:10Z</time>
      </trkpt>
      <trkpt lat="47.38845" lon="2.76303">
        <ele>259.61</ele>
        <time>2017-10-01T11:03:22Z</time>
      </trkpt>
      <trkpt lat="47.38852" lon="2.76277">
        <ele>258.82</ele>
        <time>2017-10-01T11:03:35Z</time>
      </trkpt>
      <trkpt lat="47.38864" lon="2.76256">
        <ele>257.78</ele>
        <time>2017-10-01T11:03:47Z</time>
      </trkpt>
      <trkpt lat="47.38874" lon="2.76233">
        <ele>256.81</ele>
        <time>2017-10-01T11:04:00Z</time>
      </trkpt>
      <trkpt lat="47.38885" lon="2.76211">
        <ele>255.77</ele>
        <time>2017-10-01T11:04:13Z</time>
      </trkpt>
      <trkpt lat="47.389" lon="2.76194">
        <ele>254.99</ele>
        <time>2017-10-01T11:04:25Z</time>
      </trkpt>
      <trkpt lat="47.38915" lon="2.76177">
        <ele>255.47</ele>
        <time>2017-10-01T11:04:39Z</time>
      </trkpt>
      <trkpt lat="47.38929" lon="2.76159">
        <ele>256.26</ele>
        <time>2017-10-01T11:04:49Z</time>
      </trkpt>
      <trkpt lat="47.38945" lon="2.76142">
        <ele>257.16</ele>
        <time>2017-10-01T11:05:01Z</time>
      </trkpt>
      <trkpt lat="47.38959" lon="2.76125">
        <ele>256.95</ele>
        <time>2017-10-01T11:05:17Z</time>
      </trkpt>
      <trkpt lat="47.38975" lon="2.76109">
        <ele>256.52</ele>
        <time>2017-10-01T11:05:29Z</time>
      </trkpt>
      <trkpt lat="47.38992" lon="2.7609">
        <ele>254.73</ele>
        <time>2017-10-01T11:05:42Z</time>
      </trkpt>
      <trkpt lat="47.39008" lon="2.76075">
        <ele>252.01</ele>
        <time>2017-10-01T11:05:53Z</time>
      </trkpt>
      <trkpt lat="47.39024" lon="2.76064">
        <ele>250.71</ele>
        <time>2017-10-01T11:06:03Z</time>
      </trkpt>
      <trkpt lat="47.3904" lon="2.76048">
        <ele>250.64</ele>
        <time>2017-10-01T11:06:14Z</time>
      </trkpt>
      <trkpt lat="47.39056" lon="2.76034">
        <ele>250.03</ele>
        <time>2017-10-01T11:06:27Z</time>
      </trkpt>
      <trkpt lat="47.39072" lon="2.76018">
        <ele>248.69</ele>
        <time>2017-10-01T11:06:40Z</time>
      </trkpt>
      <trkpt lat="47.39088" lon="2.76004">
        <ele>247.39</ele>
        <time>2017-10-01T11:06:52Z</time>
      </trkpt>
      <trkpt lat="47.39105" lon="2.75991">
        <ele>246.64</ele>
        <time>2017-10-01T11:07:05Z</time>
      </trkpt>
      <trkpt lat="47.39121" lon="2.75979">
        <ele>247.02</ele>
        <time>2017-10-01T11:07:18Z</time>
      </trkpt>
      <trkpt lat="47.3914" lon="2.75971">
        <ele>246.47</ele>
        <time>2017-10-01T11:07:31Z</time>
      </trkpt>
      <trkpt lat="47.39158" lon="2.75961">
        <ele>245.14</ele>
        <time>2017-10-01T11:07:41Z</time>
      </trkpt>
      <trkpt lat="47.39176" lon="2.75955">
        <ele>243.23</ele>
        <time>2017-10-01T11:07:55Z</time>
      </trkpt>
      <trkpt lat="47.39195" lon="2.7595">
        <ele>241.78</ele>
        <time>2017-10-01T11:08:06Z</time>
      </trkpt>
      <trkpt lat="47.39212" lon="2.7594">
        <ele>241.8</ele>
        <time>2017-10-01T11:08:17Z</time>
      </trkpt>
      <trkpt lat="47.39227" lon="2.75924">
        <ele>241.28</ele>
        <time>2017-10-01T11:08:30Z</time>
      </trkpt>
      <trkpt lat="47.3924" lon="2.75906">
        <ele>240.36</ele>
        <time>2017-10-01T11:08:41Z</time>
      </trkpt>
      <trkpt lat="47.39252" lon="2.75884">
        <ele>238.8</ele>
        <time>2017-10-01T11:08:53Z</time>
      </trkpt>
      <trkpt lat="47.39265" lon="2.75866">
        <ele>237.69</ele>
        <time>2017-10-01T11:09:05Z</time>
      </trkpt>
      <trkpt lat="47.39278" lon="2.75845">
        <ele>237.17</ele>
        <time>2017-10-01T11:09:16Z</time>
      </trkpt>
      <trkpt lat="47.39293" lon="2.75826">
        <ele>236.7</ele>
        <time>2017-10-01T11:09:29Z</time>
      </trkpt>
      <trkpt lat="47.39306" lon="2.75809">
        <ele>236.64</ele>
        <time>2017-10-01T11:09:39Z</time>
      </trkpt>
      <trkpt lat="47.39317" lon="2.75785">
        <ele>236</ele>
        <time>2017-10-01T11:09:52Z</time>
      </trkpt>
      <trkpt lat="47.39326" lon="2.75761">
        <ele>236.26</ele>
        <time>2017-10-01T11:10:03Z</time>
      </trkpt>
      <trkpt lat="47.39331" lon="2.75736">
        <ele>237.47</ele>
        <time>2017-10-01T11:10:15Z</time>
      </trkpt>
      <trkpt lat="47.39325" lon="2.75709">
        <ele>238.24</ele>
        <time>2017-10-01T11:10:27Z</time>
      </trkpt>
      <trkpt lat="47.39324" lon="2.75682">
        <ele>238.02</ele>
        <time>2017-10-01T11:10:39Z</time>
      </trkpt>
      <trkpt lat="47.39326" lon="2.75653">
        <ele>238.87</ele>
        <time>2017-10-01T11:10:52Z</time>
      </trkpt>
      <trkpt lat="47.39326" lon="2.75626">
        <ele>240.26</ele>
        <time>2017-10-01T11:11:02Z</time>
      </trkpt>
      <trkpt lat="47.3933" lon="2.75599">
        <ele>240.08</ele>
        <time>2017-10-01T11:11:14Z</time>
      </trkpt>
      <trkpt lat="47.39337" lon="2.75572">
        <ele>240.42</ele>
        <time>2017-10-01T11:11:25Z</time>
      </trkpt>
      <trkpt lat="47.39347" lon="2.75549">
        <ele>239.65</ele>
        <time>2017-10-01T11:11:37Z</time>
      </trkpt>
      <trkpt lat="47.39353" lon="2.75523">
        <ele>239.44</ele>
        <time>2017-10-01T11:11:49Z</time>
      </trkpt>
      <trkpt lat="47.39355" lon="2.75495">
        <ele>238.38</ele>
        <time>2017-10-01T11:12:03Z</time>
      </trkpt>
      <trkpt lat="47.39358" lon="2.75467">
        <ele>237.93</ele>
        <time>2017-10-01T11:12:14Z</time>
      </trkpt>
      <trkpt lat="47.39361" lon="2.75439">
        <ele>237.24</ele>
        <time>2017-10-01T11:12:27Z</time>
      </trkpt>
      <trkpt lat="47.39365" lon="2.75412">
        <ele>236.6</ele>
        <time>2017-10-01T11:12:41Z</time>
      </trkpt>
      <trkpt lat="47.39377" lon="2.75388">
        <ele>234.2</ele>
        <time>2017-10-01T11:13:00Z</time>
      </trkpt>
      <trkpt lat="47.39395" lon="2.7538">
        <ele>231.07</ele>
        <time>2017-10-01T11:13:12Z</time>
      </trkpt>
      <trkpt lat="47.39414" lon="2.75369">
        <ele>230.53</ele>
        <time>2017-10-01T11:13:21Z</time>
      </trkpt>
      <trkpt lat="47.39432" lon="2.75359">
        <ele>231.21</ele>
        <time>2017-10-01T11:13:30Z</time>
      </trkpt>
      <trkpt lat="47.39449" lon="2.75348">
        <ele>232.46</ele>
        <time>2017-10-01T11:13:44Z</time>
      </trkpt>
      <trkpt lat="47.39467" lon="2.75336">
        <ele>233.96</ele>
        <time>2017-10-01T11:13:58Z</time>
      </trkpt>
      <trkpt lat="47.39485" lon="2.75321">
        <ele>234.52</ele>
        <time>2017-10-01T11:14:11Z</time>
      </trkpt>
      <trkpt lat="47.39493" lon="2.75296">
        <ele>234.73</ele>
        <time>2017-10-01T11:14:19Z</time>
      </trkpt>
      <trkpt lat="47.39496" lon="2.75263">
        <ele>235.84</ele>
        <time>2017-10-01T11:14:32Z</time>
      </trkpt>
      <trkpt lat="47.395" lon="2.75234">
        <ele>238.12</ele>
        <time>2017-10-01T11:14:58Z</time>
      </trkpt>
      <trkpt lat="47.395" lon="2.752">
        <ele>237.91</ele>
        <time>2017-10-01T11:15:23Z</time>
      </trkpt>
      <trkpt lat="47.395" lon="2.75168">
        <ele>237.9</ele>
        <time>2017-10-01T11:15:32Z</time>
      </trkpt>
      <trkpt lat="47.39496" lon="2.75141">
        <ele>237.84</ele>
        <time>2017-10-01T11:15:47Z</time>
      </trkpt>
      <trkpt lat="47.39498" lon="2.75113">
        <ele>238.46</ele>
        <time>2017-10-01T11:15:58Z</time>
      </trkpt>
      <trkpt lat="47.39502" lon="2.75086">
        <ele>240.34</ele>
        <time>2017-10-01T11:16:07Z</time>
      </trkpt>
      <trkpt lat="47.395" lon="2.75058">
        <ele>241.27</ele>
        <time>2017-10-01T11:16:15Z</time>
      </trkpt>
      <trkpt lat="47.39494" lon="2.75032">
        <ele>243.07</ele>
        <time>2017-10-01T11:16:25Z</time>
      </trkpt>
      <trkpt lat="47.3949" lon="2.75005">
        <ele>248.6</ele>
        <time>2017-10-01T11:16:42Z</time>
      </trkpt>
      <trkpt lat="47.39488" lon="2.74978">
        <ele>251.72</ele>
        <time>2017-10-01T11:16:54Z</time>
      </trkpt>
      <trkpt lat="47.39491" lon="2.74951">
        <ele>254.1</ele>
        <time>2017-10-01T11:17:05Z</time>
      </trkpt>
      <trkpt lat="47.39491" lon="2.74922">
        <ele>256.19</ele>
        <time>2017-10-01T11:17:16Z</time>
      </trkpt>
      <trkpt lat="47.39495" lon="2.74894">
        <ele>258.26</ele>
        <time>2017-10-01T11:17:31Z</time>
      </trkpt>
      <trkpt lat="47.39496" lon="2.74865">
        <ele>258.94</ele>
        <time>2017-10-01T11:17:43Z</time>
      </trkpt>
      <trkpt lat="47.39493" lon="2.74836">
        <ele>260.07</ele>
        <time>2017-10-01T11:17:56Z</time>
      </trkpt>
      <trkpt lat="47.3949" lon="2.74809">
        <ele>260.03</ele>
        <time>2017-10-01T11:18:10Z</time>
      </trkpt>
      <trkpt lat="47.39488" lon="2.7478">
        <ele>260.39</ele>
        <time>2017-10-01T11:18:22Z</time>
      </trkpt>
      <trkpt lat="47.39487" lon="2.74754">
        <ele>260.62</ele>
        <time>2017-10-01T11:18:32Z</time>
      </trkpt>
      <trkpt lat="47.39485" lon="2.74727">
        <ele>261.69</ele>
        <time>2017-10-01T11:18:46Z</time>
      </trkpt>
      <trkpt lat="47.39482" lon="2.74699">
        <ele>261.99</ele>
        <time>2017-10-01T11:19:01Z</time>
      </trkpt>
      <trkpt lat="47.3948" lon="2.74672">
        <ele>262.19</ele>
        <time>2017-10-01T11:19:13Z</time>
      </trkpt>
      <trkpt lat="47.39481" lon="2.74645">
        <ele>262.55</ele>
        <time>2017-10-01T11:19:25Z</time>
      </trkpt>
      <trkpt lat="47.39478" lon="2.74618">
        <ele>262.81</ele>
        <time>2017-10-01T11:19:38Z</time>
      </trkpt>
      <trkpt lat="47.39478" lon="2.7459">
        <ele>262.79</ele>
        <time>2017-10-01T11:19:52Z</time>
      </trkpt>
      <trkpt lat="47.39483" lon="2.74562">
        <ele>263.02</ele>
        <time>2017-10-01T11:20:09Z</time>
      </trkpt>
      <trkpt lat="47.3948" lon="2.74534">
        <ele>263.51</ele>
        <time>2017-10-01T11:20:20Z</time>
      </trkpt>
      <trkpt lat="47.39481" lon="2.74507">
        <ele>262.74</ele>
        <time>2017-10-01T11:20:32Z</time>
      </trkpt>
      <trkpt lat="47.39487" lon="2.74479">
        <ele>262.38</ele>
        <time>2017-10-01T11:20:45Z</time>
      </trkpt>
      <trkpt lat="47.39505" lon="2.74483">
        <ele>262.73</ele>
        <time>2017-10-01T11:20:57Z</time>
      </trkpt>
      <trkpt lat="47.39518" lon="2.74502">
        <ele>263.88</ele>
        <time>2017-10-01T11:21:10Z</time>
      </trkpt>
      <trkpt lat="47.39531" lon="2.7452">
        <ele>265.43</ele>
        <time>2017-10-01T11:21:22Z</time>
      </trkpt>
      <trkpt lat="47.39544" lon="2.74539">
        <ele>266.83</ele>
        <time>2017-10-01T11:21:34Z</time>
      </trkpt>
      <trkpt lat="47.39559" lon="2.74556">
        <ele>268.2</ele>
        <time>2017-10-01T11:21:48Z</time>
      </trkpt>
      <trkpt lat="47.39574" lon="2.74572">
        <ele>268.45</ele>
        <time>2017-10-01T11:22:00Z</time>
      </trkpt>
      <trkpt lat="47.39589" lon="2.74587">
        <ele>266.87</ele>
        <time>2017-10-01T11:22:13Z</time>
      </trkpt>
      <trkpt lat="47.39603" lon="2.74605">
        <ele>266.06</ele>
        <time>2017-10-01T11:22:27Z</time>
      </trkpt>
      <trkpt lat="47.39619" lon="2.74618">
        <ele>266.94</ele>
        <time>2017-10-01T11:22:37Z</time>
      </trkpt>
      <trkpt lat="47.39636" lon="2.74629">
        <ele>267.5</ele>
        <time>2017-10-01T11:22:51Z</time>
      </trkpt>
      <trkpt lat="47.39654" lon="2.74639">
        <ele>267.43</ele>
        <time>2017-10-01T11:23:02Z</time>
      </trkpt>
      <trkpt lat="47.39671" lon="2.74655">
        <ele>268.91</ele>
        <time>2017-10-01T11:23:13Z</time>
      </trkpt>
      <trkpt lat="47.39687" lon="2.74672">
        <ele>270.3</ele>
        <time>2017-10-01T11:23:24Z</time>
      </trkpt>
      <trkpt lat="47.39702" lon="2.74688">
        <ele>270.13</ele>
        <time>2017-10-01T11:23:35Z</time>
      </trkpt>
      <trkpt lat="47.39718" lon="2.74703">
        <ele>269.16</ele>
        <time>2017-10-01T11:23:46Z</time>
      </trkpt>
      <trkpt lat="47.39731" lon="2.74722">
        <ele>265.21</ele>
        <time>2017-10-01T11:24:01Z</time>
      </trkpt>
      <trkpt lat="47.39744" lon="2.74742">
        <ele>260.9</ele>
        <time>2017-10-01T11:24:13Z</time>
      </trkpt>
      <trkpt lat="47.39755" lon="2.74763">
        <ele>258.65</ele>
        <time>2017-10-01T11:24:24Z</time>
      </trkpt>
      <trkpt lat="47.39768" lon="2.74784">
        <ele>258.4</ele>
        <time>2017-10-01T11:24:35Z</time>
      </trkpt>
      <trkpt lat="47.39779" lon="2.74806">
        <ele>257.81</ele>
        <time>2017-10-01T11:24:47Z</time>
      </trkpt>
      <trkpt lat="47.39787" lon="2.7483">
        <ele>257.08</ele>
        <time>2017-10-01T11:24:58Z</time>
      </trkpt>
      <trkpt lat="47.39796" lon="2.74855">
        <ele>255.84</ele>
        <time>2017-10-01T11:25:13Z</time>
      </trkpt>
      <trkpt lat="47.39808" lon="2.74875">
        <ele>256.32</ele>
        <time>2017-10-01T11:25:23Z</time>
      </trkpt>
      <trkpt lat="47.39816" lon="2.74901">
        <ele>256.37</ele>
        <time>2017-10-01T11:25:34Z</time>
      </trkpt>
      <trkpt lat="47.39825" lon="2.74924">
        <ele>255.76</ele>
        <time>2017-10-01T11:25:46Z</time>
      </trkpt>
      <trkpt lat="47.39833" lon="2.7495">
        <ele>255.67</ele>
        <time>2017-10-01T11:25:59Z</time>
      </trkpt>
      <trkpt lat="47.39843" lon="2.74973">
        <ele>255.51</ele>
        <time>2017-10-01T11:26:10Z</time>
      </trkpt>
      <trkpt lat="47.39855" lon="2.74995">
        <ele>255.9</ele>
        <time>2017-10-01T11:26:21Z</time>
      </trkpt>
      <trkpt lat="47.39864" lon="2.75019">
        <ele>255.44</ele>
        <time>2017-10-01T11:26:32Z</time>
      </trkpt>
      <trkpt lat="47.39871" lon="2.75045">
        <ele>256.64</ele>
        <time>2017-10-01T11:26:44Z</time>
      </trkpt>
      <trkpt lat="47.39881" lon="2.75068">
        <ele>257.51</ele>
        <time>2017-10-01T11:26:54Z</time>
      </trkpt>
      <trkpt lat="47.39892" lon="2.7509">
        <ele>258.49</ele>
        <time>2017-10-01T11:27:06Z</time>
      </trkpt>
      <trkpt lat="47.39903" lon="2.75114">
        <ele>255.66</ele>
        <time>2017-10-01T11:27:18Z</time>
      </trkpt>
      <trkpt lat="47.3991" lon="2.75138">
        <ele>250.81</ele>
        <time>2017-10-01T11:27:30Z</time>
      </trkpt>
      <trkpt lat="47.3992" lon="2.75162">
        <ele>247.62</ele>
        <time>2017-10-01T11:27:41Z</time>
      </trkpt>
      <trkpt lat="47.39932" lon="2.75187">
        <ele>245.13</ele>
        <time>2017-10-01T11:27:51Z</time>
      </trkpt>
      <trkpt lat="47.39943" lon="2.75209">
        <ele>243.31</ele>
        <time>2017-10-01T11:28:01Z</time>
      </trkpt>
      <trkpt lat="47.39958" lon="2.75224">
        <ele>240</ele>
        <time>2017-10-01T11:28:13Z</time>
      </trkpt>
      <trkpt lat="47.3997" lon="2.75245">
        <ele>238.29</ele>
        <time>2017-10-01T11:28:27Z</time>
      </trkpt>
      <trkpt lat="47.3999" lon="2.7525">
        <ele>234.84</ele>
        <time>2017-10-01T11:28:42Z</time>
      </trkpt>
      <trkpt lat="47.40009" lon="2.75264">
        <ele>231.69</ele>
        <time>2017-10-01T11:28:57Z</time>
      </trkpt>
      <trkpt lat="47.40021" lon="2.75284">
        <ele>231.04</ele>
        <time>2017-10-01T11:29:06Z</time>
      </trkpt>
      <trkpt lat="47.40038" lon="2.75296">
        <ele>229.45</ele>
        <time>2017-10-01T11:29:15Z</time>
      </trkpt>
      <trkpt lat="47.40055" lon="2.75307">
        <ele>228.67</ele>
        <time>2017-10-01T11:29:26Z</time>
      </trkpt>
      <trkpt lat="47.40075" lon="2.75317">
        <ele>228.64</ele>
        <time>2017-10-01T11:29:36Z</time>
      </trkpt>
      <trkpt lat="47.40092" lon="2.75328">
        <ele>230</ele>
        <time>2017-10-01T11:29:51Z</time>
      </trkpt>
      <trkpt lat="47.4011" lon="2.75336">
        <ele>229.7</ele>
        <time>2017-10-01T11:30:04Z</time>
      </trkpt>
      <trkpt lat="47.40128" lon="2.75346">
        <ele>230.72</ele>
        <time>2017-10-01T11:30:12Z</time>
      </trkpt>
      <trkpt lat="47.40146" lon="2.75349">
        <ele>230.75</ele>
        <time>2017-10-01T11:30:24Z</time>
      </trkpt>
      <trkpt lat="47.40165" lon="2.7535">
        <ele>230.64</ele>
        <time>2017-10-01T11:30:38Z</time>
      </trkpt>
      <trkpt lat="47.40183" lon="2.75351">
        <ele>232.37</ele>
        <time>2017-10-01T11:30:49Z</time>
      </trkpt>
      <trkpt lat="47.40202" lon="2.75353">
        <ele>233.34</ele>
        <time>2017-10-01T11:31:00Z</time>
      </trkpt>
      <trkpt lat="47.40219" lon="2.75346">
        <ele>233.6</ele>
        <time>2017-10-01T11:31:12Z</time>
      </trkpt>
      <trkpt lat="47.40236" lon="2.75355">
        <ele>233.11</ele>
        <time>2017-10-01T11:31:26Z</time>
      </trkpt>
      <trkpt lat="47.40247" lon="2.75377">
        <ele>231.51</ele>
        <time>2017-10-01T11:31:41Z</time>
      </trkpt>
      <trkpt lat="47.40257" lon="2.75403">
        <ele>230.97</ele>
        <time>2017-10-01T11:31:55Z</time>
      </trkpt>
      <trkpt lat="47.40254" lon="2.75431">
        <ele>229.64</ele>
        <time>2017-10-01T11:32:06Z</time>
      </trkpt>
      <trkpt lat="47.40249" lon="2.75457">
        <ele>228.3</ele>
        <time>2017-10-01T11:32:16Z</time>
      </trkpt>
    </trkseg>
  </trk>
</gpx>